[[{"header":{"parameterUnit":"m.s-1","parameterCategory":1,"la1":31.0,"la2":29.5877,"lo1":-88.7671,"lo2":-86.6584,"dx":0.0162,"dy":0.0185,"nx":115,"ny":88,"refTime":"2022-11-16T18:00:00:Z","depth":0,"parameterNumber":2,"parameterNumberName":"U-component_of_WINDS"},"data":[0.0,0.0,0.0,0.0,0.0,0.0,0.0,0.0,0.0,0.0,0.0,0.0,0.0,0.0,0.0,0.0,0.0,0.0,0.0,0.0,0.0,0.0,0.0,0.0,0.0,0.0,0.0,0.0,0.0,0.0,0.0,0.0,0.0,0.0,0.0,0.0,0.0,0.0,0.0,0.0,0.0,0.0,0.0,0.0,0.0,0.0,0.0,0.0,0.0,0.0,0.0,0.0,0.0,0.0,0.0,0.0,0.0,0.0,0.0,0.0,0.0,0.0,0.0,0.0,0.0,0.0,0.0,0.0,0.0,0.0,0.0,0.0,0.0,0.0,0.0,0.0,0.0,0.0,0.0,0.0,0.0,0.0,0.0,0.0,0.0,0.0,0.0,0.0,0.0,0.0,0.0,0.0,0.0,0.0,0.0,0.0,0.0,0.0,0.0,0.0,0.0,0.0,0.0,0.0,0.0,0.0,0.0,0.0,0.0,0.0,0.0,0.0,0.0,0.0,0.0,0.0,0.0,0.0,0.0,0.0,0.0,0.0,0.0,0.0,0.0,0.0,0.0,0.0,0.0,0.0,0.0,0.0,0.0,0.0,0.0,0.0,0.0,0.0,0.0,0.0,0.0,0.0,0.0,0.0,0.0,0.0,0.0,0.0,0.0,0.0,0.0,0.0,0.0,0.0,0.0,0.0,0.0,0.0,0.0,0.0,0.0,0.0,0.0,0.0,0.0,0.0,0.0,0.0,0.0,0.0,0.0,0.0,0.0,0.0,0.0,0.0,0.0,0.0,0.0,0.0,0.0,0.0,0.0,0.0,0.0,0.0,0.0,0.0,0.0,0.0,0.0,0.0,0.0,0.0,0.0,0.0,0.0,0.0,0.0,0.0,0.0,0.0,0.0,0.0,0.0,0.0,0.0,0.0,0.0,0.0,0.0,0.0,0.0,0.0,0.0,0.0,0.0,0.0,0.0,0.0,0.0,0.0,0.0,0.0,0.0,0.0,0.0,0.0,0.0,0.0,0.0,0.0,0.0,0.0,0.0,0.0,0.0,0.0,0.0,0.0,0.0,0.0,0.0,0.0,0.0,0.0,0.0,0.0,0.0,0.0,0.0,0.0,0.0,0.0,0.0,0.0,0.0,0.0,0.0,0.0,0.0,0.0,0.0,0.0,0.0,0.0,0.0,0.0,0.0,0.0,0.0,0.0,0.0,0.0,0.0,0.0,0.0,0.0,0.0,0.0,0.0,0.0,0.0,0.0,0.0,0.0,0.0,0.0,0.0,0.0,0.0,0.0,0.0,0.0,0.0,0.0,0.0,0.0,0.0,0.0,0.0,0.0,0.0,0.0,0.0,0.0,0.0,0.0,0.0,0.0,0.0,0.0,0.0,0.0,0.0,0.0,0.0,0.0,0.0,0.0,0.0,0.0,0.0,0.0,0.0,0.0,0.0,0.0,0.0,0.0,0.0,0.0,0.0,0.0,0.0,0.0,0.0,0.0,0.0,0.0,0.0,0.0,0.0,0.0,0.0,0.0,0.0,0.0,0.0,0.0,0.0,0.0,0.0,0.0,0.0,0.0,0.0,0.0,0.0,0.0,0.0,0.0,0.0,0.0,0.0,0.0,0.0,0.0,0.0,0.0,0.0,0.0,0.0,0.0,0.0,0.0,0.0,0.0,0.0,0.0,0.0,0.0,0.0,0.0,0.0,0.0,0.0,0.0,0.0,0.0,0.0,0.0,0.0,0.0,0.0,0.0,0.0,0.0,0.0,0.0,0.0,0.0,0.0,0.0,0.0,0.0,0.0,0.0,0.0,0.0,0.0,0.0,0.0,0.0,0.0,0.0,0.0,0.0,0.0,0.0,0.0,0.0,0.0,0.0,0.0,0.0,0.0,0.0,0.0,0.0,0.0,0.0,0.0,0.0,0.0,0.0,0.0,0.0,0.0,0.0,0.0,0.0,0.0,0.0,0.0,0.0,0.0,0.0,0.0,0.0,0.0,0.0,0.0,0.0,0.0,0.0,0.0,0.0,0.0,0.0,0.0,0.0,0.0,0.0,0.0,0.0,0.0,0.0,0.0,0.0,0.0,0.0,0.0,0.0,0.0,0.0,0.0,0.0,0.0,0.0,0.0,0.0,0.0,0.0,0.0,0.0,0.0,0.0,0.0,0.0,0.0,0.0,0.0,0.0,0.0,0.0,0.0,0.0,0.0,0.0,0.0,0.0,0.0,0.0,0.0,0.0,0.0,0.0,0.0,0.0,0.0,0.0,0.0,0.0,0.0,0.0,0.0,0.0,0.0,0.0,0.0,0.0,0.0,0.0,0.0,0.0,0.0,0.0,0.0,0.0,0.0,0.0,0.0,0.0,0.0,0.0,0.0,0.0,0.0,0.0,0.0,0.0,0.0,0.0,0.0,0.0,0.0,0.0,0.0,0.0,0.0,0.0,0.0,0.0,0.0,0.0,0.0,0.0,0.0,0.0,0.0,0.0,0.0,0.0,0.0,0.0,0.0,0.0,0.0,0.0,0.0,0.0,0.0,0.0,0.0,0.0,0.0,0.0,0.0,0.0,0.0,0.0,0.0,0.0,0.0,0.0,0.0,0.0,0.0,0.0,0.0,0.0,0.0,0.0,0.0,0.0,0.0,0.0,0.0,0.0,0.0,0.0,0.0,0.0,0.0,0.0,0.0,0.0,0.0,0.0,0.0,0.0,0.0,0.0,0.0,0.0,0.0,0.0,0.0,0.0,0.0,0.0,0.0,0.0,0.0,0.0,0.0,0.0,0.0,0.0,0.0,0.0,0.0,0.0,0.0,0.0,0.0,0.0,0.0,0.0,0.0,0.0,0.0,0.0,0.0,0.0,0.0,0.0,0.0,0.0,0.0,0.0,0.0,0.0,0.0,0.0,0.0,0.0,0.0,0.0,0.0,0.0,0.0,0.0,0.0,0.0,0.0,0.0,0.0,0.0,0.0,0.0,0.0,0.0,0.0,0.0,0.0,0.0,0.0,0.0,0.0,0.0,0.0,0.0,0.0,0.0,0.0,0.0,0.0,0.0,0.0,0.0,0.0,0.0,0.0,0.0,0.0,0.0,0.0,0.0,0.0,0.0,0.0,0.0,0.0,0.0,0.0,0.0,0.0,0.0,0.0,0.0,0.0,0.0,0.0,0.0,0.0,0.0,0.0,0.0,0.0,0.0,0.0,0.0,0.0,0.0,0.0,0.0,0.0,0.0,0.0,0.0,0.0,0.0,0.0,0.0,0.0,0.0,0.0,0.0,0.0,0.0,0.0,0.0,0.0,0.0,0.0,0.0,0.0,0.0,0.0,0.0,0.0,0.0,0.0,0.0,0.0,0.0,0.0,0.0,0.0,0.0,0.0,0.0,0.0,0.0,0.0,0.0,0.0,0.0,0.0,0.0,0.0,0.0,0.0,0.0,0.0,0.0,0.0,0.0,0.0,0.0,0.0,0.0,0.0,0.0,0.0,0.0,0.0,0.0,0.0,0.0,0.0,0.0,0.0,0.0,0.0,0.0,0.0,0.0,0.0,0.0,0.0,0.0,0.0,0.0,0.0,0.0,0.0,0.0,0.0,0.0,0.0,0.0,0.0,0.0,0.0,0.0,0.0,0.0,0.0,0.0,0.0,0.0,0.0,0.0,0.0,0.0,0.0,0.0,0.0,0.0,0.0,0.0,0.0,0.0,0.0,0.0,0.0,0.0,0.0,0.0,0.0,0.0,0.0,0.0,0.0,0.0,0.0,0.0,0.0,0.0,0.0,0.0,0.0,0.0,0.0,0.0,0.0,0.0,0.0,0.0,0.0,0.0,0.0,0.0,0.0,0.0,0.0,0.0,0.0,0.0,0.0,0.0,0.0,0.0,0.0,0.0,0.0,0.0,0.0,0.0,0.0,0.0,0.0,0.0,0.0,0.0,0.0,0.0,0.0,0.0,0.0,0.0,0.0,0.0,0.0,0.0,0.0,0.0,0.0,0.0,0.0,0.0,0.0,0.0,0.0,0.0,0.0,0.0,0.0,0.0,0.0,0.0,0.0,0.0,0.0,0.0,0.0,0.0,0.0,0.0,0.0,0.0,0.0,0.0,0.0,0.0,0.0,0.0,0.0,0.0,0.0,0.0,0.0,0.0,0.0,0.0,0.0,0.0,0.0,0.0,0.0,0.0,0.0,0.0,0.0,0.0,0.0,0.0,0.0,0.0,0.0,0.0,0.0,0.0,0.0,0.0,0.0,0.0,0.0,0.0,2.3798,0.0,0.0,0.0,2.3798,0.0,0.0,0.0,0.0,0.0,0.0,0.0,0.0,0.0,0.0,0.0,0.0,0.0,0.0,0.0,0.0,0.0,0.0,0.0,0.0,0.0,0.0,0.0,0.0,0.0,0.0,0.0,0.0,0.0,0.0,0.0,0.0,0.0,0.0,0.0,0.0,0.0,0.0,0.0,0.0,0.0,0.0,0.0,0.0,0.0,0.0,0.0,0.0,0.0,0.0,0.0,0.0,0.0,0.0,0.0,0.0,0.0,0.0,0.0,0.0,0.0,0.0,0.0,0.0,0.0,0.0,0.0,0.0,0.0,0.0,0.0,0.0,0.0,0.0,0.0,0.0,0.0,0.0,0.0,0.0,0.0,0.0,0.0,0.0,0.0,0.0,0.0,0.0,0.0,0.0,0.0,0.0,0.0,0.0,0.0,0.0,0.0,0.0,0.0,0.0,0.0,0.0,0.0,0.0,0.0,0.0,0.0,0.0,0.0,0.0,2.3428,2.3434,2.3558,2.3566,2.3434,0.0,0.0,0.0,0.0,0.0,0.0,0.0,0.0,0.0,0.0,0.0,0.0,0.0,0.0,0.0,0.0,0.0,0.0,0.0,0.0,0.0,0.0,0.0,0.0,0.0,0.0,0.0,0.0,0.0,0.0,0.0,0.0,0.0,0.0,0.0,0.0,0.0,0.0,0.0,0.0,0.0,0.0,0.0,0.0,0.0,0.0,0.0,0.0,0.0,0.0,0.0,0.0,0.0,0.0,0.0,0.0,0.0,0.0,0.0,0.0,0.0,0.0,0.0,0.0,0.0,0.0,0.0,0.0,0.0,0.0,0.0,0.0,0.0,0.0,0.0,0.0,0.0,0.0,0.0,0.0,0.0,0.0,0.0,0.0,0.0,0.0,0.0,0.0,0.0,0.0,0.0,0.0,0.0,0.0,0.0,0.0,0.0,0.0,0.0,0.0,0.0,0.0,0.0,0.0,0.0,0.0,0.0,0.0,0.0,0.0,0.0,0.0,2.3336,2.3353,2.3103,0.0,0.0,0.0,0.0,0.0,0.0,0.0,0.0,0.0,0.0,0.0,0.0,0.0,0.0,0.0,0.0,0.0,0.0,0.0,0.0,0.0,0.0,0.0,0.0,0.0,0.0,0.0,0.0,0.0,0.0,0.0,0.0,0.0,0.0,0.0,0.0,0.0,0.0,0.0,0.0,0.0,0.0,0.0,0.0,0.0,0.0,0.0,0.0,0.0,0.0,0.0,0.0,0.0,0.0,0.0,0.0,0.0,0.0,0.0,0.0,0.0,0.0,0.0,0.0,0.0,0.0,0.0,0.0,0.0,0.0,0.0,0.0,0.0,0.0,0.0,0.0,0.0,0.0,0.0,0.0,0.0,0.0,0.0,0.0,0.0,0.0,0.0,0.0,0.0,0.0,0.0,0.0,0.0,0.0,0.0,0.0,0.0,0.0,0.0,0.0,0.0,0.0,0.0,0.0,0.0,0.0,0.0,0.0,0.0,0.0,2.3544,2.3116,2.3333,0.0,2.3097,0.0,0.0,0.0,0.0,0.0,0.0,0.0,0.0,0.0,0.0,0.0,0.0,0.0,0.0,0.0,0.0,0.0,0.0,0.0,0.0,0.0,0.0,0.0,0.0,0.0,0.0,0.0,0.0,0.0,0.0,0.0,0.0,0.0,0.0,0.0,0.0,0.0,0.0,0.0,0.0,0.0,0.0,0.0,0.0,0.0,0.0,0.0,0.0,0.0,0.0,0.0,0.0,0.0,0.0,0.0,0.0,0.0,0.0,0.0,0.0,0.0,0.0,0.0,0.0,0.0,0.0,0.0,0.0,0.0,0.0,0.0,0.0,0.0,0.0,0.0,0.0,0.0,0.0,0.0,0.0,0.0,0.0,0.0,0.0,0.0,0.0,0.0,0.0,0.0,0.0,0.0,0.0,0.0,0.0,0.0,0.0,0.0,0.0,0.0,0.0,0.0,0.0,0.0,0.0,0.0,0.0,0.0,0.0,0.0,0.0,2.2809,2.2625,2.2734,2.2815,0.0,0.0,0.0,0.0,0.0,0.0,0.0,0.0,0.0,0.0,0.0,0.0,0.0,0.0,0.0,0.0,0.0,0.0,0.0,0.0,0.0,0.0,0.0,0.0,0.0,0.0,0.0,0.0,0.0,0.0,0.0,0.0,0.0,0.0,0.0,0.0,0.0,0.0,0.0,0.0,0.0,0.0,0.0,0.0,0.0,0.0,0.0,0.0,0.0,0.0,0.0,0.0,0.0,0.0,0.0,0.0,0.0,0.0,0.0,0.0,0.0,0.0,0.0,0.0,0.0,0.0,0.0,0.0,0.0,0.0,0.0,0.0,0.0,0.0,0.0,0.0,0.0,0.0,0.0,0.0,0.0,0.0,0.0,0.0,0.0,0.0,0.0,0.0,0.0,0.0,0.0,0.0,0.0,0.0,0.0,0.0,0.0,0.0,0.0,0.0,0.0,0.0,0.0,0.0,0.0,0.0,0.0,0.0,0.0,0.0,2.2558,2.2494,2.2408,2.2325,2.2381,2.2558,0.0,0.0,0.0,0.0,0.0,0.0,0.0,0.0,0.0,0.0,0.0,0.0,0.0,0.0,0.0,0.0,0.0,0.0,0.0,0.0,0.0,0.0,0.0,0.0,0.0,0.0,0.0,0.0,0.0,0.0,0.0,0.0,0.0,0.0,0.0,0.0,0.0,0.0,0.0,0.0,0.0,0.0,0.0,0.0,0.0,0.0,0.0,0.0,0.0,0.0,0.0,0.0,0.0,0.0,0.0,0.0,0.0,0.0,0.0,0.0,0.0,0.0,0.0,0.0,0.0,0.0,0.0,0.0,0.0,0.0,0.0,0.0,0.0,0.0,0.0,0.0,0.0,0.0,0.0,0.0,0.0,0.0,0.0,0.0,0.0,0.0,0.0,0.0,0.0,0.0,0.0,0.0,0.0,0.0,0.0,0.0,0.0,0.0,0.0,0.0,0.0,0.0,0.0,0.0,0.0,0.0,0.0,0.0,2.2719,2.2936,2.2946,2.2724,2.2432,2.2327,0.0,0.0,0.0,0.0,0.0,0.0,0.0,0.0,0.0,0.0,0.0,0.0,0.0,0.0,0.0,0.0,0.0,0.0,0.0,0.0,0.0,0.0,0.0,0.0,0.0,0.0,0.0,0.0,0.0,0.0,0.0,0.0,0.0,0.0,0.0,0.0,0.0,0.0,0.0,0.0,0.0,0.0,0.0,0.0,0.0,0.0,0.0,0.0,0.0,0.0,0.0,0.0,0.0,0.0,0.0,0.0,0.0,0.0,0.0,0.0,0.0,0.0,0.0,0.0,0.0,0.0,0.0,0.0,0.0,0.0,0.0,0.0,0.0,0.0,0.0,0.0,0.0,0.0,0.0,0.0,0.0,0.0,0.0,0.0,0.0,0.0,0.0,0.0,0.0,0.0,0.0,0.0,0.0,0.0,0.0,0.0,0.0,0.0,0.0,0.0,0.0,0.0,0.0,0.0,0.0,0.0,0.0,0.0,0.0,2.3131,2.3719,2.3962,2.385,2.3743,2.3488,0.0,0.0,0.0,0.0,0.0,0.0,0.0,0.0,0.0,0.0,0.0,0.0,0.0,0.0,0.0,0.0,0.0,0.0,0.0,0.0,0.0,0.0,0.0,0.0,0.0,0.0,0.0,0.0,0.0,0.0,0.0,0.0,0.0,0.0,0.0,0.0,0.0,0.0,0.0,0.0,0.0,0.0,0.0,0.0,0.0,0.0,0.0,0.0,0.0,0.0,0.0,0.0,0.0,0.0,0.0,0.0,0.0,0.0,0.0,0.0,0.0,0.0,0.0,0.0,0.0,0.0,0.0,0.0,0.0,0.0,0.0,0.0,0.0,0.0,0.0,0.0,0.0,0.0,0.0,0.0,0.0,0.0,0.0,0.0,0.0,0.0,0.0,0.0,0.0,0.0,0.0,0.0,0.0,0.0,0.0,0.0,0.0,0.0,0.0,0.0,0.0,0.0,0.0,0.0,0.0,0.0,0.0,0.0,0.0,2.409,2.4601,2.4838,2.4838,2.4872,2.4398,0.0,0.0,0.0,0.0,0.0,0.0,0.0,0.0,0.0,0.0,0.0,0.0,0.0,0.0,0.0,0.0,0.0,0.0,0.0,0.0,0.0,0.0,0.0,0.0,0.0,0.0,0.0,0.0,0.0,0.0,0.0,0.0,0.0,0.0,0.0,0.0,0.0,0.0,0.0,0.0,0.0,0.0,0.0,0.0,0.0,0.0,0.0,0.0,0.0,0.0,0.0,0.0,0.0,0.0,0.0,0.0,0.0,0.0,0.0,0.0,0.0,0.0,0.0,0.0,0.0,0.0,0.0,0.0,0.0,0.0,0.0,0.0,0.0,0.0,0.0,0.0,0.0,0.0,0.0,0.0,0.0,0.0,0.0,0.0,0.0,0.0,0.0,0.0,0.0,0.0,0.0,0.0,0.0,0.0,0.0,0.0,0.0,0.0,0.0,0.0,0.0,0.0,0.0,0.0,0.0,0.0,0.0,0.0,2.4188,2.5537,2.5634,2.574,2.563,2.5672,2.4962,0.0,0.0,0.0,0.0,0.0,0.0,0.0,0.0,0.0,0.0,0.0,0.0,0.0,0.0,0.0,0.0,0.0,0.0,0.0,0.0,0.0,0.0,0.0,0.0,0.0,0.0,0.0,0.0,0.0,0.0,0.0,0.0,0.0,0.0,0.0,0.0,0.0,0.0,0.0,0.0,0.0,0.0,0.0,0.0,0.0,0.0,0.0,0.0,0.0,0.0,0.0,0.0,0.0,0.0,0.0,0.0,0.0,0.0,0.0,0.0,0.0,0.0,0.0,0.0,0.0,0.0,0.0,0.0,0.0,0.0,0.0,0.0,0.0,0.0,0.0,0.0,0.0,0.0,0.0,0.0,0.0,0.0,0.0,0.0,0.0,0.0,0.0,0.0,0.0,0.0,0.0,0.0,0.0,0.0,0.0,0.0,0.0,0.0,0.0,0.0,0.0,0.0,0.0,0.0,0.0,0.0,0.0,0.0,0.0,2.6353,2.7406,2.7952,2.7918,2.7427,2.6649,0.0,0.0,0.0,0.0,0.0,0.0,0.0,0.0,0.0,0.0,0.0,0.0,0.0,0.0,0.0,0.0,0.0,0.0,0.0,0.0,0.0,0.0,0.0,0.0,0.0,0.0,0.0,0.0,0.0,0.0,0.0,0.0,0.0,0.0,0.0,0.0,0.0,0.0,0.0,0.0,0.0,0.0,0.0,0.0,0.0,0.0,0.0,0.0,0.0,0.0,0.0,0.0,0.0,0.0,0.0,0.0,0.0,0.0,0.0,0.0,0.0,0.0,0.0,0.0,0.0,0.0,0.0,0.0,0.0,0.0,0.0,0.0,0.0,0.0,0.0,0.0,0.0,0.0,0.0,0.0,0.0,0.0,0.0,0.0,0.0,0.0,0.0,0.0,0.0,0.0,0.0,0.0,0.0,0.0,0.0,0.0,0.0,0.0,0.0,0.0,0.0,0.0,0.0,0.0,0.0,0.0,0.0,0.0,0.0,2.9917,3.0542,3.0917,3.0889,3.02,2.8933,2.7138,0.0,0.0,0.0,0.0,0.0,0.0,0.0,0.0,0.0,0.0,0.0,0.0,0.0,0.0,0.0,0.0,0.0,0.0,0.0,0.0,0.0,0.0,0.0,0.0,0.0,0.0,0.0,0.0,0.0,0.0,0.0,0.0,0.0,0.0,0.0,0.0,0.0,0.0,0.0,0.0,0.0,0.0,0.0,0.0,0.0,0.0,0.0,0.0,0.0,0.0,0.0,0.0,0.0,0.0,0.0,0.0,0.0,0.0,0.0,0.0,0.0,0.0,0.0,0.0,0.0,0.0,0.0,0.0,0.0,0.0,0.0,0.0,0.0,0.0,0.0,0.0,0.0,0.0,0.0,0.0,0.0,0.0,0.0,0.0,0.0,0.0,0.0,0.0,0.0,0.0,0.0,0.0,0.0,0.0,0.0,0.0,0.0,0.0,0.0,0.0,0.0,0.0,0.0,0.0,0.0,0.0,0.0,0.0,3.5483,3.4954,3.4565,3.4342,3.3644,3.1649,0.0,0.0,0.0,0.0,0.0,0.0,0.0,0.0,0.0,0.0,0.0,0.0,0.0,0.0,0.0,0.0,0.0,0.0,0.0,0.0,0.0,0.0,0.0,0.0,0.0,0.0,0.0,0.0,0.0,0.0,0.0,0.0,0.0,0.0,0.0,0.0,0.0,0.0,0.0,0.0,0.0,0.0,0.0,0.0,0.0,0.0,0.0,0.0,0.0,0.0,0.0,0.0,0.0,0.0,0.0,0.0,0.0,0.0,0.0,0.0,0.0,0.0,0.0,0.0,0.0,0.0,0.0,0.0,0.0,0.0,0.0,0.0,0.0,0.0,0.0,0.0,0.0,0.0,0.0,0.0,0.0,0.0,0.0,0.0,0.0,0.0,0.0,0.0,0.0,0.0,0.0,0.0,0.0,0.0,0.0,0.0,0.0,0.0,0.0,0.0,0.0,0.0,0.0,0.0,0.0,0.0,0.0,0.0,0.0,3.9075,4.0398,3.99,3.7433,3.5712,3.3839,0.0,0.0,0.0,0.0,0.0,0.0,0.0,0.0,0.0,0.0,0.0,0.0,0.0,0.0,0.0,0.0,0.0,0.0,0.0,0.0,0.0,0.0,0.0,0.0,0.0,0.0,0.0,0.0,0.0,0.0,0.0,0.0,0.0,0.0,0.0,0.0,0.0,0.0,0.0,0.0,0.0,0.0,0.0,0.0,0.0,0.0,0.0,0.0,0.0,0.0,0.0,0.0,0.0,0.0,0.0,0.0,0.0,0.0,0.0,0.0,0.0,0.0,0.0,0.0,0.0,0.0,0.0,0.0,0.0,0.0,0.0,0.0,0.0,0.0,0.0,0.0,0.0,0.0,0.0,0.0,0.0,0.0,0.0,0.0,0.0,0.0,0.0,0.0,0.0,0.0,0.0,0.0,0.0,0.0,0.0,0.0,0.0,0.0,0.0,0.0,0.0,0.0,0.0,0.0,0.0,0.0,0.0,0.0,3.9588,4.1773,4.4214,4.4509,4.253,3.8986,3.6057,0.0,0.0,0.0,0.0,0.0,0.0,0.0,0.0,0.0,0.0,0.0,0.0,0.0,0.0,0.0,0.0,0.0,0.0,0.0,0.0,0.0,0.0,0.0,0.0,0.0,0.0,0.0,0.0,0.0,0.0,0.0,0.0,0.0,0.0,0.0,0.0,0.0,0.0,0.0,0.0,0.0,0.0,0.0,0.0,0.0,0.0,0.0,0.0,0.0,0.0,0.0,0.0,0.0,0.0,0.0,0.0,0.0,0.0,0.0,0.0,0.0,0.0,0.0,0.0,0.0,0.0,0.0,0.0,0.0,0.0,0.0,0.0,0.0,0.0,0.0,0.0,0.0,0.0,0.0,0.0,0.0,0.0,0.0,0.0,0.0,0.0,0.0,0.0,0.0,0.0,0.0,0.0,0.0,0.0,0.0,0.0,0.0,0.0,0.0,0.0,0.0,0.0,0.0,0.0,0.0,0.0,0.0,0.0,4.251,4.3944,4.6734,4.8199,4.7968,4.2702,3.8391,0.0,0.0,0.0,0.0,0.0,0.0,0.0,0.0,0.0,0.0,0.0,0.0,0.0,0.0,0.0,0.0,0.0,0.0,0.0,0.0,0.0,0.0,0.0,0.0,0.0,0.0,0.0,0.0,0.0,0.0,0.0,0.0,0.0,0.0,0.0,0.0,0.0,0.0,0.0,0.0,0.0,0.0,0.0,0.0,0.0,0.0,0.0,0.0,0.0,0.0,0.0,0.0,0.0,0.0,0.0,0.0,0.0,0.0,0.0,0.0,0.0,0.0,0.0,0.0,0.0,0.0,0.0,0.0,0.0,0.0,0.0,0.0,0.0,0.0,0.0,0.0,0.0,0.0,0.0,0.0,0.0,0.0,0.0,0.0,0.0,0.0,0.0,0.0,0.0,0.0,0.0,0.0,0.0,0.0,0.0,0.0,0.0,0.0,0.0,0.0,0.0,0.0,0.0,0.0,0.0,0.0,0.0,0.0,4.4271,4.6179,4.8514,4.945,4.8854,4.4388,4.0877,0.0,0.0,0.0,0.0,0.0,0.0,0.0,0.0,0.0,0.0,0.0,0.0,0.0,0.0,0.0,0.0,0.0,0.0,0.0,0.0,0.0,0.0,0.0,0.0,0.0,0.0,0.0,0.0,0.0,0.0,0.0,0.0,0.0,0.0,0.0,0.0,0.0,0.0,0.0,0.0,0.0,0.0,0.0,0.0,0.0,0.0,0.0,0.0,2.5648,0.0,0.0,0.0,0.0,0.0,0.0,0.0,0.0,0.0,0.0,0.0,0.0,0.0,0.0,0.0,0.0,0.0,0.0,0.0,0.0,0.0,0.0,0.0,0.0,0.0,0.0,0.0,0.0,0.0,0.0,0.0,0.0,0.0,0.0,0.0,0.0,0.0,0.0,0.0,0.0,0.0,0.0,0.0,0.0,0.0,0.0,0.0,0.0,0.0,0.0,0.0,0.0,0.0,0.0,0.0,0.0,0.0,0.0,0.0,4.5065,4.7835,4.9417,5.0179,4.9997,4.6573,4.3138,0.0,0.0,0.0,0.0,0.0,0.0,0.0,0.0,0.0,0.0,0.0,0.0,0.0,0.0,0.0,0.0,0.0,0.0,0.0,0.0,0.0,0.0,0.0,0.0,0.0,0.0,0.0,0.0,0.0,0.0,0.0,0.0,0.0,0.0,0.0,0.0,0.0,0.0,0.0,0.0,0.0,0.0,0.0,0.0,0.0,0.0,0.0,0.0,0.0,0.0,0.0,0.0,0.0,0.0,0.0,0.0,0.0,0.0,0.0,0.0,0.0,0.0,0.0,0.0,0.0,0.0,0.0,0.0,0.0,0.0,0.0,0.0,0.0,0.0,0.0,0.0,0.0,0.0,0.0,0.0,0.0,0.0,0.0,0.0,0.0,0.0,0.0,0.0,0.0,0.0,0.0,0.0,0.0,0.0,0.0,0.0,0.0,0.0,0.0,0.0,0.0,0.0,0.0,0.0,0.0,0.0,0.0,4.2314,4.589,4.945,5.041,5.1048,5.1406,4.8738,4.5193,4.0859,0.0,0.0,0.0,0.0,0.0,0.0,0.0,0.0,0.0,0.0,0.0,0.0,0.0,0.0,0.0,0.0,0.0,0.0,0.0,0.0,0.0,0.0,0.0,0.0,0.0,0.0,0.0,0.0,0.0,0.0,0.0,0.0,0.0,0.0,0.0,0.0,0.0,0.0,2.4161,2.5255,0.0,0.0,0.0,0.0,0.0,0.0,0.0,0.0,2.7513,0.0,0.0,0.0,0.0,0.0,0.0,0.0,0.0,0.0,0.0,0.0,0.0,0.0,0.0,0.0,0.0,0.0,0.0,0.0,0.0,0.0,0.0,0.0,0.0,0.0,0.0,0.0,0.0,0.0,0.0,0.0,0.0,0.0,0.0,0.0,0.0,0.0,0.0,0.0,0.0,0.0,0.0,0.0,0.0,0.0,0.0,0.0,0.0,0.0,0.0,0.0,0.0,0.0,0.0,0.0,0.0,4.1718,4.4813,4.8133,5.1753,5.3126,5.3292,5.2192,4.9964,4.6668,4.2329,0.0,0.0,0.0,0.0,0.0,0.0,0.0,0.0,0.0,0.0,0.0,0.0,0.0,0.0,0.0,0.0,0.0,0.0,0.0,0.0,0.0,0.0,0.0,0.0,0.0,0.0,0.0,0.0,0.0,0.0,0.0,0.0,0.0,0.0,0.0,0.0,0.0,0.0,0.0,2.8028,2.8882,0.0,0.0,0.0,0.0,0.0,0.0,0.0,0.0,3.0797,0.0,0.0,0.0,0.0,0.0,0.0,0.0,0.0,0.0,0.0,0.0,0.0,0.0,0.0,0.0,0.0,0.0,0.0,0.0,0.0,0.0,0.0,0.0,0.0,0.0,0.0,0.0,0.0,0.0,0.0,0.0,0.0,0.0,0.0,0.0,0.0,0.0,0.0,0.0,0.0,0.0,0.0,0.0,0.0,0.0,0.0,0.0,0.0,0.0,0.0,0.0,0.0,0.0,0.0,0.0,4.294,4.5945,4.938,5.3298,5.3734,5.3525,5.2819,4.9945,4.6331,0.0,0.0,0.0,0.0,0.0,0.0,0.0,0.0,0.0,0.0,0.0,0.0,0.0,0.0,0.0,0.0,0.0,0.0,0.0,0.0,0.0,0.0,0.0,0.0,0.0,0.0,0.0,0.0,0.0,0.0,0.0,0.0,0.0,0.0,0.0,0.0,0.0,0.0,0.0,0.0,3.0689,3.1632,3.3743,0.0,0.0,0.0,0.0,0.0,0.0,3.375,3.3049,0.0,0.0,0.0,0.0,0.0,0.0,0.0,0.0,0.0,0.0,0.0,0.0,0.0,0.0,0.0,0.0,0.0,0.0,0.0,0.0,0.0,0.0,0.0,0.0,0.0,0.0,0.0,0.0,0.0,0.0,0.0,0.0,0.0,0.0,0.0,0.0,0.0,0.0,0.0,0.0,0.0,0.0,0.0,0.0,0.0,0.0,0.0,0.0,0.0,0.0,0.0,0.0,0.0,0.0,0.0,4.3508,4.6547,5.0058,5.3929,5.3645,5.3318,5.3162,4.9355,4.5482,0.0,0.0,0.0,0.0,0.0,0.0,0.0,0.0,0.0,0.0,0.0,0.0,0.0,0.0,0.0,0.0,0.0,0.0,0.0,0.0,0.0,0.0,0.0,0.0,0.0,0.0,0.0,0.0,0.0,0.0,0.0,0.0,0.0,0.0,0.0,0.0,0.0,0.0,0.0,0.0,0.0,3.4194,3.6407,3.6777,0.0,0.0,0.0,0.0,3.5871,3.6034,0.0,0.0,0.0,0.0,0.0,0.0,0.0,0.0,0.0,0.0,0.0,0.0,0.0,0.0,0.0,0.0,0.0,0.0,0.0,0.0,0.0,0.0,0.0,0.0,0.0,0.0,0.0,0.0,0.0,0.0,0.0,0.0,0.0,0.0,0.0,0.0,0.0,0.0,0.0,0.0,0.0,0.0,0.0,0.0,0.0,0.0,0.0,0.0,0.0,0.0,0.0,0.0,0.0,0.0,0.0,0.0,4.3484,4.6935,5.0116,5.2918,5.364,5.3587,5.2911,4.838,4.4805,0.0,0.0,0.0,0.0,0.0,0.0,0.0,0.0,0.0,0.0,0.0,0.0,0.0,0.0,0.0,0.0,0.0,0.0,0.0,0.0,0.0,0.0,0.0,0.0,0.0,0.0,0.0,0.0,0.0,0.0,0.0,0.0,0.0,0.0,0.0,0.0,0.0,0.0,0.0,0.0,0.0,3.5752,3.8459,3.884,3.8455,0.0,0.0,4.1705,3.8343,3.9953,0.0,0.0,0.0,0.0,0.0,0.0,0.0,0.0,0.0,0.0,0.0,0.0,0.0,0.0,0.0,0.0,0.0,0.0,0.0,0.0,0.0,0.0,0.0,0.0,0.0,0.0,0.0,0.0,0.0,0.0,0.0,0.0,0.0,0.0,0.0,0.0,0.0,0.0,0.0,0.0,0.0,0.0,0.0,0.0,0.0,0.0,0.0,0.0,0.0,0.0,0.0,0.0,0.0,0.0,0.0,4.0662,4.4579,4.768,5.0822,5.3955,5.427,5.4035,5.3352,4.861,4.4859,0.0,0.0,0.0,0.0,0.0,0.0,0.0,0.0,0.0,0.0,0.0,0.0,0.0,0.0,0.0,0.0,0.0,0.0,0.0,0.0,0.0,0.0,0.0,0.0,0.0,0.0,0.0,0.0,0.0,0.0,0.0,0.0,0.0,0.0,0.0,0.0,0.0,0.0,0.0,0.0,0.0,0.0,4.0013,4.1124,0.0,0.0,0.0,4.2995,3.9877,0.0,0.0,0.0,0.0,0.0,0.0,0.0,0.0,0.0,0.0,0.0,0.0,0.0,0.0,0.0,0.0,0.0,0.0,0.0,0.0,0.0,0.0,0.0,0.0,0.0,0.0,0.0,0.0,0.0,0.0,0.0,0.0,0.0,0.0,0.0,0.0,0.0,0.0,0.0,0.0,0.0,0.0,0.0,0.0,0.0,0.0,0.0,0.0,0.0,0.0,0.0,0.0,0.0,0.0,0.0,0.0,0.0,4.4889,4.8152,5.1243,5.4164,5.4276,5.4037,5.3526,4.9162,0.0,0.0,0.0,0.0,0.0,0.0,0.0,0.0,0.0,0.0,0.0,0.0,0.0,0.0,0.0,0.0,0.0,0.0,0.0,0.0,0.0,0.0,0.0,0.0,0.0,0.0,0.0,2.2168,0.0,0.0,0.0,0.0,0.0,0.0,0.0,0.0,0.0,0.0,0.0,0.0,0.0,0.0,3.9678,4.1246,4.278,4.3829,0.0,0.0,4.4139,4.1687,4.3232,4.2979,0.0,0.0,0.0,0.0,0.0,0.0,0.0,0.0,0.0,0.0,0.0,0.0,0.0,0.0,0.0,0.0,0.0,0.0,0.0,0.0,0.0,0.0,0.0,0.0,0.0,0.0,0.0,0.0,0.0,0.0,0.0,0.0,0.0,0.0,0.0,0.0,0.0,0.0,0.0,0.0,0.0,0.0,0.0,0.0,0.0,0.0,0.0,0.0,0.0,0.0,0.0,0.0,0.0,0.0,0.0,4.3516,4.8009,5.1019,5.2365,5.299,5.3278,5.3188,4.9914,4.6636,0.0,0.0,0.0,0.0,0.0,0.0,0.0,0.0,0.0,0.0,0.0,0.0,0.0,0.0,0.0,0.0,0.0,0.0,0.0,0.0,0.0,0.0,0.0,0.0,0.0,0.0,0.0,0.0,0.0,0.0,0.0,0.0,0.0,0.0,0.0,0.0,0.0,0.0,0.0,0.0,0.0,4.1449,4.2149,4.3461,4.4563,0.0,0.0,4.5818,4.4266,4.6401,4.6391,4.09,0.0,0.0,0.0,0.0,0.0,0.0,0.0,0.0,0.0,0.0,0.0,0.0,0.0,0.0,0.0,0.0,0.0,0.0,0.0,0.0,0.0,0.0,0.0,0.0,0.0,0.0,0.0,0.0,0.0,0.0,0.0,0.0,0.0,0.0,0.0,0.0,0.0,0.0,0.0,0.0,0.0,0.0,0.0,0.0,0.0,0.0,0.0,0.0,0.0,0.0,0.0,0.0,0.0,4.2097,4.4536,4.8732,5.1906,5.3947,5.4281,5.4431,5.4456,5.1217,4.7916,0.0,0.0,0.0,0.0,0.0,0.0,0.0,0.0,0.0,0.0,0.0,0.0,0.0,0.0,0.0,0.0,0.0,0.0,0.0,0.0,0.0,0.0,0.0,0.0,0.0,0.0,0.0,0.0,2.7554,2.8306,2.8277,0.0,0.0,0.0,0.0,0.0,0.0,0.0,0.0,0.0,0.0,4.2792,4.5072,4.6614,0.0,0.0,4.8663,4.8081,4.591,4.6834,4.6123,4.1182,4.0895,0.0,0.0,0.0,0.0,0.0,0.0,0.0,0.0,0.0,0.0,0.0,0.0,0.0,0.0,0.0,0.0,0.0,0.0,0.0,0.0,0.0,0.0,0.0,0.0,0.0,0.0,0.0,0.0,0.0,0.0,0.0,0.0,0.0,0.0,0.0,0.0,0.0,0.0,0.0,0.0,0.0,0.0,0.0,0.0,0.0,0.0,0.0,0.0,0.0,0.0,0.0,0.0,4.2587,4.5282,4.9591,5.2905,5.5149,5.5581,5.57,5.5431,5.3025,5.0051,0.0,0.0,0.0,0.0,0.0,0.0,0.0,0.0,0.0,0.0,0.0,0.0,0.0,0.0,0.0,0.0,0.0,0.0,0.0,0.0,0.0,0.0,0.0,0.0,0.0,0.0,0.0,0.0,2.9711,3.0483,3.0382,0.0,0.0,0.0,0.0,0.0,0.0,0.0,0.0,0.0,0.0,4.4777,4.6742,4.8224,4.9334,4.9931,4.9661,4.884,4.7239,4.7303,4.6381,4.2751,0.0,0.0,0.0,0.0,0.0,0.0,0.0,0.0,0.0,0.0,0.0,0.0,0.0,0.0,0.0,0.0,0.0,0.0,0.0,0.0,0.0,0.0,0.0,0.0,0.0,0.0,0.0,0.0,0.0,0.0,2.7417,0.0,0.0,0.0,0.0,0.0,0.0,0.0,0.0,0.0,0.0,0.0,0.0,0.0,0.0,0.0,0.0,0.0,0.0,0.0,0.0,0.0,0.0,4.275,4.5335,5.0504,5.3845,5.5222,5.6406,5.6778,5.6222,5.5461,5.3216,4.9258,0.0,0.0,0.0,0.0,0.0,0.0,0.0,0.0,0.0,0.0,0.0,0.0,0.0,0.0,0.0,0.0,0.0,0.0,0.0,0.0,0.0,0.0,0.0,0.0,0.0,0.0,2.8641,3.0956,3.263,0.0,0.0,0.0,0.0,0.0,0.0,0.0,0.0,0.0,0.0,4.5221,4.7634,4.6558,4.7513,4.8658,4.9303,4.8322,4.7641,4.8213,4.827,4.7818,0.0,0.0,0.0,0.0,0.0,0.0,0.0,0.0,0.0,0.0,0.0,0.0,0.0,0.0,0.0,0.0,0.0,0.0,0.0,0.0,0.0,0.0,0.0,0.0,0.0,0.0,0.0,3.2281,3.2691,0.0,0.0,0.0,0.0,0.0,0.0,0.0,0.0,0.0,0.0,0.0,4.1855,4.2737,0.0,0.0,0.0,0.0,0.0,0.0,0.0,0.0,0.0,0.0,0.0,0.0,4.5304,4.679,5.1839,5.5162,5.6406,5.6885,5.7214,5.7453,5.5987,5.3126,4.8768,0.0,0.0,0.0,0.0,0.0,0.0,0.0,0.0,0.0,0.0,0.0,0.0,0.0,0.0,0.0,0.0,0.0,0.0,0.0,0.0,0.0,0.0,0.0,0.0,0.0,3.263,0.0,0.0,0.0,0.0,0.0,0.0,0.0,0.0,0.0,0.0,0.0,4.2262,4.4339,4.5981,4.7276,4.8161,4.9015,5.011,0.0,0.0,0.0,0.0,0.0,0.0,0.0,0.0,0.0,0.0,0.0,0.0,0.0,0.0,4.0581,3.9283,3.9753,4.0459,4.0893,0.0,0.0,0.0,0.0,0.0,0.0,0.0,0.0,0.0,0.0,0.0,0.0,0.0,0.0,3.6453,0.0,3.6151,0.0,0.0,0.0,0.0,0.0,0.0,0.0,0.0,4.3892,4.5299,4.5639,4.6511,4.6829,0.0,4.6367,4.3728,0.0,0.0,0.0,0.0,0.0,0.0,0.0,0.0,4.7209,4.8465,5.3294,5.6496,5.7723,5.8261,5.859,5.877,5.6885,5.4102,5.0451,4.7777,4.4625,0.0,0.0,0.0,0.0,0.0,0.0,0.0,0.0,0.0,0.0,0.0,0.0,0.0,0.0,0.0,0.0,0.0,0.0,0.0,0.0,0.0,0.0,0.0,3.55,0.0,0.0,0.0,0.0,0.0,0.0,0.0,0.0,0.0,4.0346,4.2399,4.4809,4.7034,4.8131,4.8914,4.9523,0.0,0.0,0.0,0.0,0.0,0.0,0.0,4.8865,4.7608,4.7578,4.7818,4.8008,4.8016,4.7856,4.7418,0.0,0.0,4.3728,4.3808,4.4456,4.4666,4.4377,4.4427,4.5473,4.5574,4.5883,0.0,0.0,0.0,0.0,0.0,0.0,0.0,0.0,4.1703,4.1093,0.0,4.0433,0.0,0.0,0.0,0.0,0.0,4.3487,0.0,0.0,4.8827,4.9774,4.8633,4.864,4.8959,4.9408,4.7701,4.6721,4.6514,4.5273,0.0,0.0,0.0,0.0,0.0,0.0,4.8394,5.0446,5.4867,5.7826,5.9099,6.0372,6.0745,6.004,5.8185,5.6226,5.4299,5.1684,4.94,4.7358,4.2452,0.0,0.0,0.0,0.0,0.0,0.0,0.0,0.0,0.0,0.0,0.0,0.0,0.0,0.0,0.0,0.0,0.0,0.0,0.0,0.0,3.6729,0.0,0.0,0.0,0.0,0.0,0.0,0.0,0.0,0.0,0.0,4.2678,4.5286,4.7827,4.9089,0.0,0.0,0.0,0.0,5.233,4.9977,4.9527,4.9599,4.9647,5.0612,5.1756,5.2977,0.0,0.0,5.3396,5.2276,5.1505,5.1475,5.2486,5.1959,4.7646,4.6929,4.7048,4.7627,4.7848,4.7919,4.8517,4.9426,4.9924,4.7586,0.0,0.0,0.0,0.0,4.5196,4.6042,4.7344,4.6528,4.6396,4.6782,4.6125,0.0,0.0,0.0,0.0,0.0,0.0,4.8002,4.9553,5.1078,5.2522,5.3917,5.4384,5.4683,5.4832,5.4281,5.3773,5.3318,5.2479,4.9245,4.3816,0.0,0.0,0.0,0.0,5.1307,5.3803,5.6915,5.8949,5.9801,6.0641,6.0775,6.013,5.9069,5.7812,5.6316,5.4209,5.1894,4.9471,4.661,0.0,0.0,0.0,0.0,0.0,0.0,0.0,0.0,0.0,0.0,0.0,0.0,0.0,0.0,0.0,0.0,0.0,0.0,0.0,3.9448,4.0354,4.0783,0.0,0.0,0.0,0.0,0.0,0.0,0.0,0.0,0.0,4.7875,4.7951,4.8339,0.0,0.0,5.0847,5.0267,5.1905,5.3288,5.3468,5.3516,0.0,5.4713,5.4413,5.4192,5.4563,5.5538,5.6196,5.603,5.6466,5.6812,5.6812,5.7154,5.6915,5.5735,5.4294,5.3623,5.4144,5.4281,5.4521,5.5136,5.5466,5.5671,5.2619,5.0945,4.8921,4.8212,4.8438,4.8428,4.9264,5.0578,4.9743,4.9557,4.9843,4.9541,4.8718,4.7621,4.7652,0.0,0.0,0.0,5.1172,5.3578,5.4262,5.5571,5.73,5.7736,5.8022,5.8274,5.8035,5.7842,5.7706,5.6509,5.3892,4.983,0.0,0.0,4.9684,5.2007,5.4221,5.6376,5.8949,6.0595,6.1282,6.1912,6.1822,6.0938,6.0519,5.9548,5.7962,5.6782,5.494,5.2282,5.0039,4.7238,0.0,0.0,0.0,0.0,0.0,0.0,0.0,0.0,0.0,0.0,0.0,3.0598,3.0266,0.0,0.0,0.0,3.9179,4.0861,4.2316,4.2846,0.0,0.0,0.0,0.0,0.0,0.0,0.0,4.4945,4.8397,5.1091,5.1696,5.1588,5.1672,5.23,5.2953,5.324,5.297,0.0,5.606,5.6316,5.6555,5.7004,5.7752,5.7693,5.7693,5.8245,5.8963,5.9442,5.9502,6.008,6.046,6.0476,6.0378,6.0384,6.0607,5.9656,5.8611,5.8196,5.8313,5.8673,5.9192,5.9313,5.9422,5.7274,5.6835,5.2147,5.046,5.0836,5.0886,5.1687,5.2875,5.2182,5.1593,5.1222,5.1651,5.083,4.9177,4.9157,0.0,5.2837,5.2779,5.4443,5.7423,5.8025,5.8756,5.9474,5.9518,5.9847,6.0459,5.9817,5.9787,6.031,5.8514,5.7812,5.8278,5.5919,5.4334,5.3725,5.5414,5.7047,5.8427,6.0821,6.2465,6.3243,6.3797,6.3528,6.2361,6.2271,6.1343,5.9518,5.9308,5.8082,5.5598,5.3042,5.0739,4.8607,0.0,0.0,0.0,0.0,0.0,0.0,0.0,0.0,0.0,0.0,0.0,0.0,0.0,0.0,0.0,4.3842,0.0,4.4907,4.4845,0.0,0.0,0.0,4.6292,4.7638,4.8936,4.9984,5.0548,0.0,0.0,5.4508,5.5765,5.6885,5.7556,5.7962,5.7979,5.7406,5.8963,5.9877,5.8726,5.9145,5.9564,5.9779,6.0514,6.1501,6.2545,6.3171,6.2978,6.2933,6.2804,6.2704,6.2616,6.2485,6.2484,6.3058,6.3074,6.2661,6.0618,6.0555,6.0957,6.1245,6.1335,6.1497,5.862,5.8527,5.7316,5.63,5.5516,5.6032,5.6435,5.6792,5.7096,5.7152,5.7075,5.7185,5.6976,5.6526,5.6526,5.6886,5.7475,5.7472,5.8441,6.0103,6.0312,6.1253,6.281,6.2839,6.3184,6.3752,6.3154,6.2929,6.3019,6.2135,6.1224,6.0388,5.951,5.8348,5.7008,5.741,5.8786,6.1134,6.1792,6.2899,6.447,6.4665,6.4605,6.4321,6.3827,6.3123,6.2165,6.1164,5.9877,5.8261,5.6585,5.4354,5.1379,4.8218,0.0,0.0,0.0,0.0,0.0,0.0,0.0,0.0,0.0,3.6372,3.5905,0.0,4.1,0.0,4.5433,4.8123,4.9434,4.9561,0.0,0.0,4.9901,5.032,5.166,5.2977,5.3845,5.3982,5.6166,5.7739,5.7932,5.9329,6.0823,6.2109,6.0326,5.9009,5.9382,6.1118,6.2285,6.2047,6.2796,6.3486,6.3222,6.3224,6.3446,6.3741,6.3801,6.3771,6.3801,6.3711,6.3665,6.3695,6.4047,6.434,6.4502,6.5267,6.5645,6.4875,6.3955,6.3208,6.331,6.3309,6.341,6.0878,6.0878,6.0864,6.0459,5.9725,5.8919,5.8547,5.8577,5.8936,5.9099,5.9115,5.9428,5.9697,5.9997,5.9983,6.0146,6.0416,6.0459,6.1134,6.2376,6.2391,6.3124,6.4441,6.4755,6.5263,6.5892,6.5503,6.5473,6.5727,6.5129,6.4516,6.3891,6.3699,6.2942,6.1546,5.9599,5.9666,6.1832,6.2771,6.3964,6.5353,6.5443,6.5039,6.4186,6.3797,6.3033,6.1806,6.1044,5.9907,5.8291,5.7526,5.576,5.2785,5.0175,4.7638,0.0,0.0,0.0,0.0,0.0,0.0,0.0,0.0,0.0,0.0,0.0,4.4536,4.5793,4.8955,5.1259,5.2007,5.2354,5.2893,5.373,5.4089,5.4807,5.6119,5.7466,5.8274,5.8274,6.0027,6.1283,6.1299,6.2491,6.3773,6.4964,6.3639,6.2435,6.2222,6.34,6.4382,6.4442,6.5467,6.6222,6.6036,6.5865,6.574,6.574,6.574,6.574,6.5725,6.56,6.5522,6.5535,6.5718,6.5858,6.5887,6.6369,6.6831,6.6507,6.5361,6.4633,6.5131,6.5286,6.5229,6.3333,6.3363,6.3333,6.3333,6.3183,6.0835,5.9803,5.9727,5.9833,5.9877,5.9907,6.0475,6.1044,6.1598,6.1598,6.1928,6.245,6.2556,6.3228,6.4366,6.4485,6.4859,6.5532,6.6116,6.67,6.7238,6.7238,6.7522,6.8029,6.7446,6.7185,6.7227,6.718,6.6638,6.5548,6.1674,6.0448,6.1903,6.3862,6.5246,6.6025,6.5921,6.5009,6.3452,6.3229,6.2288,6.0524,6.0386,5.9444,5.7563,5.7367,5.6316,5.4054,5.1462,4.9546,0.0,4.5385,0.0,0.0,0.0,0.0,0.0,0.0,0.0,0.0,4.72,4.8914,5.0925,5.3269,5.4581,5.4234,5.482,5.5914,5.7633,5.8397,5.9251,6.051,6.1706,6.2454,6.2561,6.3636,6.4382,6.4338,6.5185,6.5965,6.65,6.6542,6.6019,6.5221,6.5602,6.6186,6.6257,6.7123,6.7549,6.7575,6.7661,6.7583,6.7687,6.7538,6.7792,6.7567,6.7386,6.7279,6.7233,6.7054,6.699,6.7015,6.6913,6.6834,6.6797,6.5549,6.4933,6.5967,6.6013,6.5893,6.465,6.4635,6.465,6.465,6.459,6.4111,6.3573,6.3109,6.3663,6.3887,6.3887,6.4007,6.4141,6.4276,6.4246,6.4336,6.4486,6.5009,6.5682,6.646,6.6984,6.7613,6.821,6.8375,6.8495,6.8615,6.8645,6.8533,6.8322,6.8203,6.7465,6.6186,6.5966,6.5377,6.4338,0.0,0.0,0.0,6.524,6.621,6.6361,6.5394,6.48,6.462,6.3906,0.0,6.2166,6.1844,6.0946,5.9307,5.8888,0.0,0.0,0.0,0.0,0.0,0.0,0.0,0.0,0.0,0.0,0.0,5.1163,5.0414,4.8809,5.0714,5.3126,5.5538,5.6752,5.7979,5.9474,6.0206,6.0954,6.1836,6.2076,6.2559,6.352,6.3907,6.4337,6.51,6.5867,6.6339,6.6325,6.6762,6.7182,6.7495,6.7207,6.6922,6.6846,6.7188,6.7522,6.7551,6.7604,6.7529,6.75,6.7334,6.7291,6.7096,6.7096,6.7125,6.7171,6.7072,6.701,6.7007,6.7368,6.7629,6.7629,6.7089,6.6505,6.6579,6.5319,6.4424,6.4898,6.4057,6.3204,6.6983,0.0,6.6983,6.6983,0.0,6.6983,6.6774,6.643,6.5787,6.5877,6.649,6.649,6.6654,6.6954,6.6983,6.6983,6.6983,6.7127,6.7457,6.7971,6.7941,6.8234,6.8705,6.8873,6.8941,6.8971,6.9298,6.9336,6.9157,6.9128,6.8608,6.7588,6.7442,6.7022,6.6389,6.607,6.5526,6.4742,6.5855,6.669,6.7143,6.6567,6.5964,6.545,6.4987,0.0,0.0,0.0,0.0,0.0,0.0,0.0,0.0,0.0,0.0,5.6179,5.5192,5.461,5.4628,5.4927,5.5688,5.6974,5.7706,5.6808,5.3875,5.606,5.8125,5.9428,6.0176,6.1239,6.2825,6.3334,6.3873,6.4666,6.5083,6.5409,6.5681,6.5988,6.6355,6.6788,6.7152,6.7388,6.7388,6.7672,6.7939,6.8129,6.7998,6.7862,6.8028,6.7976,6.7975,6.828,6.8235,6.8074,6.8086,6.7957,6.7795,6.7841,6.7841,6.7841,6.7841,6.7197,6.6696,6.6656,6.6389,6.6085,6.6033,6.5662,6.536,6.5235,6.412,6.312,6.3217,6.3225,6.3046,6.9004,6.9004,6.9004,6.9004,6.9004,6.9004,6.9079,6.9064,0.0,0.0,0.0,6.8167,6.8481,6.9004,6.9004,6.8956,6.8877,6.8681,6.8694,6.8947,6.849,6.8407,6.8678,6.8938,6.9073,6.9103,6.9621,6.9853,6.9787,6.9803,6.9587,6.9236,6.9203,6.9052,6.8811,6.8794,6.7916,6.6198,6.6408,6.6992,6.7779,6.7589,6.6973,6.5931,6.5751,6.516,6.4145,6.4288,6.3861,6.275,6.2998,6.25,6.1025,6.0317,5.955,5.8659,5.8534,5.874,5.9295,5.9833,6.0671,6.1868,6.3213,6.2644,5.9564,6.1449,6.2839,6.2944,6.3572,6.4381,6.5338,6.5532,6.5888,6.6681,6.7227,6.7441,6.7254,6.7648,6.7909,6.8037,6.8047,6.805,6.8077,6.8274,6.8493,6.8502,6.8589,6.8642,6.8436,6.8166,6.8285,6.8646,6.8687,6.8753,6.8748,6.8356,6.8426,6.8157,6.7999,6.7988,6.7788,6.6947,6.6202,6.5984,6.5003,6.4454,6.422,6.402,6.3784,6.3766,6.2506,6.1391,6.1504,6.2413,6.2749,6.9004,6.9004,6.9004,6.9004,6.9004,6.9004,6.9333,6.9798,6.8944,6.8659,6.8854,6.8854,6.8914,6.9004,6.9004,6.88,6.8514,6.903,6.9123,6.8955,6.9404,6.9654,6.9703,6.9742,6.9739,6.9785,6.9873,6.972,6.942,6.937,6.9186,6.8912,6.8878,6.8845,6.8811,6.8794,6.8654,6.8327,6.7635,6.7347,6.7438,6.6401,6.5854,6.587,6.515,6.4644,6.4439,6.4247,6.3866,6.3388,6.3416,6.3669,6.4153,6.3609,6.3606,6.4234,6.4024,6.3947,6.4007,6.4127,6.45,6.5278,6.6535,6.634,6.4306,6.4889,6.5682,6.6236,6.6789,6.7205,6.7162,6.7531,6.7761,6.7725,6.7779,6.7915,6.8119,6.8232,6.8426,6.861,6.8684,6.8643,6.8618,6.8684,6.8675,6.8716,6.8327,6.8239,6.7333,6.7913,6.861,6.8765,6.8794,6.8794,6.8375,6.7598,6.6947,6.6825,6.5831,6.5245,6.5318,6.4896,6.4636,6.4563,6.4228,6.4074,6.4011,6.3042,6.2425,6.2209,6.1092,6.0124,6.0149,6.0406,6.0335,6.9665,6.949,6.9473,6.9473,6.9473,6.9503,6.9651,6.9935,6.9622,6.957,6.9716,6.9584,6.9503,6.9503,6.9503,6.9376,6.9243,6.9313,6.9394,6.944,6.9324,6.9416,6.9537,6.937,6.9316,6.9316,6.9287,6.9186,6.9035,6.903,6.8963,6.8794,6.8794,6.8794,6.8794,6.8794,6.8794,6.8794,6.8381,6.8173,6.8128,6.7591,6.7365,6.7483,6.7045,6.6834,6.6834,6.685,6.667,6.619,6.6328,6.6457,6.6507,6.6287,6.6173,6.6254,6.6453,6.6413,6.6041,6.6383,6.6725,6.7022,6.7927,6.8121,6.72,6.7223,6.7422,6.772,6.7905,6.8028,6.8208,6.8487,6.8683,6.866,6.8657,6.8642,6.8606,6.8627,6.8676,6.877,6.8794,6.8794,6.8794,6.8794,6.8392,6.7719,6.693,6.6137,6.5748,6.6251,6.6619,6.6374,6.6307,6.6307,6.6318,6.5778,6.5289,6.5253,6.4698,6.4383,6.4454,6.4076,6.3562,6.3686,6.3193,6.2631,6.2586,6.2045,6.1569,6.1434,6.1032,6.0471,6.0431,6.0431,6.0231,7.0134,6.9903,6.9903,6.9903,6.9903,6.9903,6.9903,6.9886,6.9803,6.9919,7.0117,6.9969,6.9903,6.9903,6.9903,6.9853,6.9737,6.9437,6.942,6.9554,6.9064,6.8946,6.9165,6.9045,6.9014,6.9043,6.9159,6.92,6.92,6.9217,6.9229,6.9246,6.9246,6.9229,6.9229,6.9246,6.9229,6.9246,6.9246,6.9101,6.8794,6.8794,6.8794,6.8794,6.8765,6.8794,6.8811,6.9018,6.8952,6.8548,6.882,6.8733,6.8165,6.8252,6.8079,6.7557,6.802,6.8127,6.7669,6.8068,6.835,6.8379,6.8821,6.9103,6.909,6.8807,6.8641,6.8689,6.8512,6.8569,6.887,6.8972,6.9059,6.9178,6.9169,6.9039,6.8845,6.8494,6.8347,6.84,6.8171,6.789,6.8085,6.8113,6.762,6.6465,6.499,6.4276,6.456,6.4444,6.3951,6.3824,6.4042,6.4763,6.4536,6.4279,6.4141,6.405,6.3672,6.354,6.3653,6.3009,6.2592,6.2722,6.2051,6.148,6.1239,6.1219,6.1234,6.1243,6.1119,6.1135,6.1085,6.109,6.0914,6.9919,6.9903,6.9899,6.9903,6.9899,6.9899,6.9928,6.9849,6.952,6.9353,6.9525,6.9753,6.9899,6.9903,6.9869,6.9716,6.9399,6.9303,6.9211,6.9004,6.8845,6.8828,6.8978,6.9472,6.9716,6.9774,7.0221,7.0407,7.0407,7.0465,7.0523,7.0523,7.0523,7.0494,7.0494,7.0494,7.0523,7.0523,7.0523,6.9972,6.8881,6.8794,6.8794,6.8794,6.8823,6.8794,6.8869,6.8828,6.8833,6.8791,6.9111,6.9086,6.881,6.9299,6.9514,6.9078,6.9452,6.968,6.9575,6.968,6.9634,6.9709,6.9706,6.9764,6.9777,6.947,6.9378,6.9643,6.968,6.9452,6.9316,6.9266,6.922,6.9091,6.9012,6.8845,6.8678,6.7564,6.6883,6.7421,6.6423,6.5537,6.6212,6.6203,6.6046,6.5752,6.4334,6.3452,6.354,6.2722,6.2057,6.2229,6.3672,6.5245,6.5173,6.4369,6.356,6.3363,6.2386,6.1982,6.1916,6.1835,6.1443,6.2047,6.1614,6.1381,6.1316,6.119,6.1285,6.1416,6.1391,6.126,6.119,6.1291,6.119,6.9671,6.9854,6.9854,7.0042,7.0346,7.0376,7.0376,7.0342,7.0205,7.0119,7.0137,7.0307,6.9967,6.9295,6.9662,6.9753,6.963,6.9962,7.0051,6.9914,6.9943,6.9914,6.9972,7.0192,7.0337,7.0337,7.0581,7.0697,7.0697,7.0697,7.0697,7.0697,7.0697,7.0697,7.0697,7.0697,7.0697,7.0697,7.0697,7.0436,7.0001,6.9914,6.9914,6.9926,6.9926,6.9914,6.9914,6.9943,6.974,6.9454,6.9516,6.9341,6.8811,6.9098,6.9198,6.9047,6.9152,6.9236,6.9236,6.9266,6.9412,6.9808,6.9837,6.9984,7.0346,7.0205,7.0205,7.0254,6.9687,6.9315,6.9559,6.96,6.9678,6.9844,6.9943,6.9552,6.8565,6.7926,6.7361,6.6569,6.5872,6.5491,6.5604,6.4982,6.4516,6.425,6.313,6.2413,6.2516,6.2042,6.1898,6.221,6.3336,6.3589,6.3298,6.265,6.2226,6.2069,6.1661,6.128,6.1617,6.1687,6.1763,6.2069,6.2069,6.2069,6.2199,6.2149,6.2169,6.2099,6.2124,6.2144,6.2169,6.2124,6.2124,6.9833,7.0023,7.0047,7.0308,7.0697,7.0697,7.0697,7.0697,7.0697,7.0697,7.0697,7.0697,7.0187,6.9478,6.9844,7.0064,7.0105,7.0494,7.0697,7.0697,7.0697,7.0697,7.0726,7.0901,7.0976,7.1005,7.1162,7.1249,7.122,7.122,7.122,7.122,7.122,7.122,7.122,7.1249,7.122,7.122,7.122,7.122,7.122,7.122,7.1046,7.0755,7.0697,7.0697,7.0697,7.0697,7.0494,7.0076,7.0035,6.9815,6.9362,6.9333,6.9316,6.9316,6.9316,6.9316,6.9316,6.9333,6.9536,6.996,7.0064,7.0238,7.0599,7.0697,7.0697,7.061,6.9494,6.8987,6.9914,6.9656,6.9615,6.9965,6.9712,6.8849,6.7749,6.734,6.6457,6.5547,6.4843,6.4835,6.4788,6.4032,6.3387,6.325,6.244,6.1743,6.2099,6.2265,6.235,6.2727,6.2818,6.2557,6.1793,6.1878,6.1617,6.1662,6.1738,6.1868,6.2149,6.2199,6.2225,6.2476,6.2727,6.2777,6.2601,6.2701,6.2777,6.2802,6.2777,6.2752,6.2651,6.2752,6.2777,7.0639,7.0668,7.0668,7.0726,7.0726,7.0755,7.0755,7.0842,7.0784,7.0755,7.0813,7.0784,7.0697,7.0593,7.0697,7.0668,7.0668,7.0755,7.0813,7.0813,7.0784,7.0726,7.0755,7.1342,7.1679,7.169,7.2195,7.2468,7.2497,7.2497,7.2526,7.2526,7.2526,7.2544,7.2526,7.2526,7.2544,7.2526,7.2526,7.2526,7.2526,7.2526,7.1974,7.1046,7.0755,7.0813,7.0784,7.0726,7.0697,7.0668,7.0686,7.0639,7.0581,7.0552,7.0523,7.0552,7.0581,7.0581,7.0552,7.0408,7.0512,7.0622,7.0518,7.0663,7.0854,7.0715,7.0645,7.0668,6.9227,6.891,6.9987,6.9092,6.8419,6.8423,6.7138,6.64,6.6011,6.5063,6.4125,6.4045,6.3324,6.2932,6.3043,6.291,6.2886,6.2906,6.2733,6.2676,6.2651,6.2727,6.2752,6.2777,6.2802,6.2777,6.2701,6.2476,6.2526,6.2501,6.2375,6.2626,6.2727,6.2777,6.2802,6.2777,6.2802,6.2802,6.2802,6.2802,6.2802,6.2802,6.2802,6.2802,6.2802,6.2802,6.2802,7.0976,7.1353,7.176,7.1916,7.1916,7.1916,7.1916,7.1916,7.1899,7.1934,7.1916,7.1916,7.1916,7.1916,7.1916,7.1702,7.14,7.1713,7.1916,7.1916,7.1916,7.1916,7.1945,7.2195,7.2282,7.2369,7.2903,7.3454,7.3803,7.3803,7.3803,7.3821,7.3821,7.3803,7.3803,7.3803,7.3821,7.3803,7.3832,7.3803,7.3737,7.3821,7.3589,7.3135,7.2323,7.1916,7.1916,7.1916,7.1713,7.1342,7.1342,7.115,7.0755,7.0697,7.0697,7.0697,7.0697,7.0697,7.0593,6.9741,6.9842,7.1109,7.0331,7.0425,7.1411,7.1033,7.0393,7.0092,6.8864,6.8336,6.841,6.7902,6.7485,6.7758,6.7353,6.6434,6.5689,6.4958,6.4357,6.3529,6.2785,6.2621,6.2727,6.2802,6.2802,6.2802,6.2802,6.2802,6.2802,6.2802,6.2802,6.2802,6.2802,6.2802,6.2802,6.2802,6.2802,6.2777,6.2777,6.2752,6.2802,6.2802,6.2802,6.2802,6.2802,6.2802,6.2802,6.2802,6.2802,6.2802,6.2802,6.2802,6.2802,6.2802,6.2802,7.1586,7.201,7.2427,7.2613,7.2613,7.2613,7.2729,7.2903,7.2932,7.3019,7.3164,7.3193,7.3193,7.3222,7.3222,7.3008,7.2619,7.2631,7.2613,7.2613,7.2816,7.2932,7.2961,7.3135,7.3222,7.3143,7.3065,7.3544,7.4331,7.3956,7.3974,7.4452,7.4499,7.4499,7.4444,7.3993,7.3687,7.3631,7.3138,7.3044,7.3576,7.3687,7.3993,7.4281,7.3658,7.3106,7.2932,7.2903,7.2631,7.2097,7.1981,7.1548,7.0684,7.0538,7.0278,6.9821,6.9696,6.9731,6.9642,6.8709,6.8795,7.0173,6.9632,6.9792,7.1101,7.0436,7.0023,6.9607,6.8453,6.7419,6.7248,6.661,6.6307,6.6696,6.6475,6.5739,6.4657,6.4458,6.3922,6.3118,6.2813,6.2802,6.2802,6.2802,6.2802,6.2802,6.2802,6.2802,6.2802,6.2802,6.2802,6.2802,6.2802,6.2802,6.2802,6.2802,6.2802,6.2802,6.2802,6.2802,6.2802,6.2802,6.2802,6.2802,6.2802,6.2802,6.2802,6.2802,6.2802,6.2802,6.2802,6.2802,6.2802,6.2802,6.2802,7.2613,7.2671,7.2642,7.2758,7.2787,7.2787,7.3048,7.3541,7.36,7.3861,7.4209,7.4383,7.4267,7.4383,7.4267,7.4383,7.4111,7.3251,7.2816,7.2827,7.3194,7.3462,7.3629,7.4064,7.4179,7.4053,7.2726,7.281,7.4073,7.2905,7.2887,7.4098,7.4184,7.4075,7.4355,7.2887,7.2102,7.1882,7.0804,7.0671,7.1761,7.213,7.283,7.4071,7.4132,7.3788,7.3386,7.34,7.302,7.2406,7.2474,7.1812,7.0617,7.0257,6.9495,6.8376,6.7931,6.7855,6.7912,6.7844,6.7748,6.8323,6.8349,6.862,6.9143,6.9195,6.9212,6.895,6.7774,6.6785,6.6536,6.557,6.4924,6.5102,6.4388,6.3529,6.3193,6.2934,6.2873,6.2927,6.3003,6.2832,6.2832,6.3003,6.3053,6.3053,6.2952,6.2927,6.2927,6.2877,6.2802,6.2802,6.2802,6.2802,6.2802,6.2802,6.2802,6.2802,6.2802,6.2802,6.2802,6.2802,6.2802,6.2802,6.2802,6.2802,6.2802,6.2802,6.2802,6.2802,6.2802,6.2802,6.2802,6.2802,6.2802,7.3908,7.389,7.389,7.3919,7.389,7.3908,7.4035,7.4209,7.4256,7.4372,7.447,7.4499,7.4499,7.4481,7.4499,7.4463,7.447,7.4064,7.3872,7.3664,7.2944,7.3122,7.4,7.4376,7.4112,7.3198,7.1654,7.1328,7.2083,7.1765,7.1851,7.2224,7.2334,7.2303,7.2364,7.1773,7.1516,7.1457,7.0973,7.104,7.1496,7.1489,7.1812,7.2224,7.2303,7.1986,7.1404,7.2085,7.1766,7.0548,7.155,7.1953,7.1343,7.029,6.9463,6.8989,6.8872,6.8872,6.8697,6.7786,6.7627,6.8351,6.7999,6.8099,6.8817,6.8213,6.7765,6.7564,6.6222,6.5242,6.5138,6.4872,6.4658,6.4718,6.428,6.3902,6.3877,6.3902,6.3973,6.3973,6.3973,6.3973,6.3927,6.3927,6.3852,6.3827,6.3626,6.3425,6.3375,6.3103,6.2827,6.2802,6.2802,6.2952,6.3053,6.3149,6.3128,6.3028,6.2952,6.2827,6.2802,6.2802,6.2802,6.2802,6.2802,6.2802,6.2802,6.2802,6.2802,6.2802,6.2802,6.2802,6.2802,6.2802,6.2802,7.2603,7.2603,7.2603,7.2632,7.2613,7.2585,7.2726,7.2925,7.2972,7.3113,7.3264,7.3312,7.3331,7.3331,7.3331,7.3331,7.3255,7.2664,7.2712,7.3217,7.282,7.265,7.3066,7.3227,7.3014,7.2102,7.0534,7.0281,7.1216,7.0677,7.0657,7.1203,7.1304,7.1337,7.1203,7.0637,7.0332,7.0271,6.9656,6.9656,7.0189,7.0332,7.0637,7.1183,7.1304,7.0752,6.9918,7.0421,7.0348,6.9719,7.0495,7.0746,7.0126,6.9001,6.8213,6.7652,6.7531,6.7511,6.7477,6.6471,6.6386,6.718,6.6772,6.6697,6.752,6.6893,6.664,6.6411,6.5777,6.5082,6.515,6.5103,6.5103,6.5103,6.4718,6.4526,6.45,6.45,6.4475,6.4425,6.445,6.45,6.45,6.45,6.45,6.4425,6.4199,6.3998,6.3923,6.3701,6.35,6.3425,6.355,6.3601,6.35,6.35,6.3475,6.3324,6.3153,6.2952,6.2802,6.2802,6.2802,6.2802,6.2802,6.2802,6.2802,6.2802,6.2802,6.2802,6.2802,6.2802,6.2802,6.2802,6.2802,6.9569,6.9503,6.955,6.9867,6.9887,6.9906,7.0324,7.0488,7.0582,7.1033,7.1402,7.1594,7.1516,7.1383,7.1646,7.1654,7.1109,7.0279,7.0226,7.1245,7.1745,7.1772,7.1092,7.1216,7.1154,7.0813,6.9315,6.9348,7.0271,6.9209,6.9374,7.0454,7.0474,7.088,7.0271,6.9271,6.8571,6.8362,6.7129,6.7235,6.8482,6.8571,6.9188,7.0617,7.0596,6.9917,6.8736,6.8575,6.8875,6.9237,6.927,6.864,6.7447,6.6954,6.6326,6.5267,6.4752,6.5012,6.4794,6.515,6.5016,6.5234,6.5546,6.5354,6.5782,6.6145,6.6202,6.621,6.6021,6.6011,6.5986,6.5965,6.5965,6.5939,6.5258,6.4802,6.4626,6.4676,6.4777,6.4726,6.4601,6.4601,6.4752,6.4726,6.4726,6.4701,6.4651,6.4551,6.45,6.44,6.445,6.435,6.4174,6.4124,6.3952,6.3952,6.3927,6.3847,6.3626,6.3375,6.3003,6.2927,6.2802,6.2802,6.2802,6.2802,6.2802,6.2802,6.2802,6.2802,6.2802,6.2802,6.2802,6.2802,6.2827,7.0802,7.0802,7.0802,7.0802,7.0802,7.0802,7.0817,7.0999,7.0939,7.0832,7.1196,7.1304,7.1102,7.1264,7.1203,7.1304,7.0921,7.0637,6.9923,6.9471,6.9632,7.0442,7.0583,6.9843,6.9395,6.9126,6.7775,6.7044,6.74,6.7192,6.7146,6.7421,6.7758,6.7611,6.7319,6.715,6.6814,6.6771,6.6429,6.6283,6.6707,6.6852,6.698,6.7336,6.759,6.7357,6.681,6.6767,6.7513,6.8649,6.7587,6.7462,6.7863,6.6992,6.6133,6.5755,6.5634,6.566,6.5634,6.5634,6.5634,6.5685,6.5735,6.5889,6.5886,6.6011,6.6112,6.6112,6.6112,6.6112,6.6112,6.6112,6.6112,6.6065,6.576,6.5584,6.5609,6.5685,6.5685,6.5685,6.5656,6.5584,6.5584,6.5584,6.5584,6.5534,6.5308,6.5103,6.5053,6.4852,6.4777,6.4576,6.4446,6.445,6.4425,6.4425,6.4425,6.4375,6.4199,6.4023,6.355,6.3174,6.2978,6.2802,6.2802,6.2802,6.2802,6.2802,6.2802,6.2802,6.2802,6.2802,6.2827,6.2807,6.2827,6.9126,6.9105,6.9105,6.9126,6.9105,6.9126,6.9126,6.9105,6.9126,6.9105,6.9126,6.9126,6.9105,6.9105,6.9085,6.9105,6.9105,6.9105,6.8529,6.7822,6.7653,6.8148,6.8628,6.7948,6.759,6.7526,6.6622,6.6219,6.6197,6.6112,6.6112,6.624,6.6112,6.6112,6.6283,6.6112,6.6112,6.6133,6.6112,6.6112,6.6112,6.6112,6.6133,6.6112,6.6112,6.6112,6.6112,6.6112,6.6643,6.7209,6.6703,6.6601,6.7357,6.6707,6.6112,6.6112,6.6112,6.6086,6.6112,6.6112,6.6112,6.6112,6.6112,6.6112,6.6086,6.6112,6.6112,6.6112,6.6112,6.6112,6.6112,6.6112,6.6112,6.6112,6.6112,6.6112,6.6112,6.6061,6.6112,6.6112,6.6112,6.6112,6.6112,6.6112,6.6112,6.6036,6.581,6.5685,6.5609,6.5283,6.5082,6.5028,6.5053,6.5153,6.5183,6.5183,6.5132,6.5078,6.4827,6.4626,6.4199,6.3651,6.335,6.3153,6.2952,6.2852,6.2927,6.2927,6.2802,6.2802,6.2802,6.2852,6.2902,6.3153,6.3103,6.6112,6.6112,6.6112,6.6112,6.6262,6.6155,6.6472,6.6219,6.6429,6.6408,6.6408,6.624,6.6622,6.6112,6.6746,6.6305,6.6326,6.6665,6.6429,6.6348,6.6348,6.6536,6.6622,6.6601,6.6408,6.6369,6.6155,6.6112,6.6112,6.6112,6.6112,6.6112,6.6112,6.6112,6.6112,6.6112,6.6112,6.6112,6.6112,6.6112,6.6112,6.6112,6.6112,6.6112,6.6112,6.6112,6.6112,6.6112,6.6219,6.6133,6.6112,6.6176,6.6219,6.6133,6.6112,6.6112,6.6112,6.6112,6.6112,6.6112,6.6112,6.6112,6.6112,6.6112,6.6112,6.6112,6.6112,6.6112,6.6112,6.6112,6.6112,6.6112,6.6112,6.6112,6.6112,6.6112,6.6112,6.6112,6.6112,6.6112,6.6112,6.6112,6.6112,6.6112,6.6112,6.6112,6.5986,6.5961,6.5911,6.5785,6.5735,6.5785,6.586,6.5986,6.5986,6.5986,6.5936,6.5835,6.5509,6.5233,6.4831,6.4379,6.3977,6.3701,6.3601,6.345,6.3304,6.3203,6.3078,6.3199,6.345,6.3254,6.3103,6.3576,6.3747,6.6112,6.6112,6.6112,6.6112,6.6112,6.6112,6.6112,6.6112,6.6112,6.6112,6.6112,6.6112,6.6112,6.6112,6.6112,6.6112,6.6112,6.6112,6.6112,6.6112,6.6112,6.6112,6.6112,6.6112,6.6112,6.6112,6.6112,6.6112,6.6112,6.6112,6.6112,6.6112,6.6112,6.6112,6.6112,6.6112,6.6112,6.6112,6.6112,6.6112,6.6112,6.6112,6.6112,6.6112,6.6112,6.6112,6.6112,6.6112,6.6112,6.6112,6.6112,6.6112,6.6112,6.6112,6.6112,6.6112,6.6112,6.6112,6.6112,6.6112,6.6112,6.6112,6.6112,6.6112,6.6112,6.6112,6.6112,6.6112,6.6112,6.6112,6.6112,6.6112,6.6112,6.6112,6.6112,6.6112,6.6112,6.6112,6.6112,6.6112,6.6112,6.6112,6.6112,6.6112,6.6112,6.6112,6.6112,6.6112,6.6112,6.6112,6.6112,6.6112,6.6112,6.6112,6.6112,6.6112,6.6112,6.6112,6.5911,6.576,6.5383,6.5032,6.4605,6.44,6.4295,6.4073,6.3776,6.3927,6.3902,6.4023,6.4023,6.3877,6.3852,6.4174,6.4245,6.6112,6.6112,6.6112,6.6112,6.6112,6.6112,6.6112,6.6112,6.6112,6.6112,6.6112,6.6112,6.6112,6.6112,6.6112,6.6112,6.6112,6.6112,6.6112,6.6112,6.6112,6.6112,6.6112,6.6112,6.6112,6.6112,6.6112,6.6112,6.6112,6.6112,6.6112,6.6112,6.6112,6.6112,6.6112,6.6112,6.6112,6.6112,6.6112,6.6112,6.6112,6.6112,6.6112,6.6112,6.6112,6.6112,6.6112,6.6112,6.6112,6.6112,6.6112,6.6112,6.6112,6.6112,6.6112,6.6112,6.6112,6.6112,6.6112,6.6112,6.6112,6.6112,6.6112,6.6112,6.6112,6.6112,6.6112,6.6112,6.6112,6.6112,6.6112,6.6112,6.6112,6.6112,6.6112,6.6112,6.6112,6.6112,6.6112,6.6112,6.6112,6.6112,6.6112,6.6112,6.6112,6.6112,6.6112,6.6112,6.6112,6.6112,6.6112,6.6112,6.6112,6.6112,6.6112,6.6112,6.6112,6.6112,6.6061,6.5986,6.5835,6.5534,6.5229,6.5028,6.4777,6.4475,6.4254,6.4475,6.4576,6.44,6.435,6.445,6.4576,6.4701,6.4622,6.6112,6.6112,6.6112,6.6112,6.6112,6.6112,6.6112,6.6112,6.6112,6.6112,6.6112,6.6112,6.6112,6.6112,6.6112,6.6112,6.6112,6.6112,6.6112,6.6112,6.6112,6.6112,6.6112,6.6112,6.6112,6.6112,6.6112,6.6112,6.6112,6.6112,6.6112,6.6112,6.6112,6.6112,6.6112,6.6112,6.6112,6.6112,6.6112,6.6112,6.6112,6.6112,6.6112,6.6112,6.6112,6.6112,6.6112,6.6112,6.6112,6.6112,6.6112,6.6112,6.6112,6.6112,6.6112,6.6112,6.6112,6.6112,6.6112,6.6112,6.6112,6.6112,6.6112,6.6112,6.6112,6.6112,6.6112,6.6112,6.6112,6.6112,6.6112,6.6112,6.6112,6.6112,6.6112,6.6112,6.6112,6.6112,6.6112,6.6112,6.6112,6.6112,6.6112,6.6112,6.6112,6.6112,6.6112,6.6112,6.6112,6.6112,6.6112,6.6112,6.6112,6.6112,6.6112,6.6112,6.6112,6.6112,6.6112,6.6112,6.6112,6.5911,6.5609,6.5434,6.5183,6.4978,6.4877,6.5053,6.5028,6.4773,6.4827,6.5103,6.5179,6.5204,6.5053,6.6112,6.6112,6.6112,6.6112,6.6112,6.6112,6.6112,6.6112,6.6112,6.6112,6.6112,6.6112,6.6112,6.6112,6.6112,6.6112,6.6112,6.6112,6.6112,6.6112,6.6112,6.6112,6.6112,6.6112,6.6112,6.6112,6.6112,6.6112,6.6112,6.6112,6.6112,6.6112,6.6112,6.6112,6.6112,6.6112,6.6112,6.6112,6.6112,6.6112,6.6112,6.6112,6.6112,6.6112,6.6112,6.6112,6.6112,6.6112,6.6112,6.6112,6.6112,6.6112,6.6112,6.6112,6.6112,6.6112,6.6112,6.6112,6.6112,6.6112,6.6112,6.6112,6.6112,6.6112,6.6112,6.6112,6.6112,6.6112,6.6112,6.6112,6.6112,6.6112,6.6112,6.6112,6.6112,6.6112,6.6112,6.6112,6.6112,6.6112,6.6112,6.6112,6.6112,6.6112,6.6112,6.6112,6.6112,6.6112,6.6112,6.6112,6.6112,6.6112,6.6112,6.6112,6.6112,6.6112,6.6112,6.6112,6.6112,6.6112,6.6112,6.6112,6.5961,6.576,6.5735,6.571,6.5685,6.566,6.5609,6.548,6.5609,6.5785,6.571,6.5634,6.5671,6.6112,6.6112,6.6112,6.6112,6.6112,6.6112,6.6112,6.6112,6.6112,6.6112,6.6112,6.6112,6.6112,6.6112,6.6112,6.6112,6.6112,6.6112,6.6112,6.6112,6.6112,6.6112,6.6112,6.6112,6.6112,6.6112,6.6112,6.6112,6.6112,6.6112,6.6112,6.6112,6.6112,6.6112,6.6112,6.6112,6.6112,6.6112,6.6112,6.6112,6.6112,6.6112,6.6112,6.6112,6.6112,6.6112,6.6112,6.6112,6.6112,6.6112,6.6112,6.6112,6.6112,6.6112,6.6112,6.6112,6.6112,6.6112,6.6112,6.6112,6.6112,6.6112,6.6112,6.6112,6.6112,6.6112,6.6112,6.6112,6.6112,6.6112,6.6112,6.6112,6.6112,6.6112,6.6112,6.6112,6.6112,6.6112,6.6112,6.6112,6.6112,6.6112,6.6112,6.6112,6.6112,6.6112,6.6112,6.6112,6.6112,6.6112,6.6112,6.6112,6.6112,6.6112,6.6112,6.6112,6.6112,6.6112,6.6112,6.6112,6.6112,6.6112,6.6112,6.6011,6.6086,6.6112,6.6061,6.5886,6.6036,6.609,6.5968,6.5897,6.6015,6.609,6.5918,6.6112,6.6112,6.6112,6.6112,6.6112,6.6112,6.6112,6.6112,6.6112,6.6112,6.6112,6.6112,6.6112,6.6112,6.6112,6.6112,6.6112,6.6112,6.6112,6.6112,6.6112,6.6112,6.6112,6.6112,6.6112,6.6112,6.6112,6.6112,6.6112,6.6112,6.6112,6.6112,6.6112,6.6112,6.6112,6.6112,6.6112,6.6112,6.6112,6.6112,6.6112,6.6112,6.6112,6.6112,6.6112,6.6112,6.6112,6.6112,6.6112,6.6112,6.6112,6.6112,6.6112,6.6112,6.6112,6.6112,6.6112,6.6112,6.6112,6.6112,6.6112,6.6112,6.6112,6.6112,6.6112,6.6112,6.6112,6.6112,6.6112,6.6112,6.6112,6.6112,6.6112,6.6112,6.6112,6.6112,6.6112,6.6112,6.6112,6.6112,6.6112,6.6112,6.6112,6.6112,6.6112,6.6112,6.6112,6.6112,6.6112,6.6112,6.6112,6.6112,6.6112,6.6112,6.6112,6.6112,6.6112,6.6112,6.6112,6.6112,6.6112,6.6112,6.6112,6.6112,6.6112,6.6112,6.6112,6.609,6.6112,6.6069,6.6026,6.5918,6.5832,6.5659,6.5418,6.6112,6.6112,6.6112,6.6112,6.6112,6.6112,6.6112,6.6112,6.6112,6.6112,6.6112,6.6112,6.6112,6.6112,6.6112,6.6112,6.6112,6.6112,6.6112,6.6112,6.6112,6.6112,6.6112,6.6112,6.6112,6.6112,6.6112,6.6112,6.6112,6.6112,6.6112,6.6112,6.6112,6.6112,6.6112,6.6112,6.6112,6.6112,6.6112,6.6112,6.6112,6.6112,6.6112,6.6112,6.6112,6.6112,6.6112,6.6112,6.6112,6.6112,6.6112,6.6112,6.6112,6.6112,6.6112,6.6112,6.6112,6.6112,6.6112,6.6112,6.6112,6.6112,6.6112,6.6112,6.6112,6.6112,6.6112,6.6112,6.6112,6.6112,6.6112,6.6112,6.6112,6.6112,6.6112,6.6112,6.6112,6.6112,6.6112,6.6112,6.6112,6.6112,6.6112,6.6112,6.6112,6.6112,6.6112,6.6112,6.6112,6.6112,6.6112,6.6112,6.6112,6.6112,6.6112,6.6112,6.6112,6.6112,6.6112,6.6112,6.6112,6.6112,6.6112,6.6112,6.609,6.6026,6.5961,6.5961,6.6069,6.5983,6.5789,6.5616,6.5465,6.5248,6.5006,6.6112,6.6112,6.6112,6.6112,6.6112,6.6112,6.6112,6.6112,6.6112,6.6112,6.6112,6.6112,6.6112,6.6112,6.6112,6.6112,6.6112,6.6112,6.6112,6.6112,6.6112,6.6112,6.6112,6.6112,6.6112,6.6112,6.6112,6.6112,6.6112,6.6112,6.6112,6.6112,6.6112,6.6112,6.6112,6.6112,6.6112,6.6112,6.6112,6.6112,6.6112,6.6112,6.6112,6.6112,6.6112,6.6112,6.6112,6.6112,6.6112,6.6112,6.6112,6.6112,6.6112,6.6112,6.6112,6.6112,6.6112,6.6112,6.6112,6.6112,6.6112,6.6112,6.6112,6.6112,6.6112,6.6112,6.6112,6.6112,6.6112,6.6112,6.6112,6.6112,6.6112,6.6112,6.6112,6.6112,6.6112,6.6112,6.6112,6.6112,6.6112,6.6112,6.6112,6.6112,6.6112,6.6112,6.6112,6.6112,6.6112,6.6112,6.6112,6.6112,6.6112,6.6112,6.6112,6.6112,6.6112,6.6112,6.6112,6.6112,6.6112,6.6112,6.6112,6.609,6.609,6.5983,6.5832,6.5853,6.594,6.5767,6.553,6.5292,6.5053,6.4944,6.468,6.6112,6.6112,6.6112,6.6112,6.6112,6.6112,6.6112,6.6112,6.6112,6.6112,6.6112,6.6112,6.6112,6.6112,6.6112,6.6112,6.6112,6.6112,6.6112,6.6112,6.6112,6.6112,6.6112,6.6112,6.6112,6.6112,6.6112,6.6112,6.6112,6.6112,6.6112,6.6112,6.6112,6.6112,6.6112,6.6112,6.6112,6.6112,6.6112,6.6112,6.6112,6.6112,6.6112,6.6112,6.6112,6.6112,6.6112,6.6112,6.6112,6.6112,6.6112,6.6112,6.6112,6.6112,6.6112,6.6112,6.6112,6.6112,6.6112,6.6112,6.6112,6.6112,6.6112,6.6112,6.6112,6.6112,6.6112,6.6112,6.6112,6.6112,6.6112,6.6112,6.6112,6.6112,6.6112,6.6112,6.6112,6.6112,6.6112,6.6112,6.6112,6.6112,6.6112,6.6112,6.6112,6.6112,6.6112,6.6112,6.6112,6.6112,6.6112,6.6112,6.6112,6.6112,6.6112,6.6112,6.6112,6.6112,6.6112,6.6112,6.6112,6.6112,6.6112,6.609,6.6026,6.581,6.5594,6.5724,6.5789,6.5378,6.5006,6.4811,6.4636,6.4506,6.4333,6.6112,6.6112,6.6112,6.6112,6.6112,6.6112,6.6112,6.6112,6.6112,6.6112,6.6112,6.6112,6.6112,6.6112,6.6112,6.6112,6.6112,6.6112,6.6112,6.6112,6.6112,6.6112,6.6112,6.6112,6.6112,6.6112,6.6112,6.6112,6.6112,6.6112,6.6112,6.6112,6.6112,6.6112,6.6112,6.6112,6.6112,6.6112,6.6112,6.6112,6.6112,6.6112,6.6112,6.6112,6.6112,6.6112,6.6112,6.6112,6.6112,6.6112,6.6112,6.6112,6.6112,6.6112,6.6112,6.6112,6.6112,6.6112,6.6112,6.6112,6.6112,6.6112,6.6112,6.6112,6.6112,6.6112,6.6112,6.6112,6.6112,6.6112,6.6112,6.6112,6.6112,6.6112,6.6112,6.6112,6.6112,6.6112,6.6112,6.6112,6.6112,6.6112,6.6112,6.6112,6.6112,6.6112,6.6112,6.6112,6.6112,6.6112,6.6112,6.6112,6.6112,6.6112,6.6112,6.6112,6.6112,6.6112,6.6112,6.6112,6.6112,6.6112,6.6112,6.5896,6.5767,6.5573,6.5335,6.5248,6.505,6.4767,6.4506,6.4377,6.4136,6.3939,6.3763,6.6112,6.6112,6.6112,6.6112,6.6112,6.6112,6.6112,6.6112,6.6112,6.6112,6.6112,6.6112,6.6112,6.6112,6.6112,6.6112,6.6112,6.6112,6.6112,6.6112,6.6112,6.6112,6.6112,6.6112,6.6112,6.6112,6.6112,6.6112,6.6112,6.6112,6.6112,6.6112,6.6112,6.6112,6.6112,6.6112,6.6112,6.6112,6.6112,6.6112,6.6112,6.6112,6.6112,6.6112,6.6112,6.6112,6.6112,6.6112,6.6112,6.6112,6.6112,6.6112,6.6112,6.6112,6.6112,6.6112,6.6112,6.6112,6.6112,6.6112,6.6112,6.6112,6.6112,6.6112,6.6112,6.6112,6.6112,6.6112,6.6112,6.6112,6.6112,6.6112,6.6112,6.6112,6.6112,6.6112,6.6112,6.6112,6.6112,6.6112,6.6112,6.6112,6.6112,6.6112,6.6112,6.6112,6.6112,6.6112,6.6112,6.6112,6.6112,6.6112,6.6112,6.6112,6.6112,6.6112,6.6112,6.6112,6.609,6.6047,6.6026,6.6112,6.6047,6.581,6.5443,6.514,6.4857,6.4617,6.4421,6.4246,6.4114,6.3983,6.3721,6.3456,6.339,6.6112,6.6112,6.6112,6.6112,6.6112,6.6112,6.6112,6.6112,6.6112,6.6112,6.6112,6.6112,6.6112,6.6112,6.6112,6.6112,6.6112,6.6112,6.6112,6.6112,6.6112,6.6112,6.6112,6.6112,6.6112,6.6112,6.6112,6.6112,6.6112,6.6112,6.6112,6.6112,6.6112,6.6112,6.6112,6.6112,6.6112,6.6112,6.6112,6.6112,6.6112,6.6112,6.6112,6.6112,6.6112,6.6112,6.6112,6.6112,6.6112,6.6112,6.6112,6.6112,6.6112,6.6112,6.6112,6.6112,6.6112,6.6112,6.6112,6.6112,6.6112,6.6112,6.6112,6.6112,6.6112,6.6112,6.6112,6.6112,6.6112,6.6112,6.6112,6.6112,6.6112,6.6112,6.6112,6.6112,6.6112,6.6112,6.6112,6.6112,6.6112,6.6112,6.6112,6.6112,6.6112,6.6112,6.6112,6.6112,6.6112,6.6112,6.6112,6.6112,6.6112,6.6112,6.6112,6.6112,6.6112,6.6112,6.6069,6.594,6.594,6.5961,6.5746,6.5313,6.4966,6.4661,6.4399,6.4136,6.3961,6.3785,6.3697,6.3653,6.3542,6.3368,6.3346,6.6112,6.6112,6.6112,6.6112,6.6112,6.6112,6.6112,6.6112,6.6112,6.6112,6.6112,6.6112,6.6112,6.6112,6.6112,6.6112,6.6112,6.6112,6.6112,6.6112,6.6112,6.6112,6.6112,6.6112,6.6112,6.6112,6.6112,6.6112,6.6112,6.6112,6.6112,6.6112,6.6112,6.6112,6.6112,6.6112,6.6112,6.6112,6.6112,6.6112,6.6112,6.6112,6.6112,6.6112,6.6112,6.6112,6.6112,6.6112,6.6112,6.6112,6.6112,6.6112,6.6112,6.6112,6.6112,6.6112,6.6112,6.6112,6.6112,6.6112,6.6112,6.6112,6.6112,6.6112,6.6112,6.6112,6.6112,6.6112,6.6112,6.6112,6.6112,6.6112,6.6112,6.6112,6.6112,6.6112,6.6112,6.6112,6.6112,6.6112,6.6112,6.6112,6.6112,6.6112,6.6112,6.6112,6.6112,6.6112,6.6112,6.6112,6.6112,6.6112,6.6112,6.6112,6.6112,6.6112,6.6112,6.609,6.5983,6.581,6.5616,6.5508,6.5205,6.4789,6.453,6.429,6.3961,6.3631,6.3564,6.352,6.3432,6.3366,6.3299,6.3277,6.3277,6.6112,6.6112,6.6112,6.6112,6.6112,6.6112,6.6112,6.6112,6.6112,6.6112,6.6112,6.6112,6.6112,6.6112,6.6112,6.6112,6.6112,6.6112,6.6112,6.6112,6.6112,6.6112,6.6112,6.6112,6.6112,6.6112,6.6112,6.6112,6.6112,6.6112,6.6112,6.6112,6.6112,6.6112,6.6112,6.6112,6.6112,6.6112,6.6112,6.6112,6.6112,6.6112,6.6112,6.6112,6.6112,6.6112,6.6112,6.6112,6.6112,6.6112,6.6112,6.6112,6.6112,6.6112,6.6112,6.6112,6.6112,6.6112,6.6112,6.6112,6.6112,6.6112,6.6112,6.6112,6.6112,6.6112,6.6112,6.6112,6.6112,6.6112,6.6112,6.6112,6.6112,6.6112,6.6112,6.6112,6.6112,6.6112,6.6112,6.6112,6.6112,6.6112,6.6112,6.6112,6.6112,6.6112,6.6112,6.6112,6.6112,6.6112,6.6112,6.6112,6.6112,6.6112,6.6112,6.6112,6.6026,6.5983,6.5789,6.5551,6.5335,6.5075,6.4726,6.4333,6.4136,6.3917,6.3653,6.3454,6.3366,6.3299,6.3277,6.3277,6.3277,6.3277,6.3277,6.6112,6.6112,6.6112,6.6112,6.6112,6.6112,6.6112,6.6112,6.6112,6.6112,6.6112,6.6112,6.6112,6.6112,6.6112,6.6112,6.6112,6.6112,6.6112,6.6112,6.6112,6.6112,6.6112,6.6112,6.6112,6.6112,6.6112,6.6112,6.6112,6.6112,6.6112,6.6112,6.6112,6.6112,6.6112,6.6112,6.6112,6.6112,6.6112,6.6112,6.6112,6.6112,6.6112,6.6112,6.6112,6.6112,6.6112,6.6112,6.6112,6.6112,6.6112,6.6112,6.6112,6.6112,6.6112,6.6112,6.6112,6.6112,6.6112,6.6112,6.6112,6.6112,6.6112,6.6112,6.6112,6.6112,6.6112,6.6112,6.6112,6.6112,6.6112,6.6112,6.6112,6.6112,6.6112,6.6112,6.6112,6.6112,6.6112,6.6112,6.6112,6.6112,6.6112,6.6112,6.6112,6.6112,6.6112,6.6112,6.6112,6.6112,6.6112,6.6112,6.6112,6.6112,6.6112,6.6112,6.6004,6.5875,6.5573,6.5248,6.4835,6.453,6.4202,6.3917,6.3741,6.3586,6.3432,6.3277,6.3277,6.3277,6.3277,6.3277,6.3277,6.3277,6.3277,6.6112,6.6112,6.6112,6.6112,6.6112,6.6112,6.6112,6.6112,6.6112,6.6112,6.6112,6.6112,6.6112,6.6112,6.6112,6.6112,6.6112,6.6112,6.6112,6.6112,6.6112,6.6112,6.6112,6.6112,6.6112,6.6112,6.6112,6.6112,6.6112,6.6112,6.6112,6.6112,6.6112,6.6112,6.6112,6.6112,6.6112,6.6112,6.6112,6.6112,6.6112,6.6112,6.6112,6.6112,6.6112,6.6112,6.6112,6.6112,6.6112,6.6112,6.6112,6.6112,6.6112,6.6112,6.6112,6.6112,6.6112,6.6112,6.6112,6.6112,6.6112,6.6112,6.6112,6.6112,6.6112,6.6112,6.6112,6.6112,6.6112,6.6112,6.6112,6.6112,6.6112,6.6112,6.6112,6.6112,6.6112,6.6112,6.6112,6.6112,6.6112,6.6112,6.6112,6.6112,6.6112,6.6112,6.6112,6.6112,6.6112,6.6112,6.6112,6.6112,6.6112,6.6112,6.609,6.6004,6.5832,6.5659,6.5248,6.4879,6.4443,6.407,6.3829,6.3609,6.341,6.3277,6.3277,6.3277,6.3277,6.3277,6.3277,6.3277,6.3277,6.3277,6.3277,6.6112,6.6112,6.6112,6.6112,6.6112,6.6112,6.6112,6.6112,6.6112,6.6112,6.6112,6.6112,6.6112,6.6112,6.6112,6.6112,6.6112,6.6112,6.6112,6.6112,6.6112,6.6112,6.6112,6.6112,6.6112,6.6112,6.6112,6.6112,6.6112,6.6112,6.6112,6.6112,6.6112,6.6112,6.6112,6.6112,6.6112,6.6112,6.6112,6.6112,6.6112,6.6112,6.6112,6.6112,6.6112,6.6112,6.6112,6.6112,6.6112,6.6112,6.6112,6.6112,6.6112,6.6112,6.6112,6.6112,6.6112,6.6112,6.6112,6.6112,6.6112,6.6112,6.6112,6.6112,6.6112,6.6112,6.6112,6.6112,6.6112,6.6112,6.6112,6.6112,6.6112,6.6112,6.6112,6.6112,6.6112,6.6112,6.6112,6.6112,6.6112,6.6112,6.6112,6.6112,6.6112,6.6112,6.6112,6.6112,6.6112,6.6112,6.6112,6.6112,6.609,6.6069,6.5918,6.581,6.5616,6.5378,6.4944,6.4508,6.4136,6.3785,6.352,6.3366,6.3299,6.3277,6.3277,6.3277,6.3277,6.3277,6.3277,6.3277,6.3277,6.3277,6.3277,6.6112,6.6112,6.6112,6.6112,6.6112,6.6112,6.6112,6.6112,6.6112,6.6112,6.6112,6.6112,6.6112,6.6112,6.6112,6.6112,6.6112,6.6112,6.6112,6.6112,6.6112,6.6112,6.6112,6.6112,6.6112,6.6112,6.6112,6.6112,6.6112,6.6112,6.6112,6.6112,6.6112,6.6112,6.6112,6.6112,6.6112,6.6112,6.6112,6.6112,6.6112,6.6112,6.6112,6.6112,6.6112,6.6112,6.6112,6.6112,6.6112,6.6112,6.6112,6.6112,6.6112,6.6112,6.6112,6.6112,6.6112,6.6112,6.6112,6.6112,6.6112,6.6112,6.6112,6.6112,6.6112,6.6112,6.6112,6.6112,6.6112,6.6112,6.6112,6.6112,6.6112,6.6112,6.6112,6.6112,6.6112,6.6112,6.6112,6.6112,6.6112,6.6112,6.6112,6.6112,6.6112,6.6112,6.6112,6.6112,6.6112,6.6112,6.6112,6.6112,6.6069,6.6047,6.581,6.5486,6.5227,6.4922,6.4508,6.4114,6.3785,6.3586,6.3388,6.3322,6.3299,6.3277,6.3277,6.3277,6.3277,6.3277,6.3277,6.3277,6.3277,6.3277,6.3277,6.6112,6.6112,6.6112,6.6112,6.6112,6.6112,6.6112,6.6112,6.6112,6.6112,6.6112,6.6112,6.6112,6.6112,6.6112,6.6112,6.6112,6.6112,6.6112,6.6112,6.6112,6.6112,6.6112,6.6112,6.6112,6.6112,6.6112,6.6112,6.6112,6.6112,6.6112,6.6112,6.6112,6.6112,6.6112,6.6112,6.6112,6.6112,6.6112,6.6112,6.6112,6.6112,6.6112,6.6112,6.6112,6.6112,6.6112,6.6112,6.6112,6.6112,6.6112,6.6112,6.6112,6.6112,6.6112,6.6112,6.6112,6.6112,6.6112,6.6112,6.6112,6.6112,6.6112,6.6112,6.6112,6.6112,6.6112,6.6112,6.6112,6.6112,6.6112,6.6112,6.6112,6.6112,6.6112,6.6112,6.6112,6.6112,6.6112,6.6112,6.6112,6.6112,6.6112,6.6112,6.6112,6.6112,6.6112,6.6112,6.5961,6.5961,6.5918,6.5918,6.5875,6.5724,6.54,6.5075,6.4748,6.4421,6.407,6.3807,6.3542,6.341,6.3299,6.3277,6.3277,6.3277,6.3277,6.3277,6.3277,6.3277,6.3277,6.3277,6.3277,6.3277,6.3277,6.6112,6.6112,6.6112,6.6112,6.6112,6.6112,6.6112,6.6112,6.6112,6.6112,6.6112,6.6112,6.6112,6.6112,6.6112,6.6112,6.6112,6.6112,6.6112,6.6112,6.6112,6.6112,6.6112,6.6112,6.6112,6.6112,6.6112,6.6112,6.6137,6.6112,6.6137,6.6112,6.6162,6.6187,6.6112,6.6112,6.6112,6.6112,6.6112,6.6112,6.6112,6.6112,6.6112,6.6112,6.6112,6.6112,6.6112,6.6112,6.6112,6.6112,6.6112,6.6112,6.6112,6.6112,6.6112,6.6112,6.6112,6.6112,6.6112,6.6112,6.6112,6.6112,6.6112,6.6112,6.6112,6.6112,6.6112,6.6112,6.6112,6.6112,6.6112,6.6112,6.6112,6.6112,6.6112,6.6112,6.6112,6.6112,6.6112,6.6112,6.6112,6.6112,6.6112,6.6112,6.6112,6.6112,6.6112,6.6026,6.5681,6.5573,6.5465,6.5465,6.5508,6.5357,6.4988,6.4658,6.4377,6.407,6.3763,6.3544,6.3324,6.3324,6.3277,6.3277,6.3277,6.3277,6.3277,6.3277,6.3277,6.3277,6.3277,6.3277,6.3277,6.3277,6.3277,6.6112,6.6112,6.6112,6.6112,6.6112,6.6112,6.6112,6.6112,6.6112,6.6112,6.6112,6.6112,6.6112,6.6112,6.6112,6.6112,6.6112,6.6112,6.6112,6.6112,6.6112,6.6112,6.6112,6.6112,6.6112,6.6112,6.6112,6.6112,6.6187,6.6413,6.6488,6.6237,6.6262,6.6363,6.6187,6.6112,6.6112,6.6112,6.6112,6.6112,6.6112,6.6112,6.6112,6.6112,6.6112,6.6112,6.6112,6.6112,6.6112,6.6112,6.6112,6.6112,6.6112,6.6112,6.6112,6.6112,6.6112,6.6112,6.6112,6.6112,6.6112,6.6112,6.6112,6.6112,6.6112,6.6112,6.6112,6.6112,6.6112,6.6112,6.6112,6.6112,6.6112,6.6112,6.6112,6.6112,6.6112,6.6112,6.6112,6.6112,6.6112,6.6112,6.6112,6.6112,6.609,6.6026,6.6026,6.581,6.5486,6.5118,6.5009,6.4922,6.4944,6.4835,6.4486,6.4246,6.4026,6.3719,6.35,6.3412,6.3324,6.3299,6.3277,6.3277,6.3277,6.3277,6.3277,6.3277,6.3277,6.3277,6.3277,6.3277,6.3277,6.3277,6.3277,6.6112,6.6112,6.6112,6.6112,6.6112,6.6112,6.6112,6.6112,6.6112,6.6112,6.6112,6.6112,6.6112,6.6112,6.6112,6.6112,6.6112,6.6112,6.6112,6.6112,6.6112,6.6112,6.6112,6.6112,6.6112,6.6112,6.6112,6.6212,6.6338,6.6635,6.6711,6.6413,6.6488,6.6711,6.6287,6.6112,6.6112,6.6112,6.6112,6.6112,6.6112,6.6112,6.6112,6.6112,6.6112,6.6112,6.6112,6.6112,6.6112,6.6112,6.6112,6.6112,6.6112,6.6112,6.6112,6.6112,6.6112,6.6112,6.6112,6.6112,6.6112,6.6112,6.6112,6.6112,6.6112,6.6112,6.6112,6.6112,6.6112,6.6112,6.6112,6.6112,6.6112,6.6112,6.6112,6.6112,6.6112,6.6112,6.6112,6.6112,6.6112,6.6112,6.6112,6.6112,6.6047,6.5983,6.5789,6.553,6.5227,6.477,6.4486,6.4333,6.4246,6.4092,6.3939,6.3875,6.3745,6.3564,6.339,6.3322,6.3277,6.3277,6.3277,6.3277,6.3277,6.3277,6.3277,6.3277,6.3277,6.3277,6.3277,6.3277,6.3277,6.3277,6.3277,6.6112,6.6112,6.6112,6.6112,6.6112,6.6112,6.6112,6.6112,6.6112,6.6112,6.6112,6.6112,6.6112,6.6112,6.6112,6.6112,6.6112,6.6112,6.6112,6.6112,6.6112,6.6112,6.6112,6.6112,6.6112,6.6115,6.6212,6.6388,6.6664,6.6912,6.6987,6.6861,6.6861,6.6761,6.6237,6.6137,6.6112,6.6112,6.6112,6.6112,6.6112,6.6112,6.6112,6.6112,6.6112,6.6112,6.6112,6.6112,6.6112,6.6112,6.6112,6.6112,6.6112,6.6112,6.6112,6.6112,6.6112,6.6112,6.6112,6.6112,6.6112,6.6112,6.6112,6.6112,6.6112,6.6112,6.6112,6.6112,6.6112,6.6112,6.6112,6.6112,6.6112,6.6112,6.6112,6.6112,6.6112,6.6112,6.6112,6.6112,6.6112,6.6112,6.6112,6.609,6.6047,6.5896,6.5573,6.5292,6.4835,6.4421,6.4005,6.3875,6.3723,6.352,6.3432,6.3617,6.3553,6.3394,6.3374,6.354,6.354,6.3301,6.3277,6.3301,6.3301,6.3277,6.3277,6.3277,6.3277,6.3277,6.3277,6.3277,6.3277,6.3277,6.3277]},{"header":{"parameterUnit":"m.s-1","parameterCategory":1,"la1":31.0,"la2":29.5877,"lo1":-88.7671,"lo2":-86.6584,"dx":0.0162,"dy":0.0185,"nx":115,"ny":88,"refTime":"2022-11-16T18:00:00:Z","depth":0,"parameterNumber":3,"parameterNumberName":"V-component_of_WINDS"},"data":[0.0,0.0,0.0,0.0,0.0,0.0,0.0,0.0,0.0,0.0,0.0,0.0,0.0,0.0,0.0,0.0,0.0,0.0,0.0,0.0,0.0,0.0,0.0,0.0,0.0,0.0,0.0,0.0,0.0,0.0,0.0,0.0,0.0,0.0,0.0,0.0,0.0,0.0,0.0,0.0,0.0,0.0,0.0,0.0,0.0,0.0,0.0,0.0,0.0,0.0,0.0,0.0,0.0,0.0,0.0,0.0,0.0,0.0,0.0,0.0,0.0,0.0,0.0,0.0,0.0,0.0,0.0,0.0,0.0,0.0,0.0,0.0,0.0,0.0,0.0,0.0,0.0,0.0,0.0,0.0,0.0,0.0,0.0,0.0,0.0,0.0,0.0,0.0,0.0,0.0,0.0,0.0,0.0,0.0,0.0,0.0,0.0,0.0,0.0,0.0,0.0,0.0,0.0,0.0,0.0,0.0,0.0,0.0,0.0,0.0,0.0,0.0,0.0,0.0,0.0,0.0,0.0,0.0,0.0,0.0,0.0,0.0,0.0,0.0,0.0,0.0,0.0,0.0,0.0,0.0,0.0,0.0,0.0,0.0,0.0,0.0,0.0,0.0,0.0,0.0,0.0,0.0,0.0,0.0,0.0,0.0,0.0,0.0,0.0,0.0,0.0,0.0,0.0,0.0,0.0,0.0,0.0,0.0,0.0,0.0,0.0,0.0,0.0,0.0,0.0,0.0,0.0,0.0,0.0,0.0,0.0,0.0,0.0,0.0,0.0,0.0,0.0,0.0,0.0,0.0,0.0,0.0,0.0,0.0,0.0,0.0,0.0,0.0,0.0,0.0,0.0,0.0,0.0,0.0,0.0,0.0,0.0,0.0,0.0,0.0,0.0,0.0,0.0,0.0,0.0,0.0,0.0,0.0,0.0,0.0,0.0,0.0,0.0,0.0,0.0,0.0,0.0,0.0,0.0,0.0,0.0,0.0,0.0,0.0,0.0,0.0,0.0,0.0,0.0,0.0,0.0,0.0,0.0,0.0,0.0,0.0,0.0,0.0,0.0,0.0,0.0,0.0,0.0,0.0,0.0,0.0,0.0,0.0,0.0,0.0,0.0,0.0,0.0,0.0,0.0,0.0,0.0,0.0,0.0,0.0,0.0,0.0,0.0,0.0,0.0,0.0,0.0,0.0,0.0,0.0,0.0,0.0,0.0,0.0,0.0,0.0,0.0,0.0,0.0,0.0,0.0,0.0,0.0,0.0,0.0,0.0,0.0,0.0,0.0,0.0,0.0,0.0,0.0,0.0,0.0,0.0,0.0,0.0,0.0,0.0,0.0,0.0,0.0,0.0,0.0,0.0,0.0,0.0,0.0,0.0,0.0,0.0,0.0,0.0,0.0,0.0,0.0,0.0,0.0,0.0,0.0,0.0,0.0,0.0,0.0,0.0,0.0,0.0,0.0,0.0,0.0,0.0,0.0,0.0,0.0,0.0,0.0,0.0,0.0,0.0,0.0,0.0,0.0,0.0,0.0,0.0,0.0,0.0,0.0,0.0,0.0,0.0,0.0,0.0,0.0,0.0,0.0,0.0,0.0,0.0,0.0,0.0,0.0,0.0,0.0,0.0,0.0,0.0,0.0,0.0,0.0,0.0,0.0,0.0,0.0,0.0,0.0,0.0,0.0,0.0,0.0,0.0,0.0,0.0,0.0,0.0,0.0,0.0,0.0,0.0,0.0,0.0,0.0,0.0,0.0,0.0,0.0,0.0,0.0,0.0,0.0,0.0,0.0,0.0,0.0,0.0,0.0,0.0,0.0,0.0,0.0,0.0,0.0,0.0,0.0,0.0,0.0,0.0,0.0,0.0,0.0,0.0,0.0,0.0,0.0,0.0,0.0,0.0,0.0,0.0,0.0,0.0,0.0,0.0,0.0,0.0,0.0,0.0,0.0,0.0,0.0,0.0,0.0,0.0,0.0,0.0,0.0,0.0,0.0,0.0,0.0,0.0,0.0,0.0,0.0,0.0,0.0,0.0,0.0,0.0,0.0,0.0,0.0,0.0,0.0,0.0,0.0,0.0,0.0,0.0,0.0,0.0,0.0,0.0,0.0,0.0,0.0,0.0,0.0,0.0,0.0,0.0,0.0,0.0,0.0,0.0,0.0,0.0,0.0,0.0,0.0,0.0,0.0,0.0,0.0,0.0,0.0,0.0,0.0,0.0,0.0,0.0,0.0,0.0,0.0,0.0,0.0,0.0,0.0,0.0,0.0,0.0,0.0,0.0,0.0,0.0,0.0,0.0,0.0,0.0,0.0,0.0,0.0,0.0,0.0,0.0,0.0,0.0,0.0,0.0,0.0,0.0,0.0,0.0,0.0,0.0,0.0,0.0,0.0,0.0,0.0,0.0,0.0,0.0,0.0,0.0,0.0,0.0,0.0,0.0,0.0,0.0,0.0,0.0,0.0,0.0,0.0,0.0,0.0,0.0,0.0,0.0,0.0,0.0,0.0,0.0,0.0,0.0,0.0,0.0,0.0,0.0,0.0,0.0,0.0,0.0,0.0,0.0,0.0,0.0,0.0,0.0,0.0,0.0,0.0,0.0,0.0,0.0,0.0,0.0,0.0,0.0,0.0,0.0,0.0,0.0,0.0,0.0,0.0,0.0,0.0,0.0,0.0,0.0,0.0,0.0,0.0,0.0,0.0,0.0,0.0,0.0,0.0,0.0,0.0,0.0,0.0,0.0,0.0,0.0,0.0,0.0,0.0,0.0,0.0,0.0,0.0,0.0,0.0,0.0,0.0,0.0,0.0,0.0,0.0,0.0,0.0,0.0,0.0,0.0,0.0,0.0,0.0,0.0,0.0,0.0,0.0,0.0,0.0,0.0,0.0,0.0,0.0,0.0,0.0,0.0,0.0,0.0,0.0,0.0,0.0,0.0,0.0,0.0,0.0,0.0,0.0,0.0,0.0,0.0,0.0,0.0,0.0,0.0,0.0,0.0,0.0,0.0,0.0,0.0,0.0,0.0,0.0,0.0,0.0,0.0,0.0,0.0,0.0,0.0,0.0,0.0,0.0,0.0,0.0,0.0,0.0,0.0,0.0,0.0,0.0,0.0,0.0,0.0,0.0,0.0,0.0,0.0,0.0,0.0,0.0,0.0,0.0,0.0,0.0,0.0,0.0,0.0,0.0,0.0,0.0,0.0,0.0,0.0,0.0,0.0,0.0,0.0,0.0,0.0,0.0,0.0,0.0,0.0,0.0,0.0,0.0,0.0,0.0,0.0,0.0,0.0,0.0,0.0,0.0,0.0,0.0,0.0,0.0,0.0,0.0,0.0,0.0,0.0,0.0,0.0,0.0,0.0,0.0,0.0,0.0,0.0,0.0,0.0,0.0,0.0,0.0,0.0,0.0,0.0,0.0,0.0,0.0,0.0,0.0,0.0,0.0,0.0,0.0,0.0,0.0,0.0,0.0,0.0,0.0,0.0,0.0,0.0,0.0,0.0,0.0,0.0,0.0,0.0,0.0,0.0,0.0,0.0,0.0,0.0,0.0,0.0,0.0,0.0,0.0,0.0,0.0,0.0,0.0,0.0,0.0,0.0,0.0,0.0,0.0,0.0,0.0,0.0,0.0,0.0,0.0,0.0,0.0,0.0,0.0,0.0,0.0,0.0,0.0,0.0,0.0,0.0,0.0,0.0,0.0,0.0,0.0,0.0,0.0,0.0,0.0,0.0,0.0,0.0,0.0,0.0,0.0,0.0,0.0,0.0,0.0,0.0,0.0,0.0,0.0,0.0,0.0,0.0,0.0,0.0,0.0,0.0,0.0,0.0,0.0,0.0,0.0,0.0,0.0,0.0,0.0,0.0,0.0,0.0,0.0,0.0,0.0,0.0,0.0,0.0,0.0,0.0,0.0,0.0,0.0,0.0,0.0,0.0,0.0,0.0,0.0,0.0,0.0,0.0,0.0,0.0,0.0,0.0,0.0,0.0,0.0,0.0,0.0,0.0,0.0,0.0,0.0,0.0,0.0,0.0,0.0,0.0,0.0,0.0,0.0,0.0,0.0,0.0,0.0,0.0,0.0,0.0,0.0,0.0,0.0,0.0,0.0,0.0,0.0,0.0,0.0,0.0,0.0,0.0,0.0,0.0,0.0,0.0,0.0,0.0,0.0,0.0,0.0,0.0,0.0,0.0,0.0,0.0,0.0,0.0,0.0,0.0,0.0,0.0,0.0,0.0,0.0,0.0,0.0,0.0,0.0,0.0,0.9607,0.0,0.0,0.0,0.9607,0.0,0.0,0.0,0.0,0.0,0.0,0.0,0.0,0.0,0.0,0.0,0.0,0.0,0.0,0.0,0.0,0.0,0.0,0.0,0.0,0.0,0.0,0.0,0.0,0.0,0.0,0.0,0.0,0.0,0.0,0.0,0.0,0.0,0.0,0.0,0.0,0.0,0.0,0.0,0.0,0.0,0.0,0.0,0.0,0.0,0.0,0.0,0.0,0.0,0.0,0.0,0.0,0.0,0.0,0.0,0.0,0.0,0.0,0.0,0.0,0.0,0.0,0.0,0.0,0.0,0.0,0.0,0.0,0.0,0.0,0.0,0.0,0.0,0.0,0.0,0.0,0.0,0.0,0.0,0.0,0.0,0.0,0.0,0.0,0.0,0.0,0.0,0.0,0.0,0.0,0.0,0.0,0.0,0.0,0.0,0.0,0.0,0.0,0.0,0.0,0.0,0.0,0.0,0.0,0.0,0.0,0.0,0.0,0.0,0.0,1.0477,1.0464,1.0182,1.0163,1.0464,0.0,0.0,0.0,0.0,0.0,0.0,0.0,0.0,0.0,0.0,0.0,0.0,0.0,0.0,0.0,0.0,0.0,0.0,0.0,0.0,0.0,0.0,0.0,0.0,0.0,0.0,0.0,0.0,0.0,0.0,0.0,0.0,0.0,0.0,0.0,0.0,0.0,0.0,0.0,0.0,0.0,0.0,0.0,0.0,0.0,0.0,0.0,0.0,0.0,0.0,0.0,0.0,0.0,0.0,0.0,0.0,0.0,0.0,0.0,0.0,0.0,0.0,0.0,0.0,0.0,0.0,0.0,0.0,0.0,0.0,0.0,0.0,0.0,0.0,0.0,0.0,0.0,0.0,0.0,0.0,0.0,0.0,0.0,0.0,0.0,0.0,0.0,0.0,0.0,0.0,0.0,0.0,0.0,0.0,0.0,0.0,0.0,0.0,0.0,0.0,0.0,0.0,0.0,0.0,0.0,0.0,0.0,0.0,0.0,0.0,0.0,0.0,1.0681,1.0643,1.1175,0.0,0.0,0.0,0.0,0.0,0.0,0.0,0.0,0.0,0.0,0.0,0.0,0.0,0.0,0.0,0.0,0.0,0.0,0.0,0.0,0.0,0.0,0.0,0.0,0.0,0.0,0.0,0.0,0.0,0.0,0.0,0.0,0.0,0.0,0.0,0.0,0.0,0.0,0.0,0.0,0.0,0.0,0.0,0.0,0.0,0.0,0.0,0.0,0.0,0.0,0.0,0.0,0.0,0.0,0.0,0.0,0.0,0.0,0.0,0.0,0.0,0.0,0.0,0.0,0.0,0.0,0.0,0.0,0.0,0.0,0.0,0.0,0.0,0.0,0.0,0.0,0.0,0.0,0.0,0.0,0.0,0.0,0.0,0.0,0.0,0.0,0.0,0.0,0.0,0.0,0.0,0.0,0.0,0.0,0.0,0.0,0.0,0.0,0.0,0.0,0.0,0.0,0.0,0.0,0.0,0.0,0.0,0.0,0.0,0.0,1.0214,1.115,1.0687,0.0,1.1187,0.0,0.0,0.0,0.0,0.0,0.0,0.0,0.0,0.0,0.0,0.0,0.0,0.0,0.0,0.0,0.0,0.0,0.0,0.0,0.0,0.0,0.0,0.0,0.0,0.0,0.0,0.0,0.0,0.0,0.0,0.0,0.0,0.0,0.0,0.0,0.0,0.0,0.0,0.0,0.0,0.0,0.0,0.0,0.0,0.0,0.0,0.0,0.0,0.0,0.0,0.0,0.0,0.0,0.0,0.0,0.0,0.0,0.0,0.0,0.0,0.0,0.0,0.0,0.0,0.0,0.0,0.0,0.0,0.0,0.0,0.0,0.0,0.0,0.0,0.0,0.0,0.0,0.0,0.0,0.0,0.0,0.0,0.0,0.0,0.0,0.0,0.0,0.0,0.0,0.0,0.0,0.0,0.0,0.0,0.0,0.0,0.0,0.0,0.0,0.0,0.0,0.0,0.0,0.0,0.0,0.0,0.0,0.0,0.0,0.0,1.1763,1.2197,1.1993,1.1837,0.0,0.0,0.0,0.0,0.0,0.0,0.0,0.0,0.0,0.0,0.0,0.0,0.0,0.0,0.0,0.0,0.0,0.0,0.0,0.0,0.0,0.0,0.0,0.0,0.0,0.0,0.0,0.0,0.0,0.0,0.0,0.0,0.0,0.0,0.0,0.0,0.0,0.0,0.0,0.0,0.0,0.0,0.0,0.0,0.0,0.0,0.0,0.0,0.0,0.0,0.0,0.0,0.0,0.0,0.0,0.0,0.0,0.0,0.0,0.0,0.0,0.0,0.0,0.0,0.0,0.0,0.0,0.0,0.0,0.0,0.0,0.0,0.0,0.0,0.0,0.0,0.0,0.0,0.0,0.0,0.0,0.0,0.0,0.0,0.0,0.0,0.0,0.0,0.0,0.0,0.0,0.0,0.0,0.0,0.0,0.0,0.0,0.0,0.0,0.0,0.0,0.0,0.0,0.0,0.0,0.0,0.0,0.0,0.0,0.0,1.232,1.2517,1.267,1.2816,1.2719,1.232,0.0,0.0,0.0,0.0,0.0,0.0,0.0,0.0,0.0,0.0,0.0,0.0,0.0,0.0,0.0,0.0,0.0,0.0,0.0,0.0,0.0,0.0,0.0,0.0,0.0,0.0,0.0,0.0,0.0,0.0,0.0,0.0,0.0,0.0,0.0,0.0,0.0,0.0,0.0,0.0,0.0,0.0,0.0,0.0,0.0,0.0,0.0,0.0,0.0,0.0,0.0,0.0,0.0,0.0,0.0,0.0,0.0,0.0,0.0,0.0,0.0,0.0,0.0,0.0,0.0,0.0,0.0,0.0,0.0,0.0,0.0,0.0,0.0,0.0,0.0,0.0,0.0,0.0,0.0,0.0,0.0,0.0,0.0,0.0,0.0,0.0,0.0,0.0,0.0,0.0,0.0,0.0,0.0,0.0,0.0,0.0,0.0,0.0,0.0,0.0,0.0,0.0,0.0,0.0,0.0,0.0,0.0,0.0,1.2104,1.16,1.1581,1.2178,1.2627,1.2891,0.0,0.0,0.0,0.0,0.0,0.0,0.0,0.0,0.0,0.0,0.0,0.0,0.0,0.0,0.0,0.0,0.0,0.0,0.0,0.0,0.0,0.0,0.0,0.0,0.0,0.0,0.0,0.0,0.0,0.0,0.0,0.0,0.0,0.0,0.0,0.0,0.0,0.0,0.0,0.0,0.0,0.0,0.0,0.0,0.0,0.0,0.0,0.0,0.0,0.0,0.0,0.0,0.0,0.0,0.0,0.0,0.0,0.0,0.0,0.0,0.0,0.0,0.0,0.0,0.0,0.0,0.0,0.0,0.0,0.0,0.0,0.0,0.0,0.0,0.0,0.0,0.0,0.0,0.0,0.0,0.0,0.0,0.0,0.0,0.0,0.0,0.0,0.0,0.0,0.0,0.0,0.0,0.0,0.0,0.0,0.0,0.0,0.0,0.0,0.0,0.0,0.0,0.0,0.0,0.0,0.0,0.0,0.0,0.0,1.2979,1.3046,1.3172,1.3374,1.3562,1.3535,0.0,0.0,0.0,0.0,0.0,0.0,0.0,0.0,0.0,0.0,0.0,0.0,0.0,0.0,0.0,0.0,0.0,0.0,0.0,0.0,0.0,0.0,0.0,0.0,0.0,0.0,0.0,0.0,0.0,0.0,0.0,0.0,0.0,0.0,0.0,0.0,0.0,0.0,0.0,0.0,0.0,0.0,0.0,0.0,0.0,0.0,0.0,0.0,0.0,0.0,0.0,0.0,0.0,0.0,0.0,0.0,0.0,0.0,0.0,0.0,0.0,0.0,0.0,0.0,0.0,0.0,0.0,0.0,0.0,0.0,0.0,0.0,0.0,0.0,0.0,0.0,0.0,0.0,0.0,0.0,0.0,0.0,0.0,0.0,0.0,0.0,0.0,0.0,0.0,0.0,0.0,0.0,0.0,0.0,0.0,0.0,0.0,0.0,0.0,0.0,0.0,0.0,0.0,0.0,0.0,0.0,0.0,0.0,0.0,1.39,1.4186,1.4322,1.4322,1.4342,1.4069,0.0,0.0,0.0,0.0,0.0,0.0,0.0,0.0,0.0,0.0,0.0,0.0,0.0,0.0,0.0,0.0,0.0,0.0,0.0,0.0,0.0,0.0,0.0,0.0,0.0,0.0,0.0,0.0,0.0,0.0,0.0,0.0,0.0,0.0,0.0,0.0,0.0,0.0,0.0,0.0,0.0,0.0,0.0,0.0,0.0,0.0,0.0,0.0,0.0,0.0,0.0,0.0,0.0,0.0,0.0,0.0,0.0,0.0,0.0,0.0,0.0,0.0,0.0,0.0,0.0,0.0,0.0,0.0,0.0,0.0,0.0,0.0,0.0,0.0,0.0,0.0,0.0,0.0,0.0,0.0,0.0,0.0,0.0,0.0,0.0,0.0,0.0,0.0,0.0,0.0,0.0,0.0,0.0,0.0,0.0,0.0,0.0,0.0,0.0,0.0,0.0,0.0,0.0,0.0,0.0,0.0,0.0,0.0,1.3965,1.4753,1.4819,1.487,1.4826,1.4831,1.4421,0.0,0.0,0.0,0.0,0.0,0.0,0.0,0.0,0.0,0.0,0.0,0.0,0.0,0.0,0.0,0.0,0.0,0.0,0.0,0.0,0.0,0.0,0.0,0.0,0.0,0.0,0.0,0.0,0.0,0.0,0.0,0.0,0.0,0.0,0.0,0.0,0.0,0.0,0.0,0.0,0.0,0.0,0.0,0.0,0.0,0.0,0.0,0.0,0.0,0.0,0.0,0.0,0.0,0.0,0.0,0.0,0.0,0.0,0.0,0.0,0.0,0.0,0.0,0.0,0.0,0.0,0.0,0.0,0.0,0.0,0.0,0.0,0.0,0.0,0.0,0.0,0.0,0.0,0.0,0.0,0.0,0.0,0.0,0.0,0.0,0.0,0.0,0.0,0.0,0.0,0.0,0.0,0.0,0.0,0.0,0.0,0.0,0.0,0.0,0.0,0.0,0.0,0.0,0.0,0.0,0.0,0.0,0.0,0.0,1.5215,1.5813,1.6118,1.6098,1.5855,1.5405,0.0,0.0,0.0,0.0,0.0,0.0,0.0,0.0,0.0,0.0,0.0,0.0,0.0,0.0,0.0,0.0,0.0,0.0,0.0,0.0,0.0,0.0,0.0,0.0,0.0,0.0,0.0,0.0,0.0,0.0,0.0,0.0,0.0,0.0,0.0,0.0,0.0,0.0,0.0,0.0,0.0,0.0,0.0,0.0,0.0,0.0,0.0,0.0,0.0,0.0,0.0,0.0,0.0,0.0,0.0,0.0,0.0,0.0,0.0,0.0,0.0,0.0,0.0,0.0,0.0,0.0,0.0,0.0,0.0,0.0,0.0,0.0,0.0,0.0,0.0,0.0,0.0,0.0,0.0,0.0,0.0,0.0,0.0,0.0,0.0,0.0,0.0,0.0,0.0,0.0,0.0,0.0,0.0,0.0,0.0,0.0,0.0,0.0,0.0,0.0,0.0,0.0,0.0,0.0,0.0,0.0,0.0,0.0,0.0,1.7633,1.7957,1.8166,1.8138,1.769,1.6916,1.5807,0.0,0.0,0.0,0.0,0.0,0.0,0.0,0.0,0.0,0.0,0.0,0.0,0.0,0.0,0.0,0.0,0.0,0.0,0.0,0.0,0.0,0.0,0.0,0.0,0.0,0.0,0.0,0.0,0.0,0.0,0.0,0.0,0.0,0.0,0.0,0.0,0.0,0.0,0.0,0.0,0.0,0.0,0.0,0.0,0.0,0.0,0.0,0.0,0.0,0.0,0.0,0.0,0.0,0.0,0.0,0.0,0.0,0.0,0.0,0.0,0.0,0.0,0.0,0.0,0.0,0.0,0.0,0.0,0.0,0.0,0.0,0.0,0.0,0.0,0.0,0.0,0.0,0.0,0.0,0.0,0.0,0.0,0.0,0.0,0.0,0.0,0.0,0.0,0.0,0.0,0.0,0.0,0.0,0.0,0.0,0.0,0.0,0.0,0.0,0.0,0.0,0.0,0.0,0.0,0.0,0.0,0.0,0.0,2.1492,2.1159,2.0897,2.0737,2.0078,1.8771,0.0,0.0,0.0,0.0,0.0,0.0,0.0,0.0,0.0,0.0,0.0,0.0,0.0,0.0,0.0,0.0,0.0,0.0,0.0,0.0,0.0,0.0,0.0,0.0,0.0,0.0,0.0,0.0,0.0,0.0,0.0,0.0,0.0,0.0,0.0,0.0,0.0,0.0,0.0,0.0,0.0,0.0,0.0,0.0,0.0,0.0,0.0,0.0,0.0,0.0,0.0,0.0,0.0,0.0,0.0,0.0,0.0,0.0,0.0,0.0,0.0,0.0,0.0,0.0,0.0,0.0,0.0,0.0,0.0,0.0,0.0,0.0,0.0,0.0,0.0,0.0,0.0,0.0,0.0,0.0,0.0,0.0,0.0,0.0,0.0,0.0,0.0,0.0,0.0,0.0,0.0,0.0,0.0,0.0,0.0,0.0,0.0,0.0,0.0,0.0,0.0,0.0,0.0,0.0,0.0,0.0,0.0,0.0,0.0,2.393,2.4984,2.4601,2.2645,2.1339,2.0132,0.0,0.0,0.0,0.0,0.0,0.0,0.0,0.0,0.0,0.0,0.0,0.0,0.0,0.0,0.0,0.0,0.0,0.0,0.0,0.0,0.0,0.0,0.0,0.0,0.0,0.0,0.0,0.0,0.0,0.0,0.0,0.0,0.0,0.0,0.0,0.0,0.0,0.0,0.0,0.0,0.0,0.0,0.0,0.0,0.0,0.0,0.0,0.0,0.0,0.0,0.0,0.0,0.0,0.0,0.0,0.0,0.0,0.0,0.0,0.0,0.0,0.0,0.0,0.0,0.0,0.0,0.0,0.0,0.0,0.0,0.0,0.0,0.0,0.0,0.0,0.0,0.0,0.0,0.0,0.0,0.0,0.0,0.0,0.0,0.0,0.0,0.0,0.0,0.0,0.0,0.0,0.0,0.0,0.0,0.0,0.0,0.0,0.0,0.0,0.0,0.0,0.0,0.0,0.0,0.0,0.0,0.0,0.0,2.4289,2.5881,2.7578,2.7694,2.6142,2.3701,2.1826,0.0,0.0,0.0,0.0,0.0,0.0,0.0,0.0,0.0,0.0,0.0,0.0,0.0,0.0,0.0,0.0,0.0,0.0,0.0,0.0,0.0,0.0,0.0,0.0,0.0,0.0,0.0,0.0,0.0,0.0,0.0,0.0,0.0,0.0,0.0,0.0,0.0,0.0,0.0,0.0,0.0,0.0,0.0,0.0,0.0,0.0,0.0,0.0,0.0,0.0,0.0,0.0,0.0,0.0,0.0,0.0,0.0,0.0,0.0,0.0,0.0,0.0,0.0,0.0,0.0,0.0,0.0,0.0,0.0,0.0,0.0,0.0,0.0,0.0,0.0,0.0,0.0,0.0,0.0,0.0,0.0,0.0,0.0,0.0,0.0,0.0,0.0,0.0,0.0,0.0,0.0,0.0,0.0,0.0,0.0,0.0,0.0,0.0,0.0,0.0,0.0,0.0,0.0,0.0,0.0,0.0,0.0,0.0,2.6322,2.7493,2.922,3.0118,2.9973,2.6457,2.3699,0.0,0.0,0.0,0.0,0.0,0.0,0.0,0.0,0.0,0.0,0.0,0.0,0.0,0.0,0.0,0.0,0.0,0.0,0.0,0.0,0.0,0.0,0.0,0.0,0.0,0.0,0.0,0.0,0.0,0.0,0.0,0.0,0.0,0.0,0.0,0.0,0.0,0.0,0.0,0.0,0.0,0.0,0.0,0.0,0.0,0.0,0.0,0.0,0.0,0.0,0.0,0.0,0.0,0.0,0.0,0.0,0.0,0.0,0.0,0.0,0.0,0.0,0.0,0.0,0.0,0.0,0.0,0.0,0.0,0.0,0.0,0.0,0.0,0.0,0.0,0.0,0.0,0.0,0.0,0.0,0.0,0.0,0.0,0.0,0.0,0.0,0.0,0.0,0.0,0.0,0.0,0.0,0.0,0.0,0.0,0.0,0.0,0.0,0.0,0.0,0.0,0.0,0.0,0.0,0.0,0.0,0.0,0.0,2.7412,2.8856,3.0352,3.0918,3.0546,2.7519,2.5249,0.0,0.0,0.0,0.0,0.0,0.0,0.0,0.0,0.0,0.0,0.0,0.0,0.0,0.0,0.0,0.0,0.0,0.0,0.0,0.0,0.0,0.0,0.0,0.0,0.0,0.0,0.0,0.0,0.0,0.0,0.0,0.0,0.0,0.0,0.0,0.0,0.0,0.0,0.0,0.0,0.0,0.0,0.0,0.0,0.0,0.0,0.0,0.0,1.5411,0.0,0.0,0.0,0.0,0.0,0.0,0.0,0.0,0.0,0.0,0.0,0.0,0.0,0.0,0.0,0.0,0.0,0.0,0.0,0.0,0.0,0.0,0.0,0.0,0.0,0.0,0.0,0.0,0.0,0.0,0.0,0.0,0.0,0.0,0.0,0.0,0.0,0.0,0.0,0.0,0.0,0.0,0.0,0.0,0.0,0.0,0.0,0.0,0.0,0.0,0.0,0.0,0.0,0.0,0.0,0.0,0.0,0.0,0.0,2.8057,2.9891,3.0898,3.1374,3.1223,2.8961,2.6792,0.0,0.0,0.0,0.0,0.0,0.0,0.0,0.0,0.0,0.0,0.0,0.0,0.0,0.0,0.0,0.0,0.0,0.0,0.0,0.0,0.0,0.0,0.0,0.0,0.0,0.0,0.0,0.0,0.0,0.0,0.0,0.0,0.0,0.0,0.0,0.0,0.0,0.0,0.0,0.0,0.0,0.0,0.0,0.0,0.0,0.0,0.0,0.0,0.0,0.0,0.0,0.0,0.0,0.0,0.0,0.0,0.0,0.0,0.0,0.0,0.0,0.0,0.0,0.0,0.0,0.0,0.0,0.0,0.0,0.0,0.0,0.0,0.0,0.0,0.0,0.0,0.0,0.0,0.0,0.0,0.0,0.0,0.0,0.0,0.0,0.0,0.0,0.0,0.0,0.0,0.0,0.0,0.0,0.0,0.0,0.0,0.0,0.0,0.0,0.0,0.0,0.0,0.0,0.0,0.0,0.0,0.0,2.6489,2.8728,3.0918,3.1519,3.1899,3.2064,3.0436,2.8222,2.5501,0.0,0.0,0.0,0.0,0.0,0.0,0.0,0.0,0.0,0.0,0.0,0.0,0.0,0.0,0.0,0.0,0.0,0.0,0.0,0.0,0.0,0.0,0.0,0.0,0.0,0.0,0.0,0.0,0.0,0.0,0.0,0.0,0.0,0.0,0.0,0.0,0.0,0.0,1.4011,1.4849,0.0,0.0,0.0,0.0,0.0,0.0,0.0,0.0,1.7078,0.0,0.0,0.0,0.0,0.0,0.0,0.0,0.0,0.0,0.0,0.0,0.0,0.0,0.0,0.0,0.0,0.0,0.0,0.0,0.0,0.0,0.0,0.0,0.0,0.0,0.0,0.0,0.0,0.0,0.0,0.0,0.0,0.0,0.0,0.0,0.0,0.0,0.0,0.0,0.0,0.0,0.0,0.0,0.0,0.0,0.0,0.0,0.0,0.0,0.0,0.0,0.0,0.0,0.0,0.0,0.0,2.6116,2.8019,3.0077,3.2319,3.3217,3.3321,3.2574,3.1202,2.9179,2.6466,0.0,0.0,0.0,0.0,0.0,0.0,0.0,0.0,0.0,0.0,0.0,0.0,0.0,0.0,0.0,0.0,0.0,0.0,0.0,0.0,0.0,0.0,0.0,0.0,0.0,0.0,0.0,0.0,0.0,0.0,0.0,0.0,0.0,0.0,0.0,0.0,0.0,0.0,0.0,1.6758,1.7461,0.0,0.0,0.0,0.0,0.0,0.0,0.0,0.0,1.9268,0.0,0.0,0.0,0.0,0.0,0.0,0.0,0.0,0.0,0.0,0.0,0.0,0.0,0.0,0.0,0.0,0.0,0.0,0.0,0.0,0.0,0.0,0.0,0.0,0.0,0.0,0.0,0.0,0.0,0.0,0.0,0.0,0.0,0.0,0.0,0.0,0.0,0.0,0.0,0.0,0.0,0.0,0.0,0.0,0.0,0.0,0.0,0.0,0.0,0.0,0.0,0.0,0.0,0.0,0.0,2.6962,2.9517,3.1686,3.3385,3.4521,3.4843,3.4281,3.2609,3.0358,0.0,0.0,0.0,0.0,0.0,0.0,0.0,0.0,0.0,0.0,0.0,0.0,0.0,0.0,0.0,0.0,0.0,0.0,0.0,0.0,0.0,0.0,0.0,0.0,0.0,0.0,0.0,0.0,0.0,0.0,0.0,0.0,0.0,0.0,0.0,0.0,0.0,0.0,0.0,0.0,1.8474,1.9479,2.1769,0.0,0.0,0.0,0.0,0.0,0.0,2.1102,2.0677,0.0,0.0,0.0,0.0,0.0,0.0,0.0,0.0,0.0,0.0,0.0,0.0,0.0,0.0,0.0,0.0,0.0,0.0,0.0,0.0,0.0,0.0,0.0,0.0,0.0,0.0,0.0,0.0,0.0,0.0,0.0,0.0,0.0,0.0,0.0,0.0,0.0,0.0,0.0,0.0,0.0,0.0,0.0,0.0,0.0,0.0,0.0,0.0,0.0,0.0,0.0,0.0,0.0,0.0,0.0,2.7818,3.0882,3.329,3.4938,3.6078,3.6559,3.6303,3.398,3.1478,0.0,0.0,0.0,0.0,0.0,0.0,0.0,0.0,0.0,0.0,0.0,0.0,0.0,0.0,0.0,0.0,0.0,0.0,0.0,0.0,0.0,0.0,0.0,0.0,0.0,0.0,0.0,0.0,0.0,0.0,0.0,0.0,0.0,0.0,0.0,0.0,0.0,0.0,0.0,0.0,0.0,2.1718,2.4542,2.3912,0.0,0.0,0.0,0.0,2.3156,2.2901,0.0,0.0,0.0,0.0,0.0,0.0,0.0,0.0,0.0,0.0,0.0,0.0,0.0,0.0,0.0,0.0,0.0,0.0,0.0,0.0,0.0,0.0,0.0,0.0,0.0,0.0,0.0,0.0,0.0,0.0,0.0,0.0,0.0,0.0,0.0,0.0,0.0,0.0,0.0,0.0,0.0,0.0,0.0,0.0,0.0,0.0,0.0,0.0,0.0,0.0,0.0,0.0,0.0,0.0,0.0,0.0,2.9348,3.1845,3.4666,3.7812,3.8548,3.8622,3.8156,3.4889,3.2367,0.0,0.0,0.0,0.0,0.0,0.0,0.0,0.0,0.0,0.0,0.0,0.0,0.0,0.0,0.0,0.0,0.0,0.0,0.0,0.0,0.0,0.0,0.0,0.0,0.0,0.0,0.0,0.0,0.0,0.0,0.0,0.0,0.0,0.0,0.0,0.0,0.0,0.0,0.0,0.0,0.0,2.4115,2.6248,2.6383,2.6461,0.0,0.0,2.6938,2.7302,2.6617,0.0,0.0,0.0,0.0,0.0,0.0,0.0,0.0,0.0,0.0,0.0,0.0,0.0,0.0,0.0,0.0,0.0,0.0,0.0,0.0,0.0,0.0,0.0,0.0,0.0,0.0,0.0,0.0,0.0,0.0,0.0,0.0,0.0,0.0,0.0,0.0,0.0,0.0,0.0,0.0,0.0,0.0,0.0,0.0,0.0,0.0,0.0,0.0,0.0,0.0,0.0,0.0,0.0,0.0,0.0,2.8077,3.0585,3.4325,3.7243,3.9313,4.0595,4.0973,4.0386,3.7006,3.4324,0.0,0.0,0.0,0.0,0.0,0.0,0.0,0.0,0.0,0.0,0.0,0.0,0.0,0.0,0.0,0.0,0.0,0.0,0.0,0.0,0.0,0.0,0.0,0.0,0.0,0.0,0.0,0.0,0.0,0.0,0.0,0.0,0.0,0.0,0.0,0.0,0.0,0.0,0.0,0.0,0.0,0.0,2.8459,2.7886,0.0,0.0,0.0,2.8745,2.7906,0.0,0.0,0.0,0.0,0.0,0.0,0.0,0.0,0.0,0.0,0.0,0.0,0.0,0.0,0.0,0.0,0.0,0.0,0.0,0.0,0.0,0.0,0.0,0.0,0.0,0.0,0.0,0.0,0.0,0.0,0.0,0.0,0.0,0.0,0.0,0.0,0.0,0.0,0.0,0.0,0.0,0.0,0.0,0.0,0.0,0.0,0.0,0.0,0.0,0.0,0.0,0.0,0.0,0.0,0.0,0.0,0.0,3.1982,3.6512,3.9543,4.0931,4.2452,4.3007,4.2457,3.9347,0.0,0.0,0.0,0.0,0.0,0.0,0.0,0.0,0.0,0.0,0.0,0.0,0.0,0.0,0.0,0.0,0.0,0.0,0.0,0.0,0.0,0.0,0.0,0.0,0.0,0.0,0.0,1.3238,0.0,0.0,0.0,0.0,0.0,0.0,0.0,0.0,0.0,0.0,0.0,0.0,0.0,0.0,2.6747,3.0747,3.0094,3.0228,0.0,0.0,3.1014,3.008,3.1608,3.1821,0.0,0.0,0.0,0.0,0.0,0.0,0.0,0.0,0.0,0.0,0.0,0.0,0.0,0.0,0.0,0.0,0.0,0.0,0.0,0.0,0.0,0.0,0.0,0.0,0.0,0.0,0.0,0.0,0.0,0.0,0.0,0.0,0.0,0.0,0.0,0.0,0.0,0.0,0.0,0.0,0.0,0.0,0.0,0.0,0.0,0.0,0.0,0.0,0.0,0.0,0.0,0.0,0.0,0.0,0.0,3.4017,3.772,4.0902,4.3455,4.4169,4.4434,4.4359,4.1697,3.898,0.0,0.0,0.0,0.0,0.0,0.0,0.0,0.0,0.0,0.0,0.0,0.0,0.0,0.0,0.0,0.0,0.0,0.0,0.0,0.0,0.0,0.0,0.0,0.0,0.0,0.0,0.0,0.0,0.0,0.0,0.0,0.0,0.0,0.0,0.0,0.0,0.0,0.0,0.0,0.0,0.0,3.067,3.2912,3.3898,3.515,0.0,0.0,3.4546,3.6268,3.5907,3.4563,3.1973,0.0,0.0,0.0,0.0,0.0,0.0,0.0,0.0,0.0,0.0,0.0,0.0,0.0,0.0,0.0,0.0,0.0,0.0,0.0,0.0,0.0,0.0,0.0,0.0,0.0,0.0,0.0,0.0,0.0,0.0,0.0,0.0,0.0,0.0,0.0,0.0,0.0,0.0,0.0,0.0,0.0,0.0,0.0,0.0,0.0,0.0,0.0,0.0,0.0,0.0,0.0,0.0,0.0,3.2724,3.5248,3.9507,4.2907,4.5217,4.5547,4.5673,4.5643,4.3,4.025,0.0,0.0,0.0,0.0,0.0,0.0,0.0,0.0,0.0,0.0,0.0,0.0,0.0,0.0,0.0,0.0,0.0,0.0,0.0,0.0,0.0,0.0,0.0,0.0,0.0,0.0,0.0,0.0,1.6937,1.7431,1.7477,0.0,0.0,0.0,0.0,0.0,0.0,0.0,0.0,0.0,0.0,3.2136,3.5452,3.5951,0.0,0.0,3.8341,3.7502,3.6908,3.7567,3.7017,3.3684,3.1915,0.0,0.0,0.0,0.0,0.0,0.0,0.0,0.0,0.0,0.0,0.0,0.0,0.0,0.0,0.0,0.0,0.0,0.0,0.0,0.0,0.0,0.0,0.0,0.0,0.0,0.0,0.0,0.0,0.0,0.0,0.0,0.0,0.0,0.0,0.0,0.0,0.0,0.0,0.0,0.0,0.0,0.0,0.0,0.0,0.0,0.0,0.0,0.0,0.0,0.0,0.0,0.0,3.4371,3.6505,4.1108,4.4392,4.6276,4.6612,4.6712,4.6486,4.4493,4.2021,0.0,0.0,0.0,0.0,0.0,0.0,0.0,0.0,0.0,0.0,0.0,0.0,0.0,0.0,0.0,0.0,0.0,0.0,0.0,0.0,0.0,0.0,0.0,0.0,0.0,0.0,0.0,0.0,1.8352,1.8886,1.8974,0.0,0.0,0.0,0.0,0.0,0.0,0.0,0.0,0.0,0.0,3.4495,3.7494,3.7825,3.8371,4.0074,4.0035,3.9373,3.7998,3.8972,3.8919,3.5892,0.0,0.0,0.0,0.0,0.0,0.0,0.0,0.0,0.0,0.0,0.0,0.0,0.0,0.0,0.0,0.0,0.0,0.0,0.0,0.0,0.0,0.0,0.0,0.0,0.0,0.0,0.0,0.0,0.0,0.0,1.6637,0.0,0.0,0.0,0.0,0.0,0.0,0.0,0.0,0.0,0.0,0.0,0.0,0.0,0.0,0.0,0.0,0.0,0.0,0.0,0.0,0.0,0.0,3.5772,3.7978,4.2331,4.5156,4.6311,4.733,4.7616,4.7124,4.6512,4.4629,4.1264,0.0,0.0,0.0,0.0,0.0,0.0,0.0,0.0,0.0,0.0,0.0,0.0,0.0,0.0,0.0,0.0,0.0,0.0,0.0,0.0,0.0,0.0,0.0,0.0,0.0,0.0,1.7854,1.9308,2.0389,0.0,0.0,0.0,0.0,0.0,0.0,0.0,0.0,0.0,0.0,3.583,3.838,3.8829,3.9758,4.0581,4.121,4.0435,3.9909,4.0321,4.0436,4.0124,0.0,0.0,0.0,0.0,0.0,0.0,0.0,0.0,0.0,0.0,0.0,0.0,0.0,0.0,0.0,0.0,0.0,0.0,0.0,0.0,0.0,0.0,0.0,0.0,0.0,0.0,0.0,2.0938,2.0366,0.0,0.0,0.0,0.0,0.0,0.0,0.0,0.0,0.0,0.0,0.0,3.1237,3.1949,0.0,0.0,0.0,0.0,0.0,0.0,0.0,0.0,0.0,0.0,0.0,0.0,3.8015,3.9283,4.3474,4.6261,4.733,4.7732,4.8008,4.8209,4.6979,4.4554,4.0876,0.0,0.0,0.0,0.0,0.0,0.0,0.0,0.0,0.0,0.0,0.0,0.0,0.0,0.0,0.0,0.0,0.0,0.0,0.0,0.0,0.0,0.0,0.0,0.0,0.0,2.0389,0.0,0.0,0.0,0.0,0.0,0.0,0.0,0.0,0.0,0.0,0.0,3.2575,3.4993,3.7318,3.9188,4.0322,4.1128,4.2071,0.0,0.0,0.0,0.0,0.0,0.0,0.0,0.0,0.0,0.0,0.0,0.0,0.0,0.0,3.392,3.2365,3.2716,3.3333,3.3728,0.0,0.0,0.0,0.0,0.0,0.0,0.0,0.0,0.0,0.0,0.0,0.0,0.0,0.0,2.5098,0.0,2.5123,0.0,0.0,0.0,0.0,0.0,0.0,0.0,0.0,3.1963,3.3807,3.5677,3.6338,3.6566,0.0,3.6205,3.4126,0.0,0.0,0.0,0.0,0.0,0.0,0.0,0.0,3.9635,4.069,4.4719,4.7405,4.8435,4.8887,4.9163,4.9314,4.7732,4.5397,4.2333,4.0112,3.7487,0.0,0.0,0.0,0.0,0.0,0.0,0.0,0.0,0.0,0.0,0.0,0.0,0.0,0.0,0.0,0.0,0.0,0.0,0.0,0.0,0.0,0.0,0.0,2.372,0.0,0.0,0.0,0.0,0.0,0.0,0.0,0.0,0.0,3.0837,3.3163,3.5783,3.8003,3.9809,4.1066,4.1555,0.0,0.0,0.0,0.0,0.0,0.0,0.0,4.1003,3.9948,3.9923,4.0124,4.0261,4.0313,4.02,3.981,0.0,0.0,3.6672,3.6759,3.7324,3.75,3.7236,3.7237,3.8178,3.8241,3.8479,0.0,0.0,0.0,0.0,0.0,0.0,0.0,0.0,3.0456,2.9702,0.0,2.9613,0.0,0.0,0.0,0.0,0.0,3.1523,0.0,0.0,3.8449,4.0082,4.0672,4.0724,4.1013,4.1389,3.9959,3.9182,3.8943,3.6641,0.0,0.0,0.0,0.0,0.0,0.0,4.0652,4.24,4.6065,4.8494,4.959,5.0686,5.0971,5.0352,4.8796,4.7179,4.5587,4.3416,4.152,3.976,3.5641,0.0,0.0,0.0,0.0,0.0,0.0,0.0,0.0,0.0,0.0,0.0,0.0,0.0,0.0,0.0,0.0,0.0,0.0,0.0,0.0,2.667,0.0,0.0,0.0,0.0,0.0,0.0,0.0,0.0,0.0,0.0,3.4195,3.6062,3.8514,4.0918,0.0,0.0,0.0,0.0,4.3862,4.1866,4.149,4.1526,4.159,4.2445,4.3452,4.4428,0.0,0.0,4.478,4.3865,4.3266,4.324,4.4041,4.3575,4.0024,3.9421,3.9522,3.9986,4.0149,4.0186,4.0688,4.1428,4.1868,3.59,0.0,0.0,0.0,0.0,3.3158,3.3721,3.4654,3.5742,3.54,3.4165,3.5433,0.0,0.0,0.0,0.0,0.0,0.0,3.6709,3.9483,4.0515,4.2461,4.5192,4.5608,4.5859,4.5984,4.5547,4.5121,4.469,4.3622,4.073,3.62,0.0,0.0,0.0,0.0,4.3076,4.5146,4.7757,4.9464,5.0151,5.0912,5.0996,5.0427,4.9565,4.851,4.7255,4.5512,4.3592,4.1557,3.9132,0.0,0.0,0.0,0.0,0.0,0.0,0.0,0.0,0.0,0.0,0.0,0.0,0.0,0.0,0.0,0.0,0.0,0.0,0.0,2.8776,3.0634,3.1294,0.0,0.0,0.0,0.0,0.0,0.0,0.0,0.0,0.0,3.9751,3.9659,4.0047,0.0,0.0,4.2713,4.2249,4.3578,4.4665,4.4815,4.488,0.0,4.5884,4.5633,4.5472,4.5759,4.6602,4.7154,4.6988,4.738,4.7697,4.7697,4.7958,4.7757,4.6793,4.5533,4.4995,4.5407,4.5547,4.5748,4.6291,4.6567,4.6869,4.2278,4.0116,3.7179,3.6433,3.7168,3.7181,3.7695,3.8613,3.9745,3.9353,3.8031,3.9561,3.8839,3.65,3.6523,0.0,0.0,0.0,4.0773,4.3702,4.4161,4.5707,4.8027,4.8419,4.8686,4.8871,4.867,4.8535,4.8394,4.739,4.5221,4.1858,0.0,0.0,4.1667,4.3639,4.5497,4.7305,4.9464,5.0845,5.1364,5.195,5.1875,5.1105,5.0754,4.9967,4.8636,4.7672,4.61,4.3919,4.2034,3.966,0.0,0.0,0.0,0.0,0.0,0.0,0.0,0.0,0.0,0.0,0.0,2.294,2.2601,0.0,0.0,0.0,2.9725,3.1513,3.3079,3.4235,0.0,0.0,0.0,0.0,0.0,0.0,0.0,3.7713,4.0588,4.2847,4.3402,4.3288,4.331,4.3837,4.4457,4.4723,4.4497,0.0,4.7014,4.7255,4.7456,4.7832,4.846,4.841,4.841,4.8846,4.9448,4.985,4.99,5.0609,5.1127,5.1169,5.1284,5.1459,5.1678,5.0867,4.9865,4.9267,4.9311,4.9671,5.0388,5.0546,5.078,4.8058,4.7426,4.0673,3.8895,4.0505,4.0568,4.1067,4.1894,4.3063,4.2365,4.0585,4.2601,4.1878,3.9139,3.9102,0.0,4.2194,4.3628,4.5658,4.8184,4.8743,4.933,4.9933,4.9941,5.0218,5.0703,5.0193,5.0167,5.0578,4.9072,4.851,4.8928,4.6999,4.5667,4.5056,4.6446,4.7842,4.9053,5.1063,5.2385,5.3038,5.3532,5.3306,5.2327,5.2251,5.1473,4.9941,4.9766,4.8736,4.6652,4.4532,4.2598,4.0763,0.0,0.0,0.0,0.0,0.0,0.0,0.0,0.0,0.0,0.0,0.0,0.0,0.0,0.0,0.0,3.4234,0.0,3.7577,3.765,0.0,0.0,0.0,3.8843,3.9973,4.104,4.1918,4.2462,0.0,0.0,4.5763,4.6818,4.7732,4.8269,4.8636,4.8677,4.8143,4.9448,5.0243,4.9305,4.9656,5.0008,5.0299,5.1003,5.1892,5.2714,5.3124,5.305,5.3042,5.3315,5.3614,5.3597,5.3989,5.4407,5.4937,5.486,5.4441,5.2146,5.1919,5.235,5.3093,5.3288,5.3458,4.9188,4.9056,4.7274,4.6358,4.6019,4.6498,4.6807,4.705,4.7723,4.7717,4.7259,4.7799,4.7623,4.6882,4.6882,4.7181,4.7695,4.8065,4.9038,5.046,5.0636,5.1398,5.2703,5.2729,5.3047,5.3524,5.3022,5.2804,5.2879,5.2109,5.1373,5.0728,5.0435,4.945,4.7889,4.82,4.9355,5.1297,5.185,5.2779,5.4127,5.4321,5.427,5.4002,5.3557,5.2937,5.2134,5.1322,5.0243,4.8887,4.7481,4.5583,4.3112,4.0437,0.0,0.0,0.0,0.0,0.0,0.0,0.0,0.0,0.0,2.9816,2.9401,0.0,3.3536,0.0,3.7432,4.0002,4.148,4.1632,0.0,0.0,4.1895,4.2247,4.3324,4.4428,4.5156,4.5296,4.7129,4.8476,4.8611,5.0226,5.1605,5.2202,5.0619,4.9515,4.98,5.1256,5.2234,5.2093,5.278,5.3478,5.3729,5.4267,5.4729,5.4984,5.5035,5.5009,5.5035,5.5079,5.5191,5.5217,5.5645,5.6023,5.6194,5.6861,5.7379,5.6894,5.581,5.4825,5.5065,5.5125,5.5365,5.1055,5.1055,5.1071,5.0703,5.006,4.9439,4.9154,4.9179,4.948,4.959,4.9631,4.9866,5.0092,5.0343,5.036,5.0469,5.0695,5.0703,5.1297,5.2369,5.2352,5.2997,5.4102,5.4336,5.4762,5.529,5.4963,5.4938,5.5121,5.4619,5.4316,5.4148,5.4314,5.3817,5.2624,5.0874,5.0735,5.2287,5.3052,5.394,5.4898,5.4974,5.4604,5.3858,5.3532,5.2862,5.1833,5.1222,5.0268,4.8912,4.8243,4.6763,4.4292,4.2055,3.9973,0.0,0.0,0.0,0.0,0.0,0.0,0.0,0.0,0.0,0.0,0.0,3.735,3.8404,4.1078,4.3011,4.3639,4.3955,4.4407,4.511,4.5412,4.6014,4.7064,4.8193,4.8871,4.8871,5.0368,5.1423,5.1465,5.302,5.4407,5.4996,5.4143,5.3207,5.2733,5.3881,5.4897,5.4947,5.5852,5.6652,5.6869,5.7067,5.721,5.721,5.721,5.721,5.7228,5.7371,5.7461,5.7504,5.7888,5.8202,5.8228,5.8686,5.9224,5.9295,5.911,5.8516,5.7845,5.7728,5.8028,5.3113,5.3138,5.3113,5.3113,5.2988,5.1046,5.0209,5.0117,5.0234,5.0243,5.0268,5.0745,5.1222,5.1716,5.1716,5.1992,5.2402,5.252,5.3055,5.4009,5.411,5.4454,5.5049,5.5509,5.5968,5.642,5.642,5.6689,5.7178,5.6719,5.6907,5.764,5.7695,5.7546,5.7074,5.379,5.2402,5.2987,5.4543,5.5388,5.5555,5.5437,5.464,5.3213,5.3115,5.2353,5.087,5.067,4.9907,4.8382,4.819,4.7255,4.5332,4.3134,4.1528,0.0,3.804,0.0,0.0,0.0,0.0,0.0,0.0,0.0,0.0,3.9584,4.1066,4.2802,4.4748,4.5799,4.5482,4.5999,4.6944,4.836,4.9028,4.9773,5.0886,5.1892,5.258,5.2757,5.3663,5.4293,5.4345,5.5581,5.6652,5.7048,5.7717,5.7485,5.6198,5.6714,5.7471,5.7628,5.8478,5.8881,5.8969,5.9109,5.9139,5.9197,5.9131,5.9256,5.9157,5.9422,5.972,5.9712,5.9914,6.0219,6.0308,6.048,6.0741,6.084,6.1899,6.2262,6.0879,6.0656,6.1245,5.4278,5.4295,5.4278,5.4278,5.4228,5.3826,5.3374,5.2955,5.3449,5.3667,5.3667,5.3768,5.3851,5.3994,5.3969,5.4044,5.417,5.4579,5.5114,5.5767,5.6175,5.6702,5.7267,5.7374,5.7474,5.7575,5.76,5.7793,5.8223,5.8122,5.7843,5.7471,5.7724,5.7271,5.6144,0.0,0.0,0.0,5.5997,5.6486,5.649,5.5636,5.4888,5.4313,5.413,0.0,5.286,5.2152,5.1338,5.0374,4.9659,0.0,0.0,0.0,0.0,0.0,0.0,0.0,0.0,0.0,0.0,0.0,4.2883,4.2256,4.0887,4.2507,4.4554,4.6602,4.7647,4.8677,4.9933,5.0519,5.1147,5.1858,5.2059,5.2697,5.4102,5.4491,5.507,5.6279,5.7005,5.7414,5.7371,5.8356,5.8885,5.8705,5.9329,5.9534,5.8913,5.876,5.8793,5.8819,5.9352,5.9614,5.9588,5.9834,6.0059,5.9984,5.9984,6.001,6.0018,6.0128,6.0138,6.0201,6.0559,6.1027,6.1027,6.2254,6.3388,6.3423,6.461,6.4953,6.2637,6.3052,6.4072,5.6237,0.0,5.6237,5.6237,0.0,5.6237,5.6061,5.5742,5.5232,5.5308,5.5792,5.5792,5.5961,5.6212,5.6237,5.6237,5.6237,5.6733,5.6949,5.7066,5.7707,5.8085,5.8195,5.8661,5.8881,5.8907,5.9186,5.9382,5.959,5.9564,5.9509,5.9371,5.9536,5.9362,5.8898,5.9197,5.8516,5.6809,5.7436,5.7845,5.7918,5.7389,5.6713,5.5992,5.5873,0.0,0.0,0.0,0.0,0.0,0.0,0.0,0.0,0.0,0.0,4.7114,4.6286,4.5824,4.5864,4.6115,4.6728,4.7807,4.8394,4.7641,4.5181,4.7014,4.8746,4.9866,5.0494,5.1414,5.2746,5.3173,5.3745,5.4683,5.5097,5.5679,5.6563,5.6984,5.7396,5.809,5.8503,5.8709,5.8709,5.9511,5.9976,5.9879,6.0557,6.1003,6.0817,6.0405,6.0172,6.0475,6.0702,6.0825,6.0869,6.0955,6.1077,6.1084,6.1084,6.1084,6.1084,6.1676,6.2161,6.226,6.3,6.3713,6.3767,6.4596,6.5289,6.5413,6.6507,6.7135,6.575,6.5579,6.5859,5.7901,5.7901,5.7901,5.7901,5.7901,5.7901,5.7932,5.7951,0.0,0.0,0.0,5.7136,5.743,5.7901,5.7901,5.7957,5.8051,5.8465,5.8509,5.8271,5.9047,5.9204,5.8949,5.9664,6.0045,6.007,6.0487,6.0756,6.0832,6.0813,6.106,6.1457,6.1495,6.1665,6.1992,6.201,6.0884,5.876,5.8818,5.9042,5.9212,5.9013,5.8412,5.7408,5.7377,5.6924,5.6068,5.5547,5.4905,5.4039,5.345,5.2647,5.1548,5.0752,5.0024,4.9385,4.917,4.9289,4.9782,5.0234,5.0937,5.1942,5.3013,5.2536,5.0008,5.159,5.2729,5.2787,5.3314,5.4052,5.5038,5.5232,5.5779,5.7077,5.764,5.8111,5.8624,5.9065,5.9359,5.9569,5.9676,5.9613,5.9702,6.0305,6.0764,6.0872,6.142,6.2179,6.2231,6.1715,6.135,6.1708,6.1779,6.1939,6.2003,6.2261,6.2358,6.2421,6.2651,6.2778,6.2937,6.3774,6.4491,6.449,6.5644,6.6128,6.6356,6.6549,6.6775,6.6793,6.8026,6.9086,6.8985,6.8112,6.7696,5.7901,5.7901,5.7901,5.7901,5.7901,5.7901,5.8177,5.8535,5.7851,5.7643,5.7775,5.7775,5.7826,5.7901,5.7901,5.8083,5.842,5.8958,5.933,5.9645,6.02,6.0449,6.0392,6.0526,6.0589,6.0596,6.0673,6.0908,6.1249,6.1306,6.1514,6.1879,6.1917,6.1954,6.1992,6.201,6.1816,6.142,6.0201,5.9584,5.9599,5.865,5.7911,5.7418,5.7292,5.7098,5.6917,5.6189,5.5794,5.5865,5.4763,5.4589,5.5583,5.4058,5.3638,5.471,5.4111,5.3718,5.3768,5.3868,5.4152,5.4805,5.5799,5.5666,5.4019,5.4479,5.5114,5.5548,5.6043,5.6642,5.7235,5.7645,5.8098,5.8678,5.8854,5.9233,6.0068,6.0234,6.0605,6.1338,6.1607,6.1536,6.1446,6.1607,6.1734,6.1805,6.2234,6.2563,6.348,6.2744,6.1981,6.1984,6.201,6.201,6.2414,6.314,6.3774,6.3901,6.4869,6.5459,6.5496,6.5859,6.617,6.6131,6.6619,6.6714,6.6721,6.753,6.8312,6.8562,6.9662,7.0552,7.0581,7.0259,7.0216,5.9237,5.9382,5.9401,5.9401,5.9401,5.9427,5.9554,5.9763,5.9528,5.9288,5.9117,5.9332,5.9427,5.9427,5.9427,5.9515,5.9729,6.0186,6.039,6.0397,6.1063,6.1313,6.1117,6.1306,6.1427,6.1427,6.1401,6.1514,6.1684,6.1747,6.1823,6.201,6.201,6.201,6.201,6.201,6.201,6.201,6.1301,6.0947,6.094,6.0427,6.0093,5.9901,5.9807,5.975,5.975,5.9144,5.8758,5.8592,5.7785,5.7516,5.7877,5.7116,5.683,5.7214,5.7102,5.691,5.6623,5.6885,5.7146,5.74,5.8144,5.8278,5.7552,5.7224,5.7171,5.7424,5.7869,5.8326,5.8836,5.911,5.9541,6.028,6.0343,6.0596,6.1166,6.1319,6.1498,6.1921,6.201,6.201,6.201,6.201,6.2396,6.3011,6.3792,6.4781,6.5784,6.5389,6.4791,6.4482,6.4383,6.4383,6.4428,6.4923,6.536,6.5396,6.5945,6.6525,6.689,6.7522,6.8273,6.8744,6.9304,6.9865,6.9853,7.0438,7.0905,7.1023,7.142,7.1947,7.198,7.198,7.174,6.0431,6.0698,6.0698,6.0698,6.0698,6.0698,6.0698,6.0718,6.0813,6.0679,6.045,6.0622,6.0698,6.0698,6.0698,6.0756,6.0889,6.123,6.1249,6.1098,6.171,6.1841,6.1597,6.1965,6.2175,6.2201,6.2305,6.2377,6.2377,6.2358,6.2403,6.2384,6.2384,6.2403,6.2403,6.2384,6.2403,6.2384,6.2384,6.2253,6.201,6.201,6.201,6.201,6.1984,6.201,6.1992,6.1702,6.1306,6.088,6.0453,6.0079,5.9779,5.956,5.9343,5.905,5.9292,5.9287,5.8921,5.9236,5.9448,5.9474,5.9858,6.007,6.0026,5.9517,5.9112,5.9056,5.9262,5.9672,6.0099,6.0221,6.0596,6.1405,6.1533,6.162,6.1954,6.2284,6.256,6.2677,6.2982,6.3343,6.3421,6.3447,6.4029,6.5172,6.6424,6.7548,6.8032,6.8357,6.8391,6.7921,6.7339,6.6809,6.6865,6.722,6.7406,6.7385,6.7796,6.84,6.8935,6.9787,7.0475,7.109,7.1935,7.2423,7.278,7.2797,7.2734,7.2624,7.2678,7.2817,7.2757,7.2804,7.2595,6.0679,6.0698,6.0762,6.0698,6.0762,6.0762,6.0788,6.0819,6.1136,6.1325,6.1308,6.087,6.0762,6.0698,6.0737,6.0972,6.1332,6.1382,6.1604,6.1894,6.1954,6.1973,6.204,6.2484,6.2738,6.279,6.3227,6.343,6.343,6.3482,6.3534,6.3534,6.3534,6.3508,6.3508,6.3508,6.3534,6.3534,6.3534,6.3037,6.2089,6.201,6.201,6.201,6.2037,6.201,6.2044,6.1973,6.1909,6.1838,6.1481,6.1391,6.1584,6.0974,6.0728,6.1047,6.074,6.0538,6.048,6.0538,6.0532,6.0564,6.0627,6.0679,6.0723,6.0957,6.0943,6.064,6.0538,6.074,6.1191,6.1247,6.1476,6.1972,6.2002,6.1954,6.2314,6.3177,6.4236,6.486,6.5882,6.7092,6.7195,6.7369,6.7687,6.7754,6.9103,7.0124,7.0413,7.1246,7.1981,7.1626,7.0136,6.8566,6.8528,6.9443,6.9974,7.0256,7.1334,7.1736,7.1897,7.212,7.266,7.2608,7.2822,7.307,7.3073,7.2924,7.2997,7.3193,7.3163,7.2967,7.2924,7.3043,7.2924,6.1437,6.1938,6.1938,6.2138,6.2443,6.2469,6.2469,6.2507,6.266,6.2756,6.2737,6.2545,6.2106,6.1509,6.1801,6.2052,6.2249,6.2581,6.2832,6.2985,6.3011,6.2985,6.3037,6.3201,6.3332,6.3332,6.3587,6.3691,6.3691,6.3691,6.3691,6.3691,6.3691,6.3691,6.3691,6.3691,6.3691,6.3691,6.3691,6.3456,6.3064,6.2985,6.2985,6.303,6.303,6.2985,6.2985,6.3011,6.2828,6.2503,6.2318,6.2162,6.1992,6.1672,6.1559,6.1728,6.1552,6.1457,6.1457,6.1483,6.1613,6.1931,6.1957,6.2087,6.2443,6.266,6.266,6.2429,6.1891,6.1663,6.2152,6.2223,6.2429,6.2888,6.3011,6.3385,6.4394,6.4954,6.5764,6.6897,6.7583,6.8115,6.8494,6.9191,6.9679,6.9925,7.1042,7.2035,7.2514,7.3125,7.3604,7.3852,7.2941,7.1993,7.131,7.1518,7.1939,7.2074,7.2475,7.295,7.3432,7.3475,7.3565,7.3971,7.3971,7.3971,7.4168,7.4108,7.4091,7.4048,7.4078,7.4061,7.4091,7.4078,7.4078,6.2431,6.298,6.3071,6.3306,6.3691,6.3691,6.3691,6.3691,6.3691,6.3691,6.3691,6.3691,6.3266,6.2593,6.2888,6.3052,6.3123,6.3508,6.3691,6.3691,6.3691,6.3691,6.3717,6.3874,6.3907,6.3933,6.4109,6.4188,6.4162,6.4162,6.4162,6.4162,6.4162,6.4162,6.4162,6.4188,6.4162,6.4162,6.4162,6.4162,6.4162,6.4162,6.4005,6.3743,6.3691,6.3691,6.3691,6.3691,6.3508,6.3097,6.3025,6.2862,6.2488,6.2462,6.2481,6.2481,6.2481,6.2481,6.2481,6.2462,6.2645,6.2992,6.3052,6.3208,6.3567,6.3691,6.3691,6.3613,6.3332,6.325,6.2985,6.3444,6.3895,6.4322,6.4653,6.5514,6.654,6.701,6.7886,6.9034,6.9802,7.0023,7.0279,7.1232,7.1962,7.2083,7.2786,7.3582,7.4048,7.4163,7.4347,7.4796,7.4822,7.4429,7.3642,7.3417,7.3432,7.3445,7.3535,7.3732,7.4108,7.4168,7.4197,7.4497,7.4796,7.4856,7.4646,7.4766,7.4856,7.4886,7.4856,7.4826,7.4706,7.4826,7.4856,6.3639,6.3665,6.3665,6.3717,6.3717,6.3743,6.3743,6.3822,6.377,6.3743,6.3796,6.377,6.3691,6.3632,6.3691,6.3665,6.3665,6.3743,6.3796,6.3796,6.377,6.3717,6.3743,6.4201,6.4469,6.4515,6.5005,6.5286,6.5312,6.5312,6.5338,6.5338,6.5338,6.5318,6.5338,6.5338,6.5318,6.5338,6.5338,6.5338,6.5338,6.5338,6.4842,6.4005,6.3743,6.3796,6.377,6.3717,6.3691,6.3665,6.3646,6.3639,6.3587,6.356,6.3534,6.356,6.3587,6.3587,6.356,6.3604,6.3663,6.3658,6.3774,6.373,6.3867,6.4022,6.4099,6.384,6.5229,6.5394,6.4413,6.5316,6.5964,6.6184,6.7322,6.805,6.8319,6.9543,7.0674,7.1482,7.2485,7.3238,7.4223,7.4642,7.4407,7.439,7.4638,7.4736,7.4706,7.4796,7.4826,7.4856,7.4886,7.4856,7.4766,7.4497,7.4557,7.4527,7.4377,7.4676,7.4796,7.4856,7.4886,7.4856,7.4886,7.4886,7.4886,7.4886,7.4886,7.4886,7.4886,7.4886,7.4886,7.4886,7.4886,6.3907,6.4247,6.4613,6.4789,6.4789,6.4789,6.4789,6.4789,6.4809,6.477,6.4789,6.4789,6.4789,6.4789,6.4789,6.456,6.4254,6.4606,6.4789,6.4789,6.4789,6.4789,6.4815,6.5005,6.5083,6.5162,6.5678,6.6175,6.6489,6.6489,6.6489,6.6469,6.6469,6.6489,6.6489,6.6489,6.6469,6.6489,6.6515,6.6489,6.6503,6.6469,6.6259,6.5887,6.5155,6.4789,6.4789,6.4789,6.4606,6.4201,6.4201,6.4064,6.3743,6.3691,6.3691,6.3691,6.3691,6.3691,6.3807,6.468,6.4915,6.4343,6.5192,6.5493,6.5114,6.5698,6.6328,6.6588,6.7746,6.8224,6.8038,6.805,6.8299,6.8688,6.914,6.9969,7.0829,7.1553,7.2304,7.3445,7.4288,7.4629,7.4796,7.4886,7.4886,7.4886,7.4886,7.4886,7.4886,7.4886,7.4886,7.4886,7.4886,7.4886,7.4886,7.4886,7.4886,7.4856,7.4856,7.4826,7.4886,7.4886,7.4886,7.4886,7.4886,7.4886,7.4886,7.4886,7.4886,7.4886,7.4886,7.4886,7.4886,7.4886,7.4886,6.4456,6.4802,6.5214,6.5417,6.5417,6.5417,6.5521,6.5678,6.5704,6.5783,6.5913,6.594,6.594,6.5966,6.5966,6.5737,6.5351,6.5397,6.5417,6.5417,6.56,6.5704,6.573,6.5887,6.5966,6.6112,6.6952,6.7354,6.7186,6.7657,6.7637,6.711,6.7116,6.7116,6.7177,6.7616,6.7892,6.7952,6.8426,6.8526,6.8013,6.7892,6.7616,6.7067,6.6358,6.5861,6.5704,6.5678,6.5397,6.4881,6.4776,6.4847,6.4983,6.5026,6.5249,6.5681,6.5814,6.5776,6.5871,6.6787,6.7091,6.6446,6.7463,6.7915,6.7398,6.8429,6.9075,6.9494,7.0576,7.1512,7.1565,7.1626,7.1535,7.1172,7.1325,7.2057,7.3082,7.3258,7.3777,7.4517,7.4775,7.4886,7.4886,7.4886,7.4886,7.4886,7.4886,7.4886,7.4886,7.4886,7.4886,7.4886,7.4886,7.4886,7.4886,7.4886,7.4886,7.4886,7.4886,7.4886,7.4886,7.4886,7.4886,7.4886,7.4886,7.4886,7.4886,7.4886,7.4886,7.4886,7.4886,7.4886,7.4886,7.4886,7.4886,6.5417,6.5469,6.5443,6.5547,6.5574,6.5574,6.5809,6.6253,6.6306,6.6541,6.6855,6.7012,6.6907,6.7012,6.6907,6.7012,6.673,6.5992,6.56,6.5646,6.623,6.64,6.6332,6.6724,6.7121,6.7376,6.8864,6.8831,6.7876,6.9071,6.9091,6.7675,6.7754,6.7989,6.7392,6.9091,6.9742,7.0024,7.1114,7.1136,6.9868,6.9769,6.9151,6.7762,6.7522,6.7319,6.6659,6.6526,6.6363,6.5878,6.5687,6.6237,6.7453,6.7772,6.8442,6.9504,6.9885,6.9959,6.9904,7.0025,7.0117,6.983,7.0623,7.0904,7.0668,7.138,7.1907,7.2105,7.3317,7.4376,7.4547,7.5347,7.5182,7.3261,7.3786,7.463,7.4812,7.4877,7.4929,7.5035,7.5125,7.4963,7.4963,7.5125,7.5185,7.5185,7.5065,7.5035,7.5035,7.4976,7.4886,7.4886,7.4886,7.4886,7.4886,7.4886,7.4886,7.4886,7.4886,7.4886,7.4886,7.4886,7.4886,7.4886,7.4886,7.4886,7.4886,7.4886,7.4886,7.4886,7.4886,7.4886,7.4886,7.4886,7.4886,6.6547,6.6567,6.6567,6.6593,6.6567,6.6547,6.6698,6.6855,6.6861,6.6965,6.709,6.7116,6.7116,6.7137,6.7116,6.7157,6.709,6.6724,6.6587,6.6875,6.7947,6.7927,6.7144,6.7078,6.7949,6.9501,7.1147,7.1914,7.1769,7.2197,7.2166,7.1792,7.1627,7.1714,7.154,7.2244,7.2498,7.2556,7.2975,7.2964,7.2517,7.247,7.2205,7.1792,7.1714,7.1478,7.09,6.9422,6.9077,6.9821,6.8907,6.8543,6.9121,7.0137,7.0956,7.1362,7.1475,7.1475,7.1644,7.2453,7.2601,7.2027,7.2681,7.2748,7.2123,7.3069,7.375,7.3935,7.5139,7.6094,7.6183,7.6461,7.6335,7.5566,7.5888,7.6155,7.6125,7.6155,7.6198,7.6198,7.6198,7.6198,7.6185,7.6185,7.6096,7.6066,7.5826,7.5587,7.5527,7.5245,7.4916,7.4886,7.4886,7.5065,7.5185,7.5258,7.5275,7.5155,7.5065,7.4916,7.4886,7.4886,7.4886,7.4886,7.4886,7.4886,7.4886,7.4886,7.4886,7.4886,7.4886,7.4886,7.4886,7.4886,7.4886,6.8936,6.8936,6.8936,6.8963,6.8982,6.8956,6.909,6.9278,6.9285,6.942,6.9601,6.9608,6.9588,6.9588,6.9588,6.9588,6.9668,7.0171,7.0178,6.9594,6.9558,6.9623,6.9299,6.9527,7.0202,7.1749,7.34,7.402,7.3827,7.4397,7.4416,7.3894,7.3797,7.3711,7.3894,7.4436,7.4724,7.4782,7.5354,7.5354,7.4858,7.4724,7.4436,7.3914,7.3797,7.3949,7.4041,7.2803,7.2057,7.196,7.1035,7.0785,7.14,7.2434,7.323,7.3748,7.3859,7.3877,7.3961,7.4762,7.4994,7.4284,7.5017,7.5345,7.4661,7.5484,7.6072,7.6271,7.6973,7.7562,7.7556,7.7544,7.7544,7.7544,7.7,7.6856,7.6826,7.6826,7.6796,7.6736,7.6766,7.6826,7.6826,7.6826,7.6826,7.6736,7.6467,7.6228,7.6138,7.5916,7.5677,7.5587,7.5736,7.5796,7.5677,7.5677,7.5647,7.5467,7.5305,7.5065,7.4886,7.4886,7.4886,7.4886,7.4886,7.4886,7.4886,7.4886,7.4886,7.4886,7.4886,7.4886,7.4886,7.4886,7.4886,7.2159,7.2169,7.2178,7.2034,7.2015,7.1996,7.219,7.2793,7.2811,7.2917,7.3376,7.3133,7.3373,7.3557,7.3027,7.3075,7.3877,7.4505,7.4448,7.3255,7.2216,7.1693,7.2422,7.3066,7.3562,7.4053,7.5562,7.5638,7.4782,7.5818,7.5667,7.4609,7.459,7.4204,7.4782,7.5762,7.6448,7.6635,7.7821,7.7729,7.6475,7.6448,7.5837,7.4455,7.4474,7.5059,7.6089,7.6077,7.4959,7.2802,7.2717,7.3366,7.4253,7.4645,7.5464,7.6587,7.687,7.6753,7.6834,7.6789,7.68,7.6718,7.717,7.7843,7.7533,7.7789,7.8201,7.8297,7.8507,7.8669,7.8639,7.8657,7.8657,7.8627,7.7771,7.7185,7.6976,7.7035,7.7155,7.7095,7.6946,7.6946,7.7125,7.7095,7.7095,7.7065,7.7006,7.6886,7.6826,7.6706,7.6766,7.6647,7.6437,7.6377,7.6215,7.6215,7.6185,7.6048,7.5826,7.5527,7.5125,7.5035,7.4886,7.4886,7.4886,7.4886,7.4886,7.4886,7.4886,7.4886,7.4886,7.4886,7.4886,7.4886,7.4916,7.3358,7.3358,7.3358,7.3358,7.3358,7.3358,7.3453,7.3602,7.366,7.3871,7.3847,7.3797,7.3991,7.3836,7.3894,7.3797,7.4165,7.4436,7.5107,7.5525,7.5163,7.419,7.4055,7.5021,7.5648,7.5894,7.7155,7.7894,7.7534,7.7766,7.7755,7.7516,7.7221,7.735,7.7656,7.7802,7.8143,7.8179,7.847,7.8644,7.8234,7.8058,7.7949,7.759,7.7369,7.7571,7.8095,7.8131,7.7281,7.5535,7.6435,7.6546,7.6034,7.6854,7.7646,7.8017,7.822,7.825,7.822,7.822,7.822,7.828,7.834,7.8567,7.8519,7.8669,7.8789,7.8789,7.8789,7.8789,7.8789,7.8789,7.8789,7.8777,7.837,7.816,7.819,7.828,7.828,7.828,7.8202,7.816,7.816,7.816,7.816,7.81,7.7831,7.7544,7.7484,7.7245,7.7155,7.6916,7.6719,7.6766,7.6736,7.6736,7.6736,7.6676,7.6467,7.6258,7.5736,7.5288,7.5095,7.4886,7.4886,7.4886,7.4886,7.4886,7.4886,7.4886,7.4886,7.4886,7.4916,7.4933,7.4916,7.5894,7.5913,7.5913,7.5894,7.5913,7.5894,7.5894,7.5913,7.5894,7.5913,7.5894,7.5894,7.5913,7.5913,7.5931,7.5913,7.5913,7.5913,7.6486,7.7166,7.7313,7.6773,7.6344,7.7055,7.7369,7.7424,7.8306,7.8698,7.8717,7.8789,7.8789,7.868,7.8789,7.8789,7.8644,7.8789,7.8789,7.8771,7.8789,7.8789,7.8789,7.8789,7.8771,7.8789,7.8789,7.8789,7.8789,7.8789,7.8288,7.77,7.8186,7.8325,7.7571,7.8234,7.8789,7.8789,7.8789,7.8759,7.8789,7.8789,7.8789,7.8789,7.8789,7.8789,7.8759,7.8789,7.8789,7.8789,7.8789,7.8789,7.8789,7.8789,7.8789,7.8789,7.8789,7.8789,7.8789,7.8729,7.8789,7.8789,7.8789,7.8789,7.8789,7.8789,7.8789,7.8699,7.843,7.828,7.819,7.7801,7.7562,7.7454,7.7484,7.7604,7.7682,7.7682,7.7622,7.7514,7.7215,7.6976,7.6467,7.5856,7.5497,7.5305,7.5065,7.4946,7.5035,7.5035,7.4886,7.4886,7.4886,7.4946,7.5006,7.5305,7.5245,7.8789,7.8789,7.8789,7.8789,7.8662,7.8753,7.8433,7.8698,7.847,7.8488,7.8488,7.868,7.8306,7.8789,7.8149,7.8626,7.8608,7.827,7.847,7.859,7.859,7.8379,7.8306,7.8325,7.8488,7.8572,7.8753,7.8789,7.8789,7.8789,7.8789,7.8789,7.8789,7.8789,7.8789,7.8789,7.8789,7.8789,7.8789,7.8789,7.8789,7.8789,7.8789,7.8789,7.8789,7.8789,7.8789,7.8789,7.8698,7.8771,7.8789,7.8735,7.8698,7.8771,7.8789,7.8789,7.8789,7.8789,7.8789,7.8789,7.8789,7.8789,7.8789,7.8789,7.8789,7.8789,7.8789,7.8789,7.8789,7.8789,7.8789,7.8789,7.8789,7.8789,7.8789,7.8789,7.8789,7.8789,7.8789,7.8789,7.8789,7.8789,7.8789,7.8789,7.8789,7.8789,7.8639,7.8609,7.8549,7.84,7.834,7.84,7.8489,7.8639,7.8639,7.8639,7.8579,7.846,7.8071,7.7741,7.7263,7.6724,7.6245,7.5916,7.5796,7.5617,7.5484,7.5365,7.5215,7.5318,7.5617,7.5425,7.5245,7.5766,7.5929,7.8789,7.8789,7.8789,7.8789,7.8789,7.8789,7.8789,7.8789,7.8789,7.8789,7.8789,7.8789,7.8789,7.8789,7.8789,7.8789,7.8789,7.8789,7.8789,7.8789,7.8789,7.8789,7.8789,7.8789,7.8789,7.8789,7.8789,7.8789,7.8789,7.8789,7.8789,7.8789,7.8789,7.8789,7.8789,7.8789,7.8789,7.8789,7.8789,7.8789,7.8789,7.8789,7.8789,7.8789,7.8789,7.8789,7.8789,7.8789,7.8789,7.8789,7.8789,7.8789,7.8789,7.8789,7.8789,7.8789,7.8789,7.8789,7.8789,7.8789,7.8789,7.8789,7.8789,7.8789,7.8789,7.8789,7.8789,7.8789,7.8789,7.8789,7.8789,7.8789,7.8789,7.8789,7.8789,7.8789,7.8789,7.8789,7.8789,7.8789,7.8789,7.8789,7.8789,7.8789,7.8789,7.8789,7.8789,7.8789,7.8789,7.8789,7.8789,7.8789,7.8789,7.8789,7.8789,7.8789,7.8789,7.8789,7.8549,7.837,7.7921,7.7502,7.6993,7.6706,7.6539,7.6317,7.6006,7.6185,7.6155,7.6258,7.6258,7.6125,7.6096,7.6437,7.6479,7.8789,7.8789,7.8789,7.8789,7.8789,7.8789,7.8789,7.8789,7.8789,7.8789,7.8789,7.8789,7.8789,7.8789,7.8789,7.8789,7.8789,7.8789,7.8789,7.8789,7.8789,7.8789,7.8789,7.8789,7.8789,7.8789,7.8789,7.8789,7.8789,7.8789,7.8789,7.8789,7.8789,7.8789,7.8789,7.8789,7.8789,7.8789,7.8789,7.8789,7.8789,7.8789,7.8789,7.8789,7.8789,7.8789,7.8789,7.8789,7.8789,7.8789,7.8789,7.8789,7.8789,7.8789,7.8789,7.8789,7.8789,7.8789,7.8789,7.8789,7.8789,7.8789,7.8789,7.8789,7.8789,7.8789,7.8789,7.8789,7.8789,7.8789,7.8789,7.8789,7.8789,7.8789,7.8789,7.8789,7.8789,7.8789,7.8789,7.8789,7.8789,7.8789,7.8789,7.8789,7.8789,7.8789,7.8789,7.8789,7.8789,7.8789,7.8789,7.8789,7.8789,7.8789,7.8789,7.8789,7.8789,7.8789,7.8729,7.8639,7.846,7.81,7.7694,7.7454,7.7155,7.6796,7.6574,7.6796,7.6916,7.6706,7.6647,7.6766,7.6916,7.7065,7.6928,7.8789,7.8789,7.8789,7.8789,7.8789,7.8789,7.8789,7.8789,7.8789,7.8789,7.8789,7.8789,7.8789,7.8789,7.8789,7.8789,7.8789,7.8789,7.8789,7.8789,7.8789,7.8789,7.8789,7.8789,7.8789,7.8789,7.8789,7.8789,7.8789,7.8789,7.8789,7.8789,7.8789,7.8789,7.8789,7.8789,7.8789,7.8789,7.8789,7.8789,7.8789,7.8789,7.8789,7.8789,7.8789,7.8789,7.8789,7.8789,7.8789,7.8789,7.8789,7.8789,7.8789,7.8789,7.8789,7.8789,7.8789,7.8789,7.8789,7.8789,7.8789,7.8789,7.8789,7.8789,7.8789,7.8789,7.8789,7.8789,7.8789,7.8789,7.8789,7.8789,7.8789,7.8789,7.8789,7.8789,7.8789,7.8789,7.8789,7.8789,7.8789,7.8789,7.8789,7.8789,7.8789,7.8789,7.8789,7.8789,7.8789,7.8789,7.8789,7.8789,7.8789,7.8789,7.8789,7.8789,7.8789,7.8789,7.8789,7.8789,7.8789,7.8549,7.819,7.7981,7.7682,7.7394,7.7275,7.7484,7.7454,7.7108,7.7215,7.7544,7.7634,7.7664,7.7484,7.8789,7.8789,7.8789,7.8789,7.8789,7.8789,7.8789,7.8789,7.8789,7.8789,7.8789,7.8789,7.8789,7.8789,7.8789,7.8789,7.8789,7.8789,7.8789,7.8789,7.8789,7.8789,7.8789,7.8789,7.8789,7.8789,7.8789,7.8789,7.8789,7.8789,7.8789,7.8789,7.8789,7.8789,7.8789,7.8789,7.8789,7.8789,7.8789,7.8789,7.8789,7.8789,7.8789,7.8789,7.8789,7.8789,7.8789,7.8789,7.8789,7.8789,7.8789,7.8789,7.8789,7.8789,7.8789,7.8789,7.8789,7.8789,7.8789,7.8789,7.8789,7.8789,7.8789,7.8789,7.8789,7.8789,7.8789,7.8789,7.8789,7.8789,7.8789,7.8789,7.8789,7.8789,7.8789,7.8789,7.8789,7.8789,7.8789,7.8789,7.8789,7.8789,7.8789,7.8789,7.8789,7.8789,7.8789,7.8789,7.8789,7.8789,7.8789,7.8789,7.8789,7.8789,7.8789,7.8789,7.8789,7.8789,7.8789,7.8789,7.8789,7.8789,7.8609,7.837,7.834,7.831,7.828,7.825,7.819,7.7993,7.819,7.84,7.831,7.822,7.8394,7.8789,7.8789,7.8789,7.8789,7.8789,7.8789,7.8789,7.8789,7.8789,7.8789,7.8789,7.8789,7.8789,7.8789,7.8789,7.8789,7.8789,7.8789,7.8789,7.8789,7.8789,7.8789,7.8789,7.8789,7.8789,7.8789,7.8789,7.8789,7.8789,7.8789,7.8789,7.8789,7.8789,7.8789,7.8789,7.8789,7.8789,7.8789,7.8789,7.8789,7.8789,7.8789,7.8789,7.8789,7.8789,7.8789,7.8789,7.8789,7.8789,7.8789,7.8789,7.8789,7.8789,7.8789,7.8789,7.8789,7.8789,7.8789,7.8789,7.8789,7.8789,7.8789,7.8789,7.8789,7.8789,7.8789,7.8789,7.8789,7.8789,7.8789,7.8789,7.8789,7.8789,7.8789,7.8789,7.8789,7.8789,7.8789,7.8789,7.8789,7.8789,7.8789,7.8789,7.8789,7.8789,7.8789,7.8789,7.8789,7.8789,7.8789,7.8789,7.8789,7.8789,7.8789,7.8789,7.8789,7.8789,7.8789,7.8789,7.8789,7.8789,7.8789,7.8789,7.8669,7.8759,7.8789,7.8729,7.8519,7.8699,7.8807,7.8705,7.8663,7.8717,7.8807,7.8951,7.8789,7.8789,7.8789,7.8789,7.8789,7.8789,7.8789,7.8789,7.8789,7.8789,7.8789,7.8789,7.8789,7.8789,7.8789,7.8789,7.8789,7.8789,7.8789,7.8789,7.8789,7.8789,7.8789,7.8789,7.8789,7.8789,7.8789,7.8789,7.8789,7.8789,7.8789,7.8789,7.8789,7.8789,7.8789,7.8789,7.8789,7.8789,7.8789,7.8789,7.8789,7.8789,7.8789,7.8789,7.8789,7.8789,7.8789,7.8789,7.8789,7.8789,7.8789,7.8789,7.8789,7.8789,7.8789,7.8789,7.8789,7.8789,7.8789,7.8789,7.8789,7.8789,7.8789,7.8789,7.8789,7.8789,7.8789,7.8789,7.8789,7.8789,7.8789,7.8789,7.8789,7.8789,7.8789,7.8789,7.8789,7.8789,7.8789,7.8789,7.8789,7.8789,7.8789,7.8789,7.8789,7.8789,7.8789,7.8789,7.8789,7.8789,7.8789,7.8789,7.8789,7.8789,7.8789,7.8789,7.8789,7.8789,7.8789,7.8789,7.8789,7.8789,7.8789,7.8789,7.8789,7.8789,7.8789,7.8807,7.8789,7.8825,7.8861,7.8951,7.9023,7.9166,7.9315,7.8789,7.8789,7.8789,7.8789,7.8789,7.8789,7.8789,7.8789,7.8789,7.8789,7.8789,7.8789,7.8789,7.8789,7.8789,7.8789,7.8789,7.8789,7.8789,7.8789,7.8789,7.8789,7.8789,7.8789,7.8789,7.8789,7.8789,7.8789,7.8789,7.8789,7.8789,7.8789,7.8789,7.8789,7.8789,7.8789,7.8789,7.8789,7.8789,7.8789,7.8789,7.8789,7.8789,7.8789,7.8789,7.8789,7.8789,7.8789,7.8789,7.8789,7.8789,7.8789,7.8789,7.8789,7.8789,7.8789,7.8789,7.8789,7.8789,7.8789,7.8789,7.8789,7.8789,7.8789,7.8789,7.8789,7.8789,7.8789,7.8789,7.8789,7.8789,7.8789,7.8789,7.8789,7.8789,7.8789,7.8789,7.8789,7.8789,7.8789,7.8789,7.8789,7.8789,7.8789,7.8789,7.8789,7.8789,7.8789,7.8789,7.8789,7.8789,7.8789,7.8789,7.8789,7.8789,7.8789,7.8789,7.8789,7.8789,7.8789,7.8789,7.8789,7.8789,7.8789,7.8807,7.8861,7.8915,7.8915,7.8825,7.8897,7.9058,7.9202,7.9327,7.9505,7.9653,7.8789,7.8789,7.8789,7.8789,7.8789,7.8789,7.8789,7.8789,7.8789,7.8789,7.8789,7.8789,7.8789,7.8789,7.8789,7.8789,7.8789,7.8789,7.8789,7.8789,7.8789,7.8789,7.8789,7.8789,7.8789,7.8789,7.8789,7.8789,7.8789,7.8789,7.8789,7.8789,7.8789,7.8789,7.8789,7.8789,7.8789,7.8789,7.8789,7.8789,7.8789,7.8789,7.8789,7.8789,7.8789,7.8789,7.8789,7.8789,7.8789,7.8789,7.8789,7.8789,7.8789,7.8789,7.8789,7.8789,7.8789,7.8789,7.8789,7.8789,7.8789,7.8789,7.8789,7.8789,7.8789,7.8789,7.8789,7.8789,7.8789,7.8789,7.8789,7.8789,7.8789,7.8789,7.8789,7.8789,7.8789,7.8789,7.8789,7.8789,7.8789,7.8789,7.8789,7.8789,7.8789,7.8789,7.8789,7.8789,7.8789,7.8789,7.8789,7.8789,7.8789,7.8789,7.8789,7.8789,7.8789,7.8789,7.8789,7.8789,7.8789,7.8789,7.8789,7.8807,7.8807,7.8897,7.9023,7.9005,7.8933,7.9076,7.9273,7.947,7.9665,7.9754,7.9918,7.8789,7.8789,7.8789,7.8789,7.8789,7.8789,7.8789,7.8789,7.8789,7.8789,7.8789,7.8789,7.8789,7.8789,7.8789,7.8789,7.8789,7.8789,7.8789,7.8789,7.8789,7.8789,7.8789,7.8789,7.8789,7.8789,7.8789,7.8789,7.8789,7.8789,7.8789,7.8789,7.8789,7.8789,7.8789,7.8789,7.8789,7.8789,7.8789,7.8789,7.8789,7.8789,7.8789,7.8789,7.8789,7.8789,7.8789,7.8789,7.8789,7.8789,7.8789,7.8789,7.8789,7.8789,7.8789,7.8789,7.8789,7.8789,7.8789,7.8789,7.8789,7.8789,7.8789,7.8789,7.8789,7.8789,7.8789,7.8789,7.8789,7.8789,7.8789,7.8789,7.8789,7.8789,7.8789,7.8789,7.8789,7.8789,7.8789,7.8789,7.8789,7.8789,7.8789,7.8789,7.8789,7.8789,7.8789,7.8789,7.8789,7.8789,7.8789,7.8789,7.8789,7.8789,7.8789,7.8789,7.8789,7.8789,7.8789,7.8789,7.8789,7.8789,7.8789,7.8807,7.8861,7.9041,7.922,7.9112,7.9058,7.9398,7.9653,7.9812,7.9953,8.0059,8.0247,7.8789,7.8789,7.8789,7.8789,7.8789,7.8789,7.8789,7.8789,7.8789,7.8789,7.8789,7.8789,7.8789,7.8789,7.8789,7.8789,7.8789,7.8789,7.8789,7.8789,7.8789,7.8789,7.8789,7.8789,7.8789,7.8789,7.8789,7.8789,7.8789,7.8789,7.8789,7.8789,7.8789,7.8789,7.8789,7.8789,7.8789,7.8789,7.8789,7.8789,7.8789,7.8789,7.8789,7.8789,7.8789,7.8789,7.8789,7.8789,7.8789,7.8789,7.8789,7.8789,7.8789,7.8789,7.8789,7.8789,7.8789,7.8789,7.8789,7.8789,7.8789,7.8789,7.8789,7.8789,7.8789,7.8789,7.8789,7.8789,7.8789,7.8789,7.8789,7.8789,7.8789,7.8789,7.8789,7.8789,7.8789,7.8789,7.8789,7.8789,7.8789,7.8789,7.8789,7.8789,7.8789,7.8789,7.8789,7.8789,7.8789,7.8789,7.8789,7.8789,7.8789,7.8789,7.8789,7.8789,7.8789,7.8789,7.8789,7.8789,7.8789,7.8789,7.8789,7.8969,7.9076,7.9238,7.9434,7.9505,7.9617,7.9847,8.0059,8.0212,8.0405,8.0562,8.0701,7.8789,7.8789,7.8789,7.8789,7.8789,7.8789,7.8789,7.8789,7.8789,7.8789,7.8789,7.8789,7.8789,7.8789,7.8789,7.8789,7.8789,7.8789,7.8789,7.8789,7.8789,7.8789,7.8789,7.8789,7.8789,7.8789,7.8789,7.8789,7.8789,7.8789,7.8789,7.8789,7.8789,7.8789,7.8789,7.8789,7.8789,7.8789,7.8789,7.8789,7.8789,7.8789,7.8789,7.8789,7.8789,7.8789,7.8789,7.8789,7.8789,7.8789,7.8789,7.8789,7.8789,7.8789,7.8789,7.8789,7.8789,7.8789,7.8789,7.8789,7.8789,7.8789,7.8789,7.8789,7.8789,7.8789,7.8789,7.8789,7.8789,7.8789,7.8789,7.8789,7.8789,7.8789,7.8789,7.8789,7.8789,7.8789,7.8789,7.8789,7.8789,7.8789,7.8789,7.8789,7.8789,7.8789,7.8789,7.8789,7.8789,7.8789,7.8789,7.8789,7.8789,7.8789,7.8789,7.8789,7.8789,7.8789,7.8807,7.8843,7.8861,7.8789,7.8843,7.9041,7.9345,7.9594,7.9824,8.0019,8.0177,8.0317,8.0422,8.0527,8.0784,8.0992,8.1044,7.8789,7.8789,7.8789,7.8789,7.8789,7.8789,7.8789,7.8789,7.8789,7.8789,7.8789,7.8789,7.8789,7.8789,7.8789,7.8789,7.8789,7.8789,7.8789,7.8789,7.8789,7.8789,7.8789,7.8789,7.8789,7.8789,7.8789,7.8789,7.8789,7.8789,7.8789,7.8789,7.8789,7.8789,7.8789,7.8789,7.8789,7.8789,7.8789,7.8789,7.8789,7.8789,7.8789,7.8789,7.8789,7.8789,7.8789,7.8789,7.8789,7.8789,7.8789,7.8789,7.8789,7.8789,7.8789,7.8789,7.8789,7.8789,7.8789,7.8789,7.8789,7.8789,7.8789,7.8789,7.8789,7.8789,7.8789,7.8789,7.8789,7.8789,7.8789,7.8789,7.8789,7.8789,7.8789,7.8789,7.8789,7.8789,7.8789,7.8789,7.8789,7.8789,7.8789,7.8789,7.8789,7.8789,7.8789,7.8789,7.8789,7.8789,7.8789,7.8789,7.8789,7.8789,7.8789,7.8789,7.8789,7.8789,7.8825,7.8933,7.8933,7.8915,7.9094,7.9452,7.9736,7.9983,8.0195,8.0405,8.0545,8.0684,8.0754,8.0788,8.0875,8.1061,8.1079,7.8789,7.8789,7.8789,7.8789,7.8789,7.8789,7.8789,7.8789,7.8789,7.8789,7.8789,7.8789,7.8789,7.8789,7.8789,7.8789,7.8789,7.8789,7.8789,7.8789,7.8789,7.8789,7.8789,7.8789,7.8789,7.8789,7.8789,7.8789,7.8789,7.8789,7.8789,7.8789,7.8789,7.8789,7.8789,7.8789,7.8789,7.8789,7.8789,7.8789,7.8789,7.8789,7.8789,7.8789,7.8789,7.8789,7.8789,7.8789,7.8789,7.8789,7.8789,7.8789,7.8789,7.8789,7.8789,7.8789,7.8789,7.8789,7.8789,7.8789,7.8789,7.8789,7.8789,7.8789,7.8789,7.8789,7.8789,7.8789,7.8789,7.8789,7.8789,7.8789,7.8789,7.8789,7.8789,7.8789,7.8789,7.8789,7.8789,7.8789,7.8789,7.8789,7.8789,7.8789,7.8789,7.8789,7.8789,7.8789,7.8789,7.8789,7.8789,7.8789,7.8789,7.8789,7.8789,7.8789,7.8789,7.8807,7.8897,7.9041,7.9202,7.9291,7.9541,7.983,8.0089,8.0282,8.0545,8.0806,8.0858,8.0892,8.0962,8.1013,8.1065,8.1082,8.1082,7.8789,7.8789,7.8789,7.8789,7.8789,7.8789,7.8789,7.8789,7.8789,7.8789,7.8789,7.8789,7.8789,7.8789,7.8789,7.8789,7.8789,7.8789,7.8789,7.8789,7.8789,7.8789,7.8789,7.8789,7.8789,7.8789,7.8789,7.8789,7.8789,7.8789,7.8789,7.8789,7.8789,7.8789,7.8789,7.8789,7.8789,7.8789,7.8789,7.8789,7.8789,7.8789,7.8789,7.8789,7.8789,7.8789,7.8789,7.8789,7.8789,7.8789,7.8789,7.8789,7.8789,7.8789,7.8789,7.8789,7.8789,7.8789,7.8789,7.8789,7.8789,7.8789,7.8789,7.8789,7.8789,7.8789,7.8789,7.8789,7.8789,7.8789,7.8789,7.8789,7.8789,7.8789,7.8789,7.8789,7.8789,7.8789,7.8789,7.8789,7.8789,7.8789,7.8789,7.8789,7.8789,7.8789,7.8789,7.8789,7.8789,7.8789,7.8789,7.8789,7.8789,7.8789,7.8789,7.8789,7.8861,7.8897,7.9058,7.9255,7.9434,7.9647,7.993,8.0247,8.0405,8.058,8.0788,8.0944,8.1013,8.1065,8.1082,8.1082,8.1082,8.1082,8.1082,7.8789,7.8789,7.8789,7.8789,7.8789,7.8789,7.8789,7.8789,7.8789,7.8789,7.8789,7.8789,7.8789,7.8789,7.8789,7.8789,7.8789,7.8789,7.8789,7.8789,7.8789,7.8789,7.8789,7.8789,7.8789,7.8789,7.8789,7.8789,7.8789,7.8789,7.8789,7.8789,7.8789,7.8789,7.8789,7.8789,7.8789,7.8789,7.8789,7.8789,7.8789,7.8789,7.8789,7.8789,7.8789,7.8789,7.8789,7.8789,7.8789,7.8789,7.8789,7.8789,7.8789,7.8789,7.8789,7.8789,7.8789,7.8789,7.8789,7.8789,7.8789,7.8789,7.8789,7.8789,7.8789,7.8789,7.8789,7.8789,7.8789,7.8789,7.8789,7.8789,7.8789,7.8789,7.8789,7.8789,7.8789,7.8789,7.8789,7.8789,7.8789,7.8789,7.8789,7.8789,7.8789,7.8789,7.8789,7.8789,7.8789,7.8789,7.8789,7.8789,7.8789,7.8789,7.8789,7.8789,7.8879,7.8987,7.9238,7.9505,7.9842,8.0089,8.0352,8.058,8.0719,8.084,8.0962,8.1082,8.1082,8.1082,8.1082,8.1082,8.1082,8.1082,8.1082,7.8789,7.8789,7.8789,7.8789,7.8789,7.8789,7.8789,7.8789,7.8789,7.8789,7.8789,7.8789,7.8789,7.8789,7.8789,7.8789,7.8789,7.8789,7.8789,7.8789,7.8789,7.8789,7.8789,7.8789,7.8789,7.8789,7.8789,7.8789,7.8789,7.8789,7.8789,7.8789,7.8789,7.8789,7.8789,7.8789,7.8789,7.8789,7.8789,7.8789,7.8789,7.8789,7.8789,7.8789,7.8789,7.8789,7.8789,7.8789,7.8789,7.8789,7.8789,7.8789,7.8789,7.8789,7.8789,7.8789,7.8789,7.8789,7.8789,7.8789,7.8789,7.8789,7.8789,7.8789,7.8789,7.8789,7.8789,7.8789,7.8789,7.8789,7.8789,7.8789,7.8789,7.8789,7.8789,7.8789,7.8789,7.8789,7.8789,7.8789,7.8789,7.8789,7.8789,7.8789,7.8789,7.8789,7.8789,7.8789,7.8789,7.8789,7.8789,7.8789,7.8789,7.8789,7.8807,7.8879,7.9023,7.9166,7.9505,7.9807,8.0159,8.0457,8.0649,8.0823,8.0979,8.1082,8.1082,8.1082,8.1082,8.1082,8.1082,8.1082,8.1082,8.1082,8.1082,7.8789,7.8789,7.8789,7.8789,7.8789,7.8789,7.8789,7.8789,7.8789,7.8789,7.8789,7.8789,7.8789,7.8789,7.8789,7.8789,7.8789,7.8789,7.8789,7.8789,7.8789,7.8789,7.8789,7.8789,7.8789,7.8789,7.8789,7.8789,7.8789,7.8789,7.8789,7.8789,7.8789,7.8789,7.8789,7.8789,7.8789,7.8789,7.8789,7.8789,7.8789,7.8789,7.8789,7.8789,7.8789,7.8789,7.8789,7.8789,7.8789,7.8789,7.8789,7.8789,7.8789,7.8789,7.8789,7.8789,7.8789,7.8789,7.8789,7.8789,7.8789,7.8789,7.8789,7.8789,7.8789,7.8789,7.8789,7.8789,7.8789,7.8789,7.8789,7.8789,7.8789,7.8789,7.8789,7.8789,7.8789,7.8789,7.8789,7.8789,7.8789,7.8789,7.8789,7.8789,7.8789,7.8789,7.8789,7.8789,7.8789,7.8789,7.8789,7.8789,7.8807,7.8825,7.8951,7.9041,7.9202,7.9398,7.9754,8.0107,8.0405,8.0684,8.0892,8.1013,8.1065,8.1082,8.1082,8.1082,8.1082,8.1082,8.1082,8.1082,8.1082,8.1082,8.1082,7.8789,7.8789,7.8789,7.8789,7.8789,7.8789,7.8789,7.8789,7.8789,7.8789,7.8789,7.8789,7.8789,7.8789,7.8789,7.8789,7.8789,7.8789,7.8789,7.8789,7.8789,7.8789,7.8789,7.8789,7.8789,7.8789,7.8789,7.8789,7.8789,7.8789,7.8789,7.8789,7.8789,7.8789,7.8789,7.8789,7.8789,7.8789,7.8789,7.8789,7.8789,7.8789,7.8789,7.8789,7.8789,7.8789,7.8789,7.8789,7.8789,7.8789,7.8789,7.8789,7.8789,7.8789,7.8789,7.8789,7.8789,7.8789,7.8789,7.8789,7.8789,7.8789,7.8789,7.8789,7.8789,7.8789,7.8789,7.8789,7.8789,7.8789,7.8789,7.8789,7.8789,7.8789,7.8789,7.8789,7.8789,7.8789,7.8789,7.8789,7.8789,7.8789,7.8789,7.8789,7.8789,7.8789,7.8789,7.8789,7.8789,7.8789,7.8789,7.8789,7.8825,7.8843,7.9041,7.9309,7.9523,7.9771,8.0107,8.0422,8.0684,8.084,8.0996,8.1048,8.1065,8.1082,8.1082,8.1082,8.1082,8.1082,8.1082,8.1082,8.1082,8.1082,8.1082,7.8789,7.8789,7.8789,7.8789,7.8789,7.8789,7.8789,7.8789,7.8789,7.8789,7.8789,7.8789,7.8789,7.8789,7.8789,7.8789,7.8789,7.8789,7.8789,7.8789,7.8789,7.8789,7.8789,7.8789,7.8789,7.8789,7.8789,7.8789,7.8789,7.8789,7.8789,7.8789,7.8789,7.8789,7.8789,7.8789,7.8789,7.8789,7.8789,7.8789,7.8789,7.8789,7.8789,7.8789,7.8789,7.8789,7.8789,7.8789,7.8789,7.8789,7.8789,7.8789,7.8789,7.8789,7.8789,7.8789,7.8789,7.8789,7.8789,7.8789,7.8789,7.8789,7.8789,7.8789,7.8789,7.8789,7.8789,7.8789,7.8789,7.8789,7.8789,7.8789,7.8789,7.8789,7.8789,7.8789,7.8789,7.8789,7.8789,7.8789,7.8789,7.8789,7.8789,7.8789,7.8789,7.8789,7.8789,7.8789,7.8915,7.8915,7.8951,7.8951,7.8987,7.9112,7.938,7.9647,7.9913,8.0177,8.0457,8.0667,8.0875,8.0979,8.1065,8.1082,8.1082,8.1082,8.1082,8.1082,8.1082,8.1082,8.1082,8.1082,8.1082,8.1082,8.1082,7.8789,7.8789,7.8789,7.8789,7.8789,7.8789,7.8789,7.8789,7.8789,7.8789,7.8789,7.8789,7.8789,7.8789,7.8789,7.8789,7.8789,7.8789,7.8789,7.8789,7.8789,7.8789,7.8789,7.8789,7.8789,7.8789,7.8789,7.8789,7.8819,7.8789,7.8819,7.8789,7.8849,7.8878,7.8789,7.8789,7.8789,7.8789,7.8789,7.8789,7.8789,7.8789,7.8789,7.8789,7.8789,7.8789,7.8789,7.8789,7.8789,7.8789,7.8789,7.8789,7.8789,7.8789,7.8789,7.8789,7.8789,7.8789,7.8789,7.8789,7.8789,7.8789,7.8789,7.8789,7.8789,7.8789,7.8789,7.8789,7.8789,7.8789,7.8789,7.8789,7.8789,7.8789,7.8789,7.8789,7.8789,7.8789,7.8789,7.8789,7.8789,7.8789,7.8789,7.8789,7.8789,7.8789,7.8789,7.8861,7.9148,7.9238,7.9327,7.9327,7.9291,7.9416,7.9718,7.9935,8.0212,8.0457,8.0701,8.0923,8.1096,8.1096,8.1082,8.1082,8.1082,8.1082,8.1082,8.1082,8.1082,8.1082,8.1082,8.1082,8.1082,8.1082,8.1082,7.8789,7.8789,7.8789,7.8789,7.8789,7.8789,7.8789,7.8789,7.8789,7.8789,7.8789,7.8789,7.8789,7.8789,7.8789,7.8789,7.8789,7.8789,7.8789,7.8789,7.8789,7.8789,7.8789,7.8789,7.8789,7.8789,7.8789,7.8789,7.8878,7.9148,7.9238,7.8938,7.8968,7.9088,7.8878,7.8789,7.8789,7.8789,7.8789,7.8789,7.8789,7.8789,7.8789,7.8789,7.8789,7.8789,7.8789,7.8789,7.8789,7.8789,7.8789,7.8789,7.8789,7.8789,7.8789,7.8789,7.8789,7.8789,7.8789,7.8789,7.8789,7.8789,7.8789,7.8789,7.8789,7.8789,7.8789,7.8789,7.8789,7.8789,7.8789,7.8789,7.8789,7.8789,7.8789,7.8789,7.8789,7.8789,7.8789,7.8789,7.8789,7.8789,7.8789,7.8789,7.8807,7.8861,7.8861,7.9041,7.9309,7.9612,7.9701,7.9771,7.9754,7.9842,8.0124,8.0317,8.0492,8.0736,8.0958,8.1027,8.1096,8.1065,8.1082,8.1082,8.1082,8.1082,8.1082,8.1082,8.1082,8.1082,8.1082,8.1082,8.1082,8.1082,8.1082,7.8789,7.8789,7.8789,7.8789,7.8789,7.8789,7.8789,7.8789,7.8789,7.8789,7.8789,7.8789,7.8789,7.8789,7.8789,7.8789,7.8789,7.8789,7.8789,7.8789,7.8789,7.8789,7.8789,7.8789,7.8789,7.8789,7.8789,7.8908,7.9058,7.9369,7.9459,7.9148,7.9238,7.9459,7.8998,7.8789,7.8789,7.8789,7.8789,7.8789,7.8789,7.8789,7.8789,7.8789,7.8789,7.8789,7.8789,7.8789,7.8789,7.8789,7.8789,7.8789,7.8789,7.8789,7.8789,7.8789,7.8789,7.8789,7.8789,7.8789,7.8789,7.8789,7.8789,7.8789,7.8789,7.8789,7.8789,7.8789,7.8789,7.8789,7.8789,7.8789,7.8789,7.8789,7.8789,7.8789,7.8789,7.8789,7.8789,7.8789,7.8789,7.8789,7.8789,7.8789,7.8843,7.8897,7.9058,7.9273,7.9523,7.9895,8.0124,8.0247,8.0317,8.044,8.0562,8.0662,8.0815,8.0858,8.1044,8.1048,8.1082,8.1082,8.1082,8.1082,8.1082,8.1082,8.1082,8.1082,8.1082,8.1082,8.1082,8.1082,8.1082,8.1082,8.1082,7.8789,7.8789,7.8789,7.8789,7.8789,7.8789,7.8789,7.8789,7.8789,7.8789,7.8789,7.8789,7.8789,7.8789,7.8789,7.8789,7.8789,7.8789,7.8789,7.8789,7.8789,7.8789,7.8789,7.8789,7.8789,7.8837,7.8908,7.9118,7.9447,7.9698,7.9788,7.9638,7.9638,7.9519,7.8938,7.8819,7.8789,7.8789,7.8789,7.8789,7.8789,7.8789,7.8789,7.8789,7.8789,7.8789,7.8789,7.8789,7.8789,7.8789,7.8789,7.8789,7.8789,7.8789,7.8789,7.8789,7.8789,7.8789,7.8789,7.8789,7.8789,7.8789,7.8789,7.8789,7.8789,7.8789,7.8789,7.8789,7.8789,7.8789,7.8789,7.8789,7.8789,7.8789,7.8789,7.8789,7.8789,7.8789,7.8789,7.8789,7.8789,7.8789,7.8789,7.8807,7.8843,7.8969,7.9238,7.947,7.9842,8.0177,8.051,8.0662,8.0832,8.0892,8.0962,8.1015,8.1115,8.114,8.1206,8.1373,8.1373,8.1113,8.1082,8.1113,8.1113,8.1082,8.1082,8.1082,8.1082,8.1082,8.1082,8.1082,8.1082,8.1082,8.1082]}]]